[[{"header":{"parameterUnit":"m.s-1","parameterCategory":1,"la1":30.6,"la2":28.766,"lo1":-90.7593,"lo2":-88.6598,"dy":0.0162,"dx":0.0183,"nx":116,"ny":114,"refTime":"2023-10-07T12:00:00:Z","depth":0,"parameterNumber":2,"parameterNumberName":"U-component_of_WINDS"},"data":[0.0,0.0,0.0,0.0,0.0,0.0,0.0,0.0,0.0,0.0,0.0,0.0,0.0,0.0,0.0,0.0,0.0,0.0,0.0,0.0,0.0,0.0,0.0,0.0,0.0,0.0,0.0,0.0,0.0,0.0,0.0,0.0,0.0,0.0,0.0,0.0,0.0,0.0,0.0,0.0,0.0,0.0,0.0,0.0,0.0,0.0,0.0,0.0,0.0,0.0,0.0,0.0,0.0,0.0,0.0,0.0,0.0,0.0,0.0,0.0,0.0,0.0,0.0,0.0,0.0,0.0,0.0,0.0,0.0,0.0,0.0,0.0,0.0,0.0,0.0,0.0,0.0,0.0,0.0,0.0,0.0,0.0,0.0,0.0,0.0,0.0,0.0,0.0,0.0,0.0,0.0,0.0,0.0,0.0,0.0,0.0,0.0,0.0,0.0,0.0,0.0,0.0,0.0,0.0,0.0,0.0,0.0,0.0,0.0,0.0,0.0,0.0,0.0,0.0,0.0,0.0,0.0,0.0,0.0,0.0,0.0,0.0,0.0,0.0,0.0,0.0,0.0,0.0,0.0,0.0,0.0,0.0,0.0,0.0,0.0,0.0,0.0,0.0,0.0,0.0,0.0,0.0,0.0,0.0,0.0,0.0,0.0,0.0,0.0,0.0,0.0,0.0,0.0,0.0,0.0,0.0,0.0,0.0,0.0,0.0,0.0,0.0,0.0,0.0,0.0,0.0,0.0,0.0,0.0,0.0,0.0,0.0,0.0,0.0,0.0,0.0,0.0,0.0,0.0,0.0,0.0,0.0,0.0,0.0,0.0,0.0,0.0,0.0,0.0,0.0,0.0,0.0,0.0,0.0,0.0,0.0,0.0,0.0,0.0,0.0,0.0,0.0,0.0,0.0,0.0,0.0,0.0,0.0,0.0,0.0,0.0,0.0,0.0,0.0,0.0,0.0,0.0,0.0,0.0,0.0,0.0,0.0,0.0,0.0,0.0,0.0,0.0,0.0,0.0,0.0,0.0,0.0,0.0,0.0,0.0,0.0,0.0,0.0,0.0,0.0,0.0,0.0,0.0,0.0,0.0,0.0,0.0,0.0,0.0,0.0,0.0,0.0,0.0,0.0,0.0,0.0,0.0,0.0,0.0,0.0,0.0,0.0,0.0,0.0,0.0,0.0,0.0,0.0,0.0,0.0,0.0,0.0,0.0,0.0,0.0,0.0,0.0,0.0,0.0,0.0,0.0,0.0,0.0,0.0,0.0,0.0,0.0,0.0,0.0,0.0,0.0,0.0,0.0,0.0,0.0,0.0,0.0,0.0,0.0,0.0,0.0,0.0,0.0,0.0,0.0,0.0,0.0,0.0,0.0,0.0,0.0,0.0,0.0,0.0,0.0,0.0,0.0,0.0,0.0,0.0,0.0,0.0,0.0,0.0,0.0,0.0,0.0,0.0,0.0,0.0,0.0,0.0,0.0,0.0,0.0,0.0,0.0,0.0,0.0,0.0,0.0,0.0,0.0,0.0,0.0,0.0,0.0,0.0,0.0,0.0,0.0,0.0,0.0,0.0,0.0,0.0,0.0,0.0,0.0,0.0,0.0,0.0,0.0,0.0,0.0,0.0,0.0,0.0,0.0,0.0,0.0,0.0,0.0,0.0,0.0,0.0,0.0,0.0,0.0,0.0,0.0,0.0,0.0,0.0,0.0,0.0,0.0,0.0,0.0,0.0,0.0,0.0,0.0,0.0,0.0,0.0,0.0,0.0,0.0,0.0,0.0,0.0,0.0,0.0,0.0,0.0,0.0,0.0,0.0,0.0,0.0,0.0,0.0,0.0,0.0,0.0,0.0,0.0,0.0,0.0,0.0,0.0,0.0,0.0,0.0,0.0,0.0,0.0,0.0,0.0,0.0,0.0,0.0,0.0,0.0,0.0,0.0,0.0,0.0,0.0,0.0,0.0,0.0,0.0,0.0,0.0,0.0,0.0,0.0,0.0,0.0,0.0,0.0,0.0,0.0,0.0,0.0,0.0,0.0,0.0,0.0,0.0,0.0,0.0,0.0,0.0,0.0,0.0,0.0,0.0,0.0,0.0,0.0,0.0,0.0,0.0,0.0,0.0,0.0,0.0,0.0,0.0,0.0,0.0,0.0,0.0,0.0,0.0,0.0,0.0,0.0,0.0,0.0,0.0,0.0,0.0,0.0,0.0,0.0,0.0,0.0,0.0,0.0,0.0,0.0,0.0,0.0,0.0,0.0,0.0,0.0,0.0,0.0,0.0,0.0,0.0,0.0,0.0,0.0,0.0,0.0,0.0,0.0,0.0,0.0,0.0,0.0,0.0,0.0,0.0,0.0,0.0,0.0,0.0,0.0,0.0,0.0,0.0,0.0,0.0,0.0,0.0,0.0,0.0,0.0,0.0,0.0,0.0,0.0,0.0,0.0,0.0,0.0,0.0,0.0,0.0,0.0,0.0,0.0,0.0,0.0,0.0,0.0,0.0,0.0,0.0,0.0,0.0,0.0,0.0,0.0,0.0,0.0,0.0,0.0,0.0,0.0,0.0,0.0,0.0,0.0,0.0,0.0,0.0,0.0,0.0,0.0,0.0,0.0,0.0,0.0,0.0,0.0,0.0,0.0,0.0,0.0,0.0,0.0,0.0,0.0,0.0,0.0,0.0,0.0,0.0,0.0,0.0,0.0,0.0,0.0,0.0,0.0,0.0,0.0,0.0,0.0,0.0,0.0,0.0,0.0,0.0,0.0,0.0,0.0,0.0,0.0,0.0,0.0,0.0,0.0,0.0,0.0,0.0,0.0,0.0,0.0,0.0,0.0,0.0,0.0,0.0,0.0,0.0,0.0,0.0,0.0,0.0,0.0,0.0,0.0,0.0,0.0,0.0,0.0,0.0,0.0,0.0,0.0,0.0,0.0,0.0,0.0,0.0,0.0,0.0,0.0,0.0,0.0,0.0,0.0,0.0,0.0,0.0,0.0,0.0,0.0,0.0,0.0,0.0,0.0,0.0,0.0,0.0,0.0,0.0,0.0,0.0,0.0,0.0,0.0,0.0,0.0,0.0,0.0,0.0,0.0,0.0,0.0,0.0,0.0,0.0,0.0,0.0,0.0,0.0,0.0,0.0,0.0,0.0,0.0,0.0,0.0,0.0,0.0,0.0,0.0,0.0,0.0,0.0,0.0,0.0,0.0,0.0,0.0,0.0,0.0,0.0,0.0,0.0,0.0,0.0,0.0,0.0,0.0,0.0,0.0,0.0,0.0,0.0,0.0,0.0,0.0,0.0,0.0,0.0,0.0,0.0,0.0,0.0,0.0,0.0,0.0,0.0,0.0,0.0,0.0,0.0,0.0,0.0,0.0,0.0,0.0,0.0,0.0,0.0,0.0,0.0,0.0,0.0,0.0,0.0,0.0,0.0,0.0,0.0,0.0,0.0,0.0,0.0,0.0,0.0,0.0,0.0,0.0,0.0,0.0,0.0,0.0,0.0,0.0,0.0,0.0,0.0,0.0,0.0,0.0,0.0,0.0,0.0,0.0,0.0,0.0,0.0,0.0,0.0,0.0,0.0,0.0,0.0,0.0,0.0,0.0,0.0,0.0,0.0,0.0,0.0,0.0,0.0,0.0,0.0,0.0,0.0,0.0,0.0,0.0,0.0,0.0,0.0,0.0,0.0,0.0,0.0,0.0,0.0,0.0,0.0,0.0,0.0,0.0,0.0,0.0,0.0,0.0,0.0,0.0,0.0,0.0,0.0,0.0,0.0,0.0,0.0,0.0,0.0,0.0,0.0,0.0,0.0,0.0,0.0,0.0,0.0,0.0,0.0,0.0,0.0,0.0,0.0,0.0,0.0,0.0,0.0,0.0,0.0,0.0,0.0,0.0,0.0,0.0,0.0,0.0,0.0,0.0,0.0,0.0,0.0,0.0,0.0,0.0,0.0,0.0,0.0,0.0,0.0,0.0,0.0,0.0,0.0,0.0,0.0,0.0,0.0,0.0,0.0,0.0,0.0,0.0,0.0,0.0,0.0,0.0,0.0,0.0,0.0,0.0,0.0,0.0,0.0,0.0,0.0,0.0,0.0,0.0,0.0,0.0,0.0,0.0,0.0,0.0,0.0,0.0,0.0,0.0,0.0,0.0,0.0,0.0,0.0,0.0,0.0,0.0,0.0,0.0,0.0,0.0,0.0,0.0,0.0,0.0,0.0,0.0,0.0,0.0,0.0,0.0,0.0,0.0,0.0,0.0,0.0,0.0,0.0,0.0,0.0,0.0,0.0,0.0,0.0,0.0,0.0,0.0,0.0,0.0,0.0,0.0,0.0,0.0,0.0,0.0,0.0,0.0,0.0,0.0,0.0,0.0,0.0,0.0,0.0,0.0,0.0,0.0,0.0,0.0,0.0,0.0,0.0,0.0,0.0,0.0,0.0,0.0,0.0,0.0,0.0,0.0,0.0,0.0,0.0,0.0,0.0,0.0,0.0,0.0,0.0,0.0,0.0,0.0,0.0,0.0,0.0,0.0,0.0,0.0,0.0,0.0,0.0,0.0,0.0,0.0,0.0,0.0,0.0,0.0,0.0,0.0,0.0,0.0,0.0,0.0,0.0,0.0,0.0,0.0,0.0,0.0,0.0,0.0,0.0,0.0,0.0,0.0,0.0,0.0,0.0,0.0,0.0,0.0,0.0,0.0,0.0,0.0,0.0,0.0,0.0,0.0,0.0,0.0,0.0,0.0,0.0,0.0,0.0,0.0,0.0,0.0,0.0,0.0,0.0,0.0,0.0,0.0,0.0,0.0,0.0,0.0,0.0,0.0,0.0,0.0,0.0,0.0,0.0,0.0,0.0,0.0,0.0,0.0,0.0,0.0,0.0,0.0,0.0,0.0,0.0,0.0,0.0,0.0,0.0,0.0,0.0,0.0,0.0,0.0,0.0,0.0,0.0,0.0,0.0,0.0,0.0,0.0,0.0,0.0,0.0,0.0,0.0,0.0,0.0,0.0,0.0,0.0,0.0,0.0,0.0,0.0,0.0,0.0,0.0,0.0,0.0,0.0,0.0,0.0,0.0,0.0,0.0,0.0,0.0,0.0,0.0,0.0,0.0,0.0,0.0,0.0,0.0,0.0,0.0,0.0,0.0,0.0,0.0,0.0,0.0,0.0,0.0,0.0,0.0,0.0,0.0,0.0,0.0,0.0,0.0,0.0,0.0,0.0,0.0,0.0,0.0,0.0,0.0,0.0,0.0,0.0,0.0,0.0,0.0,0.0,0.0,0.0,0.0,0.0,0.0,0.0,0.0,0.0,0.0,0.0,0.0,0.0,0.0,0.0,0.0,0.0,0.0,0.0,0.0,0.0,0.0,0.0,0.0,0.0,0.0,0.0,0.0,0.0,0.0,0.0,0.0,0.0,0.0,0.0,0.0,0.0,0.0,0.0,0.0,0.0,0.0,0.0,0.0,0.0,0.0,0.0,0.0,0.0,0.0,0.0,0.0,0.0,0.0,0.0,0.0,0.0,0.0,0.0,0.0,0.0,0.0,0.0,0.0,0.0,0.0,0.0,0.0,0.0,0.0,0.0,0.0,0.0,0.0,0.0,0.0,0.0,0.0,0.0,0.0,0.0,0.0,0.0,0.0,0.0,0.0,0.0,0.0,0.0,0.0,0.0,0.0,0.0,0.0,0.0,0.0,0.0,0.0,0.0,0.0,0.0,0.0,0.0,0.0,0.0,0.0,0.0,0.0,0.0,0.0,0.0,0.0,0.0,0.0,0.0,0.0,0.0,0.0,0.0,0.0,0.0,0.0,0.0,0.0,0.0,0.0,0.0,0.0,0.0,0.0,0.0,0.0,0.0,0.0,0.0,0.0,0.0,0.0,0.0,0.0,0.0,0.0,0.0,0.0,0.0,0.0,0.0,0.0,0.0,0.0,0.0,0.0,0.0,0.0,0.0,0.0,0.0,0.0,0.0,0.0,0.0,0.0,0.0,0.0,0.0,0.0,0.0,0.0,0.0,0.0,0.0,0.0,0.0,0.0,0.0,0.0,0.0,0.0,0.0,0.0,0.0,0.0,0.0,0.0,0.0,0.0,0.0,0.0,0.0,0.0,-2.1108,-2.2266,0.0,0.0,0.0,0.0,0.0,0.0,0.0,0.0,0.0,0.0,0.0,0.0,0.0,0.0,0.0,0.0,0.0,0.0,0.0,0.0,0.0,0.0,0.0,0.0,0.0,0.0,0.0,0.0,0.0,0.0,0.0,0.0,0.0,0.0,0.0,0.0,0.0,-2.4322,-2.418,-2.3732,-2.302,-2.4514,-2.5408,-2.577,0.0,0.0,0.0,0.0,0.0,0.0,0.0,0.0,0.0,0.0,0.0,0.0,0.0,0.0,0.0,0.0,0.0,0.0,0.0,0.0,0.0,0.0,0.0,0.0,0.0,0.0,0.0,0.0,0.0,0.0,0.0,0.0,0.0,0.0,0.0,0.0,0.0,0.0,0.0,0.0,0.0,0.0,0.0,0.0,0.0,0.0,0.0,0.0,0.0,0.0,0.0,0.0,0.0,0.0,0.0,0.0,0.0,0.0,0.0,0.0,0.0,0.0,0.0,0.0,0.0,0.0,0.0,0.0,0.0,0.0,-2.0021,-2.0601,0.0,0.0,0.0,0.0,0.0,0.0,0.0,0.0,0.0,0.0,0.0,0.0,0.0,0.0,0.0,0.0,0.0,0.0,0.0,0.0,0.0,0.0,0.0,-2.2383,-2.2383,-2.2383,-2.2383,-2.2383,0.0,0.0,0.0,0.0,0.0,0.0,-2.2839,-2.3101,-2.3234,-2.3289,-2.2877,-2.2485,-2.2127,-2.3142,-2.3782,-2.4092,-2.4686,0.0,0.0,0.0,0.0,0.0,0.0,0.0,0.0,0.0,0.0,0.0,0.0,0.0,0.0,0.0,0.0,0.0,0.0,0.0,0.0,0.0,0.0,0.0,0.0,0.0,0.0,0.0,0.0,0.0,0.0,0.0,0.0,0.0,0.0,0.0,0.0,0.0,0.0,0.0,0.0,0.0,0.0,0.0,0.0,0.0,0.0,0.0,0.0,0.0,0.0,0.0,0.0,0.0,0.0,0.0,0.0,0.0,0.0,0.0,0.0,0.0,0.0,0.0,-1.9221,-1.9387,-1.9387,-1.9387,-1.8706,-1.7554,-1.8874,-1.8706,-1.7677,-1.8429,0.0,0.0,0.0,0.0,0.0,0.0,0.0,0.0,0.0,0.0,0.0,0.0,0.0,0.0,0.0,0.0,0.0,0.0,0.0,-2.1803,-2.1803,-2.1803,-2.1803,-2.1803,-2.1803,-2.1803,-2.1803,0.0,0.0,0.0,0.0,-2.2353,-2.262,-2.2879,-2.2588,-2.1693,-2.0709,-2.0236,-2.0179,-2.088,-2.1443,-2.2049,-2.3602,-2.4359,-2.4463,0.0,0.0,0.0,0.0,0.0,0.0,0.0,0.0,0.0,0.0,0.0,0.0,0.0,0.0,0.0,0.0,0.0,0.0,0.0,0.0,0.0,0.0,0.0,0.0,0.0,0.0,0.0,0.0,0.0,0.0,0.0,0.0,0.0,0.0,0.0,0.0,0.0,0.0,0.0,0.0,0.0,-2.0127,-1.9299,0.0,0.0,0.0,0.0,0.0,0.0,0.0,0.0,0.0,0.0,0.0,0.0,0.0,-1.8616,-1.8389,-1.7747,-1.7396,-1.7279,-1.6585,-1.6236,-1.6236,-1.6236,-1.6118,-1.5887,-1.6118,0.0,-1.6371,-1.649,0.0,0.0,0.0,0.0,0.0,0.0,0.0,0.0,0.0,0.0,0.0,0.0,0.0,0.0,0.0,0.0,0.0,0.0,0.0,0.0,0.0,-1.9295,-1.8866,-1.8866,-1.8324,-1.822,-1.8866,-1.9031,0.0,0.0,-2.0385,-2.062,-2.0727,-2.0145,-1.9269,-1.8053,-1.8708,-1.8921,-1.8767,-2.0083,-2.0572,-2.0331,-2.1283,-2.2371,-2.3548,-2.3821,0.0,0.0,0.0,0.0,0.0,0.0,0.0,0.0,0.0,0.0,0.0,0.0,0.0,0.0,0.0,0.0,0.0,0.0,0.0,0.0,0.0,0.0,0.0,0.0,0.0,0.0,0.0,0.0,0.0,0.0,0.0,0.0,0.0,0.0,0.0,0.0,0.0,0.0,0.0,-2.0104,-1.9866,-1.9975,-2.0213,-2.045,0.0,0.0,0.0,0.0,0.0,0.0,0.0,0.0,0.0,-1.7636,-1.7636,-1.7343,-1.682,-1.6414,-1.6,-1.5634,-1.5224,-1.4878,-1.4525,-1.4525,-1.4525,-1.4525,-1.4525,-1.4644,-1.4828,-1.5542,-1.5844,-1.572,0.0,0.0,0.0,0.0,-1.2564,-1.1904,0.0,0.0,0.0,0.0,0.0,0.0,0.0,0.0,0.0,0.0,0.0,0.0,-1.7345,-1.6486,-1.5949,-1.6009,-1.5198,-1.5066,-1.6053,-1.6295,-1.6823,-1.7784,-1.8397,-1.8613,-1.8384,-1.7491,-1.6562,-1.5636,-1.7064,-1.7631,-1.744,-1.9269,-1.973,-1.9087,-1.9513,-2.0486,-2.1858,-2.1972,-2.2021,-2.2085,0.0,0.0,0.0,0.0,0.0,0.0,0.0,0.0,0.0,0.0,0.0,0.0,0.0,0.0,0.0,0.0,0.0,0.0,0.0,0.0,0.0,0.0,0.0,0.0,0.0,0.0,0.0,0.0,0.0,0.0,0.0,0.0,0.0,0.0,0.0,0.0,0.0,-2.004,-1.9686,-2.0385,-1.9744,-1.9455,0.0,0.0,0.0,0.0,0.0,0.0,-1.6791,-1.7267,-1.7126,-1.6256,-1.6196,-1.5877,-1.5233,-1.5233,-1.4992,-1.45,-1.45,-1.4258,-1.3844,-1.3844,-1.3844,-1.3844,-1.3844,-1.3844,-1.39,-1.475,-1.4937,-1.4629,-1.3421,-1.2817,-1.2453,-1.1238,-1.0571,-1.0087,0.0,0.0,0.0,0.0,0.0,0.0,0.0,0.0,0.0,0.0,0.0,-1.5589,-1.4454,-1.4024,-1.397,-1.4186,-1.397,-1.3958,-1.4466,-1.4548,-1.465,-1.4928,-1.6313,-1.6683,-1.5816,-1.5987,-1.6046,-1.5987,-1.6068,-1.6133,-1.6121,-1.7787,-1.8506,-1.8448,-1.9029,-1.9094,-1.868,-1.9241,-1.9465,-1.9639,-2.1073,0.0,0.0,0.0,0.0,0.0,0.0,0.0,0.0,0.0,0.0,0.0,0.0,0.0,0.0,0.0,0.0,0.0,0.0,0.0,0.0,0.0,0.0,0.0,0.0,0.0,0.0,0.0,0.0,0.0,0.0,0.0,0.0,0.0,0.0,0.0,0.0,0.0,0.0,-1.8564,-1.7917,0.0,0.0,0.0,0.0,-1.6598,-1.6598,-1.6133,-1.5262,-1.5268,-1.489,-1.408,-1.4089,-1.4123,-1.427,-1.4274,-1.4274,-1.4212,-1.4212,-1.4212,-1.4149,-1.4149,-1.4149,-1.4149,-1.4149,-1.4149,-1.4184,-1.391,-1.3255,-1.2337,-1.2273,-1.1727,-1.0933,-1.0812,-0.9966,-0.8821,0.0,0.0,0.0,0.0,0.0,0.0,0.0,0.0,-1.4669,-1.4288,-1.4239,-1.4078,-1.3647,-1.2837,-1.2299,-1.2403,-1.1771,-1.171,-1.2669,-1.297,-1.349,-1.4364,-1.53,-1.5317,-1.4375,-1.445,-1.4138,-1.3315,-1.4138,-1.449,-1.455,-1.6144,-1.6503,-1.5978,-1.6809,-1.6744,-1.6096,-1.791,-1.8493,-1.8137,-1.9125,-1.953,0.0,0.0,0.0,0.0,0.0,0.0,0.0,0.0,0.0,0.0,0.0,0.0,0.0,0.0,0.0,0.0,0.0,0.0,0.0,0.0,0.0,0.0,0.0,0.0,0.0,0.0,0.0,0.0,0.0,0.0,0.0,0.0,0.0,0.0,0.0,0.0,0.0,-1.7138,-1.6438,0.0,-1.6786,-1.572,-1.5007,-1.5162,-1.4585,-1.4168,-1.3939,-1.4317,-1.4417,-1.4122,-1.4065,-1.4103,-1.4177,-1.4177,-1.399,-1.3613,-1.3613,-1.3367,-1.2994,-1.2994,-1.2994,-1.2931,-1.2225,-1.1964,-1.1894,-1.1084,-1.1398,-1.2316,-1.0582,-0.9709,-0.9271,-0.8207,-0.7521,-0.7086,0.0,0.0,0.0,0.0,0.0,0.0,0.0,-1.3318,-1.3156,-1.2729,-1.2674,-1.2566,-1.2136,-1.1328,-1.084,-1.0895,-1.0293,-1.025,-1.1203,-1.1599,-1.214,-1.3021,-1.352,-1.378,-1.3725,-1.325,-1.2664,-1.1776,-1.2664,-1.3075,-1.3075,-1.455,-1.4906,-1.4326,-1.5159,-1.5041,-1.4446,-1.6332,-1.6985,-1.6868,-1.763,-1.7923,-1.8046,0.0,0.0,0.0,0.0,0.0,0.0,0.0,0.0,0.0,0.0,0.0,0.0,0.0,0.0,0.0,0.0,0.0,0.0,0.0,0.0,0.0,0.0,0.0,0.0,0.0,0.0,0.0,0.0,0.0,0.0,0.0,0.0,0.0,0.0,-1.6388,-1.5498,-1.6434,-1.5322,-1.4832,-1.5774,-1.4459,-1.3559,-1.3701,-1.311,-1.2798,-1.2981,-1.3367,-1.3586,-1.3649,-1.3649,-1.3685,-1.3752,-1.3752,-1.3497,-1.3114,-1.3114,-1.2927,-1.2487,-1.2094,-1.1898,-1.1898,-1.0798,-1.0344,-1.028,-0.9183,-0.9626,-1.0888,-0.9012,-0.8092,-0.7645,-0.6562,-0.618,-0.618,0.0,0.0,0.0,0.0,0.0,0.0,-1.3156,-1.3156,-1.2729,-1.1542,-1.1378,-1.1004,-0.9812,-0.9544,-0.9489,-0.9769,-0.9689,-0.9792,-1.0239,-1.041,-1.0569,-1.0781,-1.1091,-1.1989,-1.3605,-1.2427,-1.1776,-1.1776,-1.1776,-1.1776,-1.1837,-1.3075,-1.3665,-1.3665,-1.4267,-1.4207,-1.3725,-1.4326,-1.4932,-1.5596,-1.6532,-1.6938,-1.7056,0.0,0.0,0.0,0.0,0.0,0.0,0.0,0.0,0.0,0.0,0.0,0.0,0.0,0.0,0.0,0.0,0.0,0.0,0.0,0.0,0.0,0.0,0.0,0.0,0.0,0.0,0.0,0.0,0.0,0.0,0.0,0.0,0.0,-1.6248,-1.5714,-1.5561,-1.6452,-1.4589,-1.3604,-1.4519,-1.3232,-1.2308,-1.2316,-1.2316,-1.2316,-1.2324,-1.2324,-1.2402,-1.2568,-1.2637,-1.2657,-1.277,-1.277,-1.277,-1.277,-1.277,-1.277,-1.2704,-1.1633,-1.1163,-1.1097,-1.0041,-0.9579,-0.9446,-0.8376,-0.7977,-0.7956,-0.7677,-0.702,-0.6188,-0.6188,-0.6188,-0.6188,0.0,0.0,0.0,0.0,0.0,0.0,-1.0131,-1.0131,-0.9691,-0.8472,-0.9089,-0.9147,-0.7983,-0.8546,-0.9147,-0.9363,-0.94,-0.9555,-0.9769,-0.9919,-1.0141,-1.0422,-1.0547,-1.1027,-1.1933,-1.1635,-1.1587,-1.1776,-1.1776,-1.1776,-1.1837,-1.2134,-1.2311,-1.2371,-1.296,-1.3135,-1.3015,-1.3679,-1.4047,-1.4282,-1.4986,-1.5278,-1.5337,0.0,0.0,0.0,0.0,0.0,0.0,0.0,0.0,0.0,0.0,0.0,0.0,0.0,0.0,0.0,0.0,0.0,0.0,0.0,0.0,0.0,0.0,0.0,0.0,0.0,0.0,0.0,0.0,0.0,0.0,0.0,-1.404,-1.36,-1.4986,-1.3975,-1.322,-1.3461,-1.2955,-1.2679,-1.2922,-1.2552,-1.2357,-1.2483,-1.2495,-1.2552,-1.2686,-1.269,-1.271,-1.2759,-1.2763,-1.2787,-1.277,-1.277,-1.277,-1.277,-1.2033,-1.1633,-1.1633,-1.0505,-1.0041,-0.9975,-0.8909,-0.8443,-0.8376,-0.7316,-0.6918,-0.6913,-0.6861,-0.6643,-0.6446,-0.6446,-0.6446,-0.6446,0.0,0.0,0.0,0.0,0.0,0.0,-0.8937,-0.8885,-0.8491,-0.7263,-0.7709,-0.7709,-0.6536,-0.7035,-0.7474,-0.7596,-0.8247,-0.8679,-0.876,-0.889,-0.9143,-0.9444,-0.9444,-0.9994,-1.1091,-1.1212,-1.1398,-1.1587,-1.1712,-1.1776,-1.1776,-1.1776,-1.1776,-1.1837,-1.2191,-1.2307,-1.2367,-1.3024,-1.3149,-1.2973,-1.3559,-1.3978,-1.4336,-1.5105,-1.5634,-1.6107,-1.6932,-1.7226,-1.7226,-1.7226,0.0,0.0,0.0,0.0,0.0,0.0,0.0,0.0,0.0,0.0,0.0,0.0,0.0,0.0,0.0,0.0,0.0,0.0,0.0,0.0,0.0,0.0,0.0,0.0,-1.3178,-1.2934,-1.3783,-1.3025,-1.2414,-1.2414,-1.2483,-1.2527,-1.2527,-1.2527,-1.2572,-1.267,-1.2678,-1.2726,-1.2832,-1.277,-1.277,-1.277,-1.277,-1.277,-1.277,-1.277,-1.2568,-1.2099,-1.1497,-1.0965,-1.0502,-0.944,-0.8909,-0.8845,-0.7848,-0.7383,-0.7314,-0.6719,-0.652,-0.652,0.0,0.0,0.0,0.0,-0.652,-0.652,0.0,0.0,0.0,0.0,0.0,0.0,-0.8992,-0.894,-0.8436,-0.7096,-0.7041,-0.6594,-0.5361,-0.5306,-0.5398,-0.5431,-0.6623,-0.7386,-0.7397,-0.7556,-0.7795,-0.8033,-0.8033,-0.8766,-1.0297,-1.06,-1.0842,-1.1027,-1.1341,-1.1591,-1.1712,-1.1776,-1.1776,-1.1776,-1.1776,-1.1776,-1.1837,-1.2367,-1.2307,-1.1837,-1.2367,-1.3024,-1.3624,-1.4152,-1.4451,-1.4689,-1.5294,-1.5537,-1.5601,-1.5601,0.0,0.0,0.0,0.0,0.0,0.0,0.0,0.0,0.0,0.0,0.0,0.0,0.0,0.0,0.0,0.0,0.0,0.0,0.0,0.0,0.0,0.0,0.0,0.0,-1.2702,-1.2653,-1.2746,-1.2698,-1.2596,-1.2596,-1.2739,-1.277,-1.277,-1.277,-1.277,-1.277,-1.277,-1.277,-1.277,-1.277,0.0,0.0,0.0,-1.2634,-1.2634,-1.2507,-1.1971,-1.1031,-1.0899,-1.0369,-0.9377,-0.8312,-0.7843,-0.7779,-0.6918,-0.652,-0.652,-0.652,-0.652,-0.652,-0.652,-0.652,-0.652,-0.652,-0.652,-0.652,0.0,0.0,0.0,0.0,0.0,0.0,-0.9323,-0.9051,-0.8156,-0.6031,-0.6536,-0.6313,-0.4193,-0.4804,-0.5454,-0.5547,-0.5811,-0.6057,-0.6226,-0.6254,-0.6324,-0.6385,-0.6385,-0.6628,-0.7235,-0.7296,-0.7967,-0.931,-0.9623,-1.0361,-1.1398,-1.1651,-1.1776,-1.1776,-1.1776,-1.1776,-1.1837,-1.1893,-1.1893,-1.1837,-1.1957,-1.2367,-1.2904,-1.302,-1.3734,-1.4629,-1.4748,-1.5116,-1.5601,-1.5601,-1.5601,-1.5601,-1.5601,-1.5601,0.0,0.0,0.0,0.0,0.0,0.0,0.0,0.0,0.0,0.0,0.0,0.0,0.0,0.0,0.0,0.0,0.0,0.0,0.0,-1.2832,-1.2808,-1.2795,-1.2832,-1.2804,-1.2783,-1.2783,-1.275,-1.277,-1.277,-1.277,-1.277,-1.277,-1.277,-1.277,-1.277,-1.277,-1.277,-1.277,-1.1967,-1.1497,-1.1497,-1.0638,-1.011,-0.9908,-0.9042,0.0,-0.8243,-0.725,-0.6786,-0.6786,-0.6587,-0.652,-0.652,-0.652,-0.652,-0.652,-0.652,-0.652,-0.652,-0.652,-0.652,-0.652,0.0,0.0,0.0,0.0,0.0,0.0,-0.9434,-0.8598,-0.7374,-0.5639,-0.5363,-0.4697,-0.2912,-0.3246,-0.3617,-0.3766,-0.4389,-0.4777,-0.4913,-0.4916,-0.4916,-0.4916,-0.4916,-0.5284,-0.6139,-0.632,-0.6808,-0.7601,-0.7911,-0.8587,-0.9623,-0.9751,-0.9997,-1.0304,-1.0796,-1.1039,-1.1103,-1.1591,-1.1776,-1.1776,-1.1776,-1.1953,-1.2307,-1.2603,-1.308,-1.3734,-1.4391,-1.4813,-1.5175,-1.5477,-1.5601,-1.5601,-1.5601,-1.5601,-1.5601,0.0,0.0,0.0,0.0,0.0,0.0,0.0,0.0,0.0,0.0,0.0,0.0,0.0,0.0,-1.2902,-1.3293,0.0,-1.277,-1.277,-1.277,-1.277,-1.277,-1.277,-1.277,-1.277,-1.277,-1.277,-1.277,-1.277,-1.277,-1.277,-1.277,-1.277,-1.277,-1.2301,-1.2033,-1.2033,-1.0969,-1.0373,-1.0373,-0.9842,-0.931,-0.8776,-0.8243,-0.7712,-0.725,-0.6719,-0.652,-0.652,-0.652,-0.652,-0.652,-0.652,-0.652,-0.652,-0.652,-0.652,-0.652,-0.652,-0.652,-0.652,0.0,0.0,0.0,0.0,0.0,0.0,-0.9596,-0.8208,-0.676,-0.5641,-0.436,-0.3135,-0.1907,-0.1795,-0.1819,-0.1881,-0.289,-0.3487,-0.3507,-0.3509,-0.3509,-0.3509,-0.3509,-0.406,-0.5102,-0.5529,-0.5833,-0.6139,-0.6569,-0.7184,-0.798,-0.8041,-0.8346,-0.8839,-0.9633,-1.0001,-1.0058,-1.0857,-1.1224,-1.1224,-1.1224,-1.1224,-1.1285,-1.1997,-1.2419,-1.284,-1.3854,-1.4391,-1.4689,-1.5235,-1.5477,-1.5601,-1.5601,-1.5601,-1.5601,-1.5601,-1.5537,0.0,0.0,0.0,0.0,0.0,0.0,0.0,0.0,-1.3737,-1.3583,-1.3436,-1.3101,-1.277,-1.277,-1.277,-1.277,-1.277,-1.277,-1.277,-1.277,-1.277,-1.277,-1.277,-1.277,-1.277,-1.277,-1.277,-1.277,-1.277,-1.277,-1.2704,-1.2503,-1.1699,-1.1097,-1.0902,-0.9842,-0.931,-0.931,-0.9114,-0.8579,-0.7712,-0.7712,-0.7316,-0.652,-0.652,-0.652,-0.652,-0.652,-0.652,-0.652,-0.652,-0.652,-0.652,-0.652,-0.652,-0.652,-0.652,-0.652,-0.652,0.0,0.0,0.0,0.0,0.0,0.0,0.0,0.0,-0.7091,-0.5922,-0.4472,-0.3135,-0.1907,-0.1795,-0.1819,-0.1881,-0.201,-0.2158,-0.2218,-0.2223,-0.2223,-0.2223,-0.2223,-0.2284,-0.2407,-0.3083,-0.3943,-0.5047,-0.6025,-0.7126,-0.8355,-0.8596,-0.8714,-0.8775,-0.8897,-0.8961,-0.8961,-0.9083,-0.9143,-0.9143,-0.9143,-0.9143,-0.9265,-1.0179,-1.1454,-1.2719,-1.284,-1.3614,-1.4629,-1.4689,-1.5116,-1.5601,-1.5601,-1.5601,-1.5601,-1.5601,-1.5175,-1.4689,-1.4629,-1.3794,-1.2904,-1.2866,-1.2534,-1.2246,0.0,-1.2526,-1.2718,-1.2697,-1.2775,-1.277,-1.277,-1.277,-1.277,-1.277,-1.277,-1.277,-1.277,-1.277,-1.277,-1.277,-1.277,-1.277,-1.277,-1.277,-1.277,-1.277,-1.277,-1.2367,-1.1431,-1.1296,-1.0767,-0.9775,-0.8709,-0.8176,-0.8176,-0.7316,-0.6786,-0.6654,-0.6654,-0.6587,-0.652,-0.652,-0.652,-0.652,-0.652,-0.652,-0.652,-0.652,-0.652,-0.652,-0.652,-0.652,-0.652,-0.652,-0.652,-0.652,0.0,0.0,0.0,0.0,0.0,0.0,0.0,0.0,-0.7476,-0.6478,-0.5198,-0.3973,-0.297,-0.2828,-0.286,-0.29,-0.2929,-0.2973,-0.3039,-0.3043,-0.3055,-0.3082,-0.3083,-0.3083,-0.3083,-0.3391,-0.376,-0.4312,-0.474,-0.5414,-0.6394,-0.6453,-0.6761,-0.7136,-0.7742,-0.7983,-0.8044,-0.8593,-0.8775,-0.8775,-0.8775,-0.8775,-0.8836,-0.9265,-0.9872,-1.0657,-1.2174,-1.302,0.0,-1.4331,-1.4808,-1.511,-1.5477,-1.5353,-1.4992,-1.4992,-1.4575,-1.3978,-1.3614,-1.2844,-1.2216,-1.2256,-1.2155,-1.2056,-1.2166,-1.2385,-1.2628,-1.2628,-1.271,-1.277,-1.277,-1.277,-1.277,-1.277,-1.277,-1.277,-1.277,-1.277,-1.277,-1.277,-1.277,-1.277,-1.277,-1.277,-1.277,-1.277,-1.2235,-1.1699,-1.123,-1.0035,-0.9105,-0.8709,-0.7648,-0.7116,-0.7116,-0.6719,-0.652,-0.652,-0.652,-0.652,-0.652,-0.652,-0.652,-0.652,-0.652,-0.652,-0.652,-0.652,-0.652,-0.652,-0.652,-0.652,-0.652,-0.652,-0.652,-0.652,0.0,0.0,0.0,0.0,0.0,0.0,0.0,0.0,0.0,0.0,-0.6084,-0.4752,-0.3698,-0.3627,-0.3602,-0.3618,-0.366,-0.371,-0.3766,-0.3785,-0.3812,-0.3856,-0.3873,-0.3883,-0.3883,-0.4066,-0.4189,-0.4189,-0.4375,-0.4682,-0.5174,-0.5174,-0.5421,-0.5916,-0.6646,-0.7008,-0.7011,-0.7742,-0.7986,-0.7986,-0.7986,-0.7986,-0.8047,-0.8291,-0.841,-0.8714,-1.1144,-1.2174,-1.247,-1.3366,-1.3784,-1.4083,-1.4748,-1.451,-1.4023,-1.4451,-1.4038,-1.3264,-1.2603,-1.213,-1.1805,-1.1926,-1.1959,-1.2008,-1.219,-1.2365,-1.2507,-1.2616,-1.271,-1.277,-1.277,-1.277,-1.277,-1.277,-1.277,-1.277,-1.277,-1.277,-1.277,-1.277,-1.277,-1.277,-1.277,-1.277,-1.2704,-1.2367,-1.1633,-1.0965,-1.0366,-0.8839,-0.7846,-0.7579,-0.6851,-0.6508,-0.6417,-0.6508,-0.6508,-0.6417,-0.651,-0.652,-0.652,-0.652,-0.652,-0.652,-0.652,-0.652,-0.652,-0.652,-0.652,-0.652,-0.652,-0.652,-0.652,-0.652,-0.652,-0.652,0.0,0.0,0.0,0.0,0.0,0.0,0.0,0.0,0.0,0.0,0.0,-0.5192,-0.3754,-0.3589,-0.3613,-0.3616,-0.3621,-0.3648,-0.3708,-0.3763,-0.3793,-0.3796,-0.3851,-0.3883,-0.3883,-0.4558,-0.4863,-0.4863,-0.5544,-0.5855,-0.5855,-0.5855,-0.5855,-0.5916,-0.5916,-0.5916,-0.5916,-0.5978,-0.5978,-0.5978,-0.5978,-0.5978,-0.6099,-0.7072,-0.7434,-0.7678,-0.969,-1.0781,-1.1374,-1.1374,-1.1792,-1.2397,-1.3062,-1.2817,-1.2577,-1.4147,-1.3734,-1.2603,-1.2014,-1.1837,-1.178,-1.1784,-1.1784,-1.1829,-1.2,-1.2182,-1.2361,-1.2527,-1.271,-1.277,-1.277,-1.277,-1.277,-1.277,-1.277,-1.277,-1.277,-1.277,-1.277,-1.277,-1.277,-1.277,-1.277,-1.277,-1.2367,-1.1296,-1.123,-1.03,-0.8176,-0.8043,-0.7581,-0.6587,-0.652,-0.6411,-0.6323,-0.6411,-0.6411,-0.6323,-0.6413,-0.652,-0.652,-0.652,-0.652,-0.652,-0.652,-0.652,-0.652,-0.652,-0.652,-0.652,-0.652,-0.652,-0.652,-0.652,-0.652,-0.652,0.0,0.0,0.0,0.0,0.0,0.0,0.0,0.0,0.0,0.0,0.0,0.0,0.0,0.0,0.0,0.0,-0.5083,-0.5004,-0.4915,-0.4942,-0.4922,-0.4975,-0.5004,-0.5043,-0.5157,-0.5399,-0.5549,-0.5546,-0.5794,-0.5916,-0.5916,-0.5916,-0.5916,-0.5916,-0.5916,-0.5916,-0.5916,-0.5916,-0.5916,-0.5916,-0.616,-0.6099,-0.5978,-0.6526,-0.6585,-0.6587,0.0,-0.8894,-0.9684,-1.0165,-1.0468,-1.0706,-1.1422,-1.1125,-1.0649,-1.0706,-1.1386,-1.1889,-1.1039,-1.1285,-1.1776,-1.1776,-1.1776,-1.1821,-1.1991,-1.2174,-1.2357,-1.2592,-1.271,-1.277,-1.277,-1.277,-1.277,-1.277,-1.277,-1.277,-1.277,-1.277,-1.277,-1.277,-1.277,-1.277,-1.277,-1.277,-1.2371,-1.1299,-1.0568,-0.9507,-0.811,-0.7383,-0.6823,-0.6364,-0.6364,-0.6319,-0.6227,-0.6257,-0.6288,-0.6319,-0.6411,-0.652,-0.652,-0.652,-0.652,-0.652,-0.652,-0.652,-0.652,-0.652,-0.652,-0.652,-0.652,-0.652,-0.652,-0.652,-0.5848,-0.5033,0.0,0.0,0.0,0.0,0.0,0.0,0.0,0.0,0.0,0.0,0.0,0.0,0.0,0.0,0.0,0.0,0.0,-0.6512,-0.6412,-0.6057,-0.582,-0.5882,-0.5918,-0.5966,-0.6028,-0.603,-0.6,-0.5941,-0.6096,-0.6111,-0.605,-0.6084,-0.6099,-0.6101,-0.5978,-0.5978,-0.6099,-0.6099,-0.6099,-0.6099,-0.6344,-0.6221,-0.5916,-0.616,-0.6099,0.0,-0.6646,-0.7255,-0.7864,-0.865,-0.8952,-0.9073,-0.9727,-0.9855,-0.9684,-0.9019,-0.9694,-1.0611,-0.9937,-1.049,-1.1285,-1.1285,-1.153,-1.1805,-1.1914,-1.2081,-1.2259,-1.2434,-1.2617,-1.2759,-1.2758,-1.277,-1.277,-1.277,-1.277,-1.277,-1.277,-1.277,-1.277,-1.277,-1.277,-1.277,-1.277,-1.277,-1.2169,-1.077,-0.9975,-0.8978,-0.7514,-0.6818,-0.6378,-0.6319,-0.6286,-0.6225,-0.6135,-0.6166,-0.6227,-0.6317,-0.6111,-0.6087,-0.6118,-0.5848,-0.5713,-0.5713,-0.5713,-0.5713,-0.5713,-0.5984,-0.6118,-0.6118,-0.6386,-0.6183,-0.5713,-0.5713,-0.4434,-0.2883,0.0,0.0,0.0,0.0,0.0,0.0,0.0,0.0,0.0,0.0,0.0,0.0,0.0,0.0,0.0,0.0,0.0,0.0,-0.8085,-0.7086,-0.6469,-0.6469,-0.651,-0.6509,-0.6513,-0.6513,-0.6343,-0.6118,-0.6506,-0.655,-0.631,-0.6404,-0.6388,-0.6388,-0.609,-0.6092,-0.6396,-0.6401,-0.6403,-0.6403,-0.6403,-0.6221,-0.5916,-0.5916,-0.5916,-0.5916,-0.5916,-0.5916,-0.6039,-0.7011,-0.7314,-0.7434,-0.7978,-0.8888,-0.9562,-0.8836,-0.8714,-0.8775,-0.8714,-0.9447,-1.0243,-1.0304,-1.1039,-1.1716,-1.1776,-1.1906,-1.2081,-1.2268,-1.2442,-1.2621,-1.2804,-1.277,-1.277,-1.277,-1.277,-1.277,-1.277,-1.277,-1.277,-1.277,-1.277,-1.277,-1.277,-1.277,-1.1905,-0.9775,-0.9579,-0.8712,-0.6648,-0.643,-0.6313,-0.6302,-0.6219,-0.6133,-0.5984,-0.6067,-0.6152,-0.6237,-0.552,-0.5235,-0.5307,-0.4634,-0.4297,-0.43,-0.43,-0.43,-0.4368,-0.4975,-0.5245,-0.5312,-0.5982,-0.5376,-0.4166,-0.4166,-0.235,-0.0335,0.0,0.0,0.0,0.0,0.0,0.0,0.0,0.0,0.0,0.0,0.0,0.0,0.0,0.0,0.0,0.0,0.0,0.0,-0.9343,-0.8227,-0.7583,-0.7583,-0.6781,-0.6386,-0.6403,-0.6405,-0.6443,-0.6406,-0.649,-0.6502,-0.6443,-0.6471,-0.6482,-0.6485,-0.6506,-0.654,-0.6603,-0.6743,-0.6775,-0.6775,-0.6775,-0.6591,-0.6283,-0.6283,-0.6099,-0.5916,-0.5916,-0.5916,-0.5916,-0.6221,-0.628,-0.6283,-0.6462,-0.7192,-0.7861,-0.6891,-0.7683,-0.8653,-0.7922,-0.8471,-0.9387,-1.0119,-1.0486,-1.0857,-1.1651,-1.1906,-1.2081,-1.2268,-1.2442,-1.2621,-1.2804,-1.277,-1.277,-1.277,-1.277,-1.277,-1.277,-1.277,-1.277,-1.277,-1.277,-1.277,-1.277,-1.277,-1.1905,-0.9775,-0.9579,-0.9007,-0.7605,-0.6723,-0.6257,-0.6061,-0.6035,-0.598,-0.5953,-0.5535,-0.5394,-0.5416,-0.477,-0.4506,-0.4571,-0.4371,-0.4327,-0.43,-0.43,-0.43,-0.4233,-0.3627,-0.3358,-0.3357,-0.2684,-0.2214,-0.1946,-0.1946,-0.08,0.0594,0.0,0.0,0.0,0.0,0.0,0.0,0.0,0.0,0.0,0.0,0.0,0.0,0.0,0.0,0.0,0.0,0.0,0.0,0.0,-0.9947,-0.9295,-0.9185,-0.8195,-0.7569,-0.7474,-0.7027,-0.6721,-0.6615,-0.6777,-0.6802,-0.6688,-0.6679,-0.6701,-0.6703,-0.6643,-0.6755,-0.6923,-0.6984,-0.7038,0.0,0.0,-0.6898,-0.6589,-0.6589,-0.653,-0.6348,-0.6348,-0.6348,-0.6348,-0.6348,-0.6223,-0.6099,-0.6099,-0.6403,-0.6646,-0.6039,-0.6648,-0.7439,-0.6888,-0.7436,-0.8349,-0.8897,-0.9694,-1.0429,-1.1039,-1.1541,-1.1991,-1.2255,-1.2385,-1.2532,-1.2787,-1.277,-1.277,-1.277,-1.277,-1.277,-1.277,-1.277,-1.277,-1.277,-1.277,-1.277,-1.277,-1.2638,-1.1839,-0.9968,-0.9651,-0.8736,-0.6841,-0.611,-0.5704,-0.5613,-0.5574,-0.5468,-0.5483,-0.5156,-0.4881,-0.4663,-0.4006,-0.3732,-0.3784,-0.3459,-0.3354,-0.3332,-0.3332,-0.3343,-0.3295,-0.2554,-0.2216,-0.2149,-0.1409,-0.0671,-0.0134,-0.02,0.0729,0.1904,0.0,0.0,0.0,0.0,0.0,0.0,0.0,0.0,0.0,0.0,0.0,0.0,0.0,0.0,0.0,0.0,0.0,0.0,0.0,0.0,-1.1269,-1.1055,-1.0112,-0.9508,-0.9247,-0.8257,-0.7485,-0.7043,-0.7373,-0.7312,-0.6922,-0.7022,-0.7011,-0.7011,-0.673,-0.6845,-0.7231,-0.7262,-0.7334,-0.7426,-0.7441,-0.7204,-0.6962,0.0,-0.69,-0.69,-0.69,-0.69,-0.69,-0.6962,-0.6712,-0.6403,-0.6403,-0.616,-0.5916,-0.5916,-0.5916,-0.5916,-0.5916,-0.6523,-0.7253,-0.7373,-0.8775,-1.0122,-1.0243,-1.1103,-1.1878,-1.2231,-1.2308,-1.2414,-1.2771,-1.277,-1.277,-1.277,-1.277,-1.277,-1.277,-1.277,-1.277,-1.277,-1.277,-1.2704,-1.2704,-1.2239,-1.1358,-1.0003,-0.9353,-0.7982,-0.5642,-0.5245,-0.5098,-0.5088,-0.4899,-0.474,-0.474,-0.4681,-0.4404,-0.396,-0.3208,-0.2915,-0.2955,-0.2378,-0.2074,-0.2104,-0.1971,-0.1986,-0.2143,-0.134,-0.1139,-0.1206,-0.0602,0.0402,0.1472,0.1451,0.2164,0.3201,0.0,0.0,0.0,0.0,0.0,0.0,0.0,0.0,0.0,0.0,-1.6982,-1.5315,0.0,0.0,0.0,0.0,0.0,0.0,0.0,0.0,0.0,-1.2852,-1.1746,-1.1084,-1.1034,-1.066,-0.9896,-0.8848,-0.8719,-0.8131,-0.7131,-0.7153,-0.7164,-0.7166,-0.7152,-0.7205,-0.7297,-0.7496,-0.7652,-0.7621,-0.7472,-0.7385,-0.7263,-0.7023,0.0,0.0,-0.69,-0.69,-0.6962,-0.7204,-0.6896,-0.6403,-0.6403,-0.616,-0.5916,-0.5916,-0.5916,-0.5916,-0.5916,-0.6039,-0.6342,-0.7192,-0.8227,-0.9265,-1.0122,-1.1103,-1.1878,-1.2231,-1.2308,-1.2414,-1.2771,-1.277,-1.277,-1.277,-1.277,-1.277,-1.277,-1.277,-1.277,-1.277,-1.2572,-1.2375,-1.2375,-1.0965,-0.9588,-0.8497,-0.7145,-0.6385,-0.6458,-0.5593,-0.5074,-0.4947,-0.4379,-0.4066,-0.4066,-0.3576,-0.3273,-0.3158,-0.2479,-0.2186,-0.2216,-0.209,-0.2043,-0.2072,-0.123,-0.1361,-0.1886,0.0789,0.1387,0.0793,0.2577,0.3437,0.3629,0.3576,0.3659,0.381,0.0,0.0,0.0,0.0,0.0,0.0,0.0,-2.2097,-2.1481,-2.0963,-1.9102,-1.7503,-1.667,-1.6399,-1.6033,0.0,0.0,0.0,0.0,0.0,0.0,-1.4164,-1.3215,-1.2556,-1.2457,-1.1697,-1.1034,-1.0429,0.0,-0.9947,-0.9449,-0.8858,-0.853,-0.8537,-0.7777,-0.7505,-0.757,-0.7519,-0.7584,-0.7706,-0.7582,-0.7577,-0.7627,-0.7508,0.0,0.0,-0.7447,-0.7447,-0.7447,-0.7385,-0.7202,-0.6893,-0.6712,-0.6405,-0.6099,-0.5978,-0.5916,-0.5916,-0.5916,-0.5916,-0.6039,-0.6526,-0.7375,-0.8349,-0.9326,-1.0304,-1.126,-1.2105,-1.2308,-1.2414,-1.2771,-1.277,-1.277,-1.277,-1.277,-1.277,-1.277,-1.277,-1.277,-1.2572,-1.2375,-1.2243,-1.2045,-1.0369,-0.8783,-0.7553,-0.5896,-0.4873,-0.4841,-0.4334,-0.3974,-0.3884,-0.3883,-0.376,-0.3453,-0.3145,-0.2838,-0.2469,-0.2161,-0.1984,-0.1996,-0.1996,-0.2012,-0.204,-0.153,-0.1344,-0.1161,0.0909,0.1823,0.1954,0.3517,0.4169,0.4162,0.4101,0.3997,0.3971,0.0,0.0,0.0,0.0,0.0,0.0,0.0,-2.295,-2.2401,-2.2477,-2.1702,-2.0618,-1.9268,-1.8457,-1.7496,0.0,0.0,0.0,0.0,0.0,0.0,0.0,0.0,0.0,-1.3884,0.0,0.0,-1.1955,-1.1905,0.0,0.0,0.0,0.0,0.0,-0.8972,-0.8375,-0.8198,-0.8001,-0.7847,0.0,0.0,-0.7875,-0.7958,0.0,0.0,0.0,0.0,-0.7872,-0.775,-0.7569,-0.7385,-0.7266,-0.6962,-0.6653,-0.6342,-0.5978,-0.5916,-0.5916,-0.5916,-0.5916,-0.5916,-0.5916,-0.6646,-0.7617,-0.8593,-0.9572,-1.0702,-1.2043,-1.2308,-1.2414,-1.2771,-1.277,-1.277,-1.277,-1.277,-1.277,-1.277,-1.277,-1.2704,-1.2309,-1.2243,-1.1909,-1.131,-0.9612,-0.7888,-0.641,-0.47,-0.3557,-0.3079,-0.3043,-0.3023,-0.3023,-0.333,-0.3268,-0.2776,-0.2776,-0.2531,-0.1977,-0.1977,-0.1977,-0.1977,-0.1977,-0.1988,-0.2009,-0.1758,-0.139,-0.0767,0.0705,0.1668,0.2308,0.3593,0.4106,0.41,0.3975,0.3962,0.3971,0.0,0.0,0.0,0.0,0.0,0.0,0.0,-2.4568,-2.4645,-2.4999,-2.4984,-2.4393,-2.2992,-2.0974,-1.931,0.0,0.0,0.0,0.0,0.0,0.0,0.0,0.0,0.0,0.0,0.0,0.0,-1.348,-1.3226,0.0,0.0,0.0,0.0,0.0,0.0,-1.0558,-0.9607,-0.9689,0.0,0.0,0.0,0.0,0.0,0.0,0.0,0.0,0.0,-0.7689,-0.7508,-0.775,-0.7447,-0.6962,-0.69,-0.6653,-0.6342,-0.5978,-0.5916,-0.5916,-0.5916,-0.5916,-0.5916,-0.5916,-0.6646,-0.7617,-0.8593,-0.9572,-1.0702,-1.2043,-1.2308,-1.2414,-1.2771,-1.277,-1.277,-1.277,-1.277,-1.277,-1.277,-1.277,-1.2704,-1.2309,-1.2045,-1.1174,-0.9501,-0.7683,-0.6019,-0.4582,-0.3083,-0.2416,-0.2967,-0.3025,-0.3023,-0.3023,-0.2469,-0.2161,-0.2099,-0.2099,-0.2038,-0.1977,-0.1977,-0.1977,-0.1977,-0.1977,-0.1978,-0.1918,-0.1051,-0.1114,-0.1676,0.1257,0.1959,0.139,0.3284,0.3979,0.3973,0.3918,0.3928,0.3971,0.0,0.0,0.0,0.0,0.0,0.0,-2.6275,-2.5577,-2.5197,-2.5405,-2.5424,-2.5206,-2.4613,-2.3791,-2.2297,-1.9926,0.0,0.0,0.0,0.0,0.0,0.0,0.0,0.0,0.0,0.0,-1.5512,-1.5013,-1.4911,0.0,0.0,0.0,0.0,0.0,0.0,-1.1538,-1.1109,-1.0953,0.0,0.0,0.0,0.0,0.0,0.0,0.0,0.0,0.0,0.0,-0.7689,-0.763,-0.7447,-0.7143,-0.6712,-0.6528,-0.6342,-0.5978,-0.5916,-0.5916,-0.5916,-0.5916,-0.5916,-0.5916,-0.6221,-0.6888,-0.8474,-0.9083,-0.9961,-1.1913,-1.2308,-1.2414,-1.2771,-1.277,-1.277,-1.277,-1.277,-1.277,-1.277,-1.2638,-1.2375,-1.2045,-1.0906,-0.9839,-0.8906,-0.6606,-0.4553,-0.3034,-0.2385,-0.2099,-0.2407,-0.2407,-0.2407,-0.2407,-0.2161,-0.1977,-0.1977,-0.1977,-0.1977,-0.1977,-0.1977,-0.1977,-0.1977,-0.1977,-0.1977,-0.1977,-0.1605,-0.1296,-0.0925,0.0869,0.1742,0.2053,0.3423,0.3922,0.3919,0.3897,0.3924,0.3977,0.0,0.0,0.0,0.0,0.0,-2.8757,-2.7803,-2.6737,-2.6096,-2.6209,-2.5931,-2.5729,-2.5729,-2.5729,-2.4791,-2.24,-2.0961,0.0,0.0,0.0,0.0,0.0,0.0,0.0,0.0,0.0,-1.5945,-1.5998,-1.5945,-1.5891,0.0,0.0,-1.4708,-1.4648,0.0,0.0,0.0,0.0,0.0,0.0,0.0,0.0,0.0,0.0,0.0,0.0,0.0,0.0,0.0,0.0,0.0,-0.7324,-0.6712,-0.6467,-0.6342,-0.5978,-0.5916,-0.5916,-0.5916,-0.5916,-0.5916,-0.5916,-0.6101,-0.6768,-0.841,-0.9022,-0.9839,-1.185,-1.2308,-1.2414,-1.2771,-1.277,-1.277,-1.277,-1.277,-1.277,-1.277,-1.2572,-1.2309,-1.1846,-1.0641,-0.9371,-0.8102,-0.5328,-0.3221,-0.2119,-0.2005,-0.1977,-0.1977,-0.1977,-0.1977,-0.1977,-0.1977,-0.1977,-0.1977,-0.1977,-0.1977,-0.1977,-0.1977,-0.1977,-0.1977,-0.1667,-0.1729,-0.1977,-0.1667,-0.1296,-0.0863,0.0493,0.1418,0.2158,0.3394,0.3889,0.3891,0.3908,0.395,0.4071,0.0,0.0,0.0,0.0,0.0,0.0,-2.9349,-2.8304,-2.7744,-2.8101,-2.7241,-2.6582,-2.6582,-2.6582,-2.6408,-2.5977,-2.4149,0.0,0.0,0.0,0.0,0.0,0.0,0.0,0.0,0.0,-1.6051,-1.6324,-1.6051,-1.5891,-1.5891,-1.5891,-1.5891,-1.5891,0.0,0.0,0.0,0.0,0.0,0.0,0.0,0.0,-1.1491,0.0,0.0,0.0,0.0,0.0,0.0,0.0,0.0,0.0,0.0,-0.6653,-0.6342,-0.5978,-0.5916,-0.5916,-0.5916,-0.5916,-0.5916,-0.5916,-0.6646,-0.7617,-0.8593,-0.9572,-1.0641,-1.2043,-1.2308,-1.2414,-1.2771,-1.277,-1.277,-1.277,-1.277,-1.277,-1.277,-1.277,-1.2572,-1.1912,-1.178,-1.0373,-0.6767,-0.3797,-0.2116,-0.2021,-0.1992,-0.1977,-0.1977,-0.1977,-0.1977,-0.1977,-0.1977,-0.1977,-0.1977,-0.1977,-0.1977,-0.1977,-0.1977,-0.1977,-0.1977,-0.0987,-0.1048,-0.1915,-0.0925,-0.1048,-0.1853,0.0185,0.0986,0.1233,0.3146,0.3889,0.3896,0.395,0.4072,0.4134,0.0,0.0,0.0,0.0,0.0,0.0,0.0,-2.8755,-2.7767,-2.7187,-2.6791,-2.6591,-2.6591,-2.6591,-2.6536,-2.6399,-2.4907,0.0,0.0,0.0,0.0,0.0,0.0,0.0,0.0,0.0,-1.6995,-1.6324,-1.6051,-1.5891,-1.5891,-1.5891,-1.5891,-1.5891,-1.5891,-1.5672,0.0,0.0,0.0,0.0,0.0,-1.2642,-1.1671,0.0,0.0,0.0,0.0,0.0,0.0,0.0,0.0,0.0,0.0,0.0,0.0,-0.6283,-0.5916,-0.5916,-0.5916,-0.5916,-0.5916,-0.5916,-0.616,-0.683,-0.841,-0.9158,-1.0029,-1.1941,-1.2402,-1.2556,-1.2791,-1.277,-1.277,-1.277,-1.277,-1.277,-1.277,-1.1563,-1.0498,-1.03,-0.8169,-0.5835,-0.3763,-0.2646,-0.2082,-0.2052,-0.2022,-0.1996,-0.1977,-0.1977,-0.1977,-0.1977,-0.1977,-0.1977,-0.1977,-0.1977,-0.1977,-0.1977,-0.1977,-0.1977,-0.1977,-0.0987,-0.0678,-0.0987,-0.0616,-0.0678,-0.0925,-0.0308,0.037,0.1109,0.2405,0.3352,0.3947,0.3966,0.41,0.4191,0.0,0.0,0.0,0.0,0.0,0.0,0.0,-2.9545,-2.8445,-2.7359,-2.6845,-2.6591,-2.6591,-2.6591,-2.6591,-2.6591,-2.5738,0.0,0.0,0.0,0.0,0.0,0.0,0.0,-1.9005,-1.8342,-1.7674,-1.7113,-1.6318,-1.5945,-1.6051,-1.5945,-1.5891,-1.5891,-1.5891,-1.5891,0.0,0.0,0.0,0.0,-1.453,-1.3988,-1.3122,0.0,0.0,0.0,0.0,0.0,0.0,0.0,0.0,0.0,0.0,0.0,0.0,0.0,-0.7194,-0.6832,-0.6101,-0.5916,-0.5916,-0.5916,-0.6464,-0.7319,-0.8535,-0.95,-1.0582,-1.2016,-1.2442,-1.2621,-1.2804,-1.277,-1.277,-1.277,-1.277,-1.2568,-1.1897,-1.0694,-0.9495,-0.8695,-0.6034,-0.3966,-0.3095,-0.2459,-0.2101,-0.2082,-0.2052,-0.2023,-0.1994,-0.1992,-0.1988,-0.1977,-0.1977,-0.1977,-0.1977,-0.1977,-0.1977,-0.1977,-0.1977,-0.1791,-0.1419,-0.037,0.0062,0.0062,0.0493,0.0185,0.0,-0.0062,0.0431,0.1109,0.2097,0.3111,0.3974,0.3997,0.4132,0.4219,0.0,0.0,0.0,0.0,0.0,0.0,0.0,-3.0598,-2.945,-2.8232,-2.7196,-2.6591,-2.6591,-2.6591,-2.6591,-2.6591,0.0,0.0,0.0,0.0,0.0,0.0,0.0,0.0,-2.0181,-1.8871,-1.8199,-1.837,-1.6736,-1.6051,-1.6271,-1.5998,-1.5891,-1.5891,-1.5891,-1.5891,0.0,0.0,0.0,0.0,-1.5705,-1.5654,0.0,0.0,0.0,0.0,0.0,0.0,0.0,0.0,0.0,0.0,0.0,0.0,0.0,0.0,0.0,0.0,0.0,-0.6039,-0.6039,-0.6101,-0.7378,-0.8656,-0.8787,-1.0313,0.0,-1.2158,-1.2335,-1.2568,-1.2738,-1.2704,-1.2634,-1.2634,-1.2503,-1.1831,-1.0227,-0.9893,-0.9027,-0.6896,-0.5166,-0.4166,-0.4166,-0.2925,-0.2112,-0.2109,-0.2083,-0.2054,-0.2023,-0.2022,-0.2009,-0.1984,-0.1981,-0.1979,-0.1977,-0.1977,-0.1977,-0.1977,-0.1977,-0.1481,-0.0555,0.0493,0.0986,0.1048,0.2035,0.1418,-0.0247,0.0555,0.0924,0.111,0.2037,0.2992,0.3921,0.4045,0.417,0.4232,0.0,0.0,0.0,0.0,0.0,0.0,0.0,0.0,0.0,0.0,-2.6745,-2.6591,-2.6591,-2.6591,-2.6591,0.0,0.0,0.0,0.0,0.0,0.0,0.0,0.0,0.0,-2.2105,-2.0377,-1.9065,-1.8094,-1.6624,-1.5945,-1.5998,-1.5945,-1.5891,-1.5891,-1.5891,-1.5891,0.0,0.0,0.0,0.0,-1.5943,-1.5856,0.0,0.0,0.0,0.0,-1.4813,-1.4689,0.0,0.0,0.0,0.0,0.0,0.0,0.0,0.0,-0.9319,-0.8714,-0.823,0.0,-0.7192,-0.7925,-0.7317,-0.6974,0.0,-0.8848,-0.9233,-1.0984,-1.1402,-1.1786,-1.2626,-1.1699,-1.0826,-1.0826,-0.9624,-0.8623,-0.8222,-0.6962,-0.5366,-0.3562,-0.2959,-0.2691,-0.2691,-0.2349,-0.2134,-0.2111,-0.2103,-0.2085,-0.2054,-0.2053,-0.205,-0.2107,-0.2021,-0.1998,-0.1977,-0.1977,-0.1977,-0.1977,-0.1977,-0.1853,-0.1605,0.0185,0.0986,0.1048,0.2035,0.222,0.1665,0.037,0.0308,0.1049,0.1311,0.2025,0.3018,0.3846,0.4234,0.4288,0.0,0.0,0.0,0.0,0.0,0.0,0.0,0.0,0.0,0.0,0.0,0.0,0.0,0.0,0.0,0.0,0.0,0.0,0.0,0.0,0.0,0.0,0.0,-2.4573,-2.3315,-2.1203,-1.9673,-1.8708,-1.6829,-1.5945,-1.6105,-1.5945,-1.5891,-1.5891,-1.5891,-1.5904,0.0,0.0,0.0,-1.5687,-1.5879,0.0,0.0,0.0,0.0,0.0,-1.5601,-1.5601,0.0,-1.5601,-1.5601,-1.5477,0.0,0.0,0.0,0.0,-1.0902,-1.0183,-1.0183,-0.9143,-0.8166,-0.8653,-0.7986,-0.7531,-0.87,-0.8706,-0.8773,-1.0,-1.034,-1.0568,-1.0836,-1.0101,-0.9383,-0.9035,-0.8125,-0.7358,-0.6829,-0.4964,-0.3361,-0.2759,-0.2356,-0.2222,-0.2222,-0.2222,-0.2215,-0.2131,-0.213,-0.2117,-0.2086,-0.2085,-0.2078,-0.2128,-0.2048,-0.2025,-0.1996,-0.1983,-0.1977,-0.1977,-0.1977,-0.1729,-0.1296,-0.0185,0.0801,0.1726,0.2281,0.2529,0.2405,0.1295,0.0924,0.105,0.1567,0.2099,0.271,0.38,0.4255,0.4308,0.0,0.0,0.0,0.0,0.0,0.0,0.0,0.0,0.0,0.0,0.0,0.0,0.0,0.0,0.0,0.0,0.0,0.0,0.0,0.0,0.0,0.0,-2.5684,-2.5075,-2.4205,-2.1546,-2.0024,-1.965,-1.7107,-1.5998,-1.6217,-1.5998,-1.591,-1.5946,-1.5898,-1.588,0.0,0.0,-1.5772,-1.5704,-1.5743,0.0,0.0,0.0,0.0,0.0,0.0,0.0,0.0,-1.5601,-1.5601,-1.5601,-1.5601,0.0,0.0,0.0,0.0,0.0,-1.1776,-1.055,-0.9204,-0.9079,-0.8671,-0.8415,-0.8729,-0.8799,-0.8863,-0.9119,-0.93,-0.9175,-0.8706,-0.8374,-0.7932,-0.7206,-0.6879,-0.6362,-0.5434,-0.3496,-0.2423,-0.296,-0.2558,-0.2222,-0.2222,-0.2222,-0.2222,-0.2222,-0.2222,-0.2144,-0.2118,-0.2116,-0.2104,-0.2143,-0.2074,-0.2059,-0.2033,-0.2004,-0.199,-0.199,-0.1986,-0.1548,-0.0742,-0.0555,0.0493,0.2281,0.2405,0.259,0.2714,0.2529,0.1914,0.1115,0.2202,0.2489,0.2525,0.3746,0.4263,0.4308,0.0,0.0,0.0,0.0,0.0,0.0,0.0,0.0,0.0,0.0,0.0,0.0,0.0,0.0,0.0,0.0,0.0,0.0,0.0,0.0,0.0,-2.6091,-2.5721,-2.5326,-2.4943,-2.1847,-2.0083,-1.9782,-1.7151,-1.5945,-1.5945,-1.5945,-1.6006,-1.6223,-1.5951,-1.5934,-1.6136,-1.6074,-1.5919,-1.5715,-1.5937,0.0,0.0,0.0,0.0,0.0,0.0,0.0,0.0,-1.5601,-1.5601,-1.5601,-1.5601,0.0,0.0,0.0,0.0,0.0,-1.1776,-1.1591,-1.1163,-1.0304,-0.8251,-0.6679,-0.76,-0.726,-0.704,-0.7995,-0.823,-0.831,-0.8573,-0.7372,-0.604,-0.5314,-0.3968,-0.2959,-0.2759,-0.2423,-0.2222,-0.2357,-0.2289,-0.2222,-0.2222,-0.2222,-0.2222,-0.2222,-0.2222,-0.222,-0.2215,-0.2215,-0.2213,-0.2208,-0.2116,-0.21,-0.2095,-0.2065,-0.2114,-0.2114,-0.2024,-0.1949,-0.1759,-0.0868,0.0123,0.1295,0.2158,0.2961,0.3642,0.2837,0.1863,0.1007,0.217,0.2074,0.1578,0.3537,0.43,0.4308,0.0,0.0,0.0,0.0,0.0,0.0,0.0,0.0,0.0,0.0,0.0,0.0,0.0,0.0,0.0,0.0,0.0,0.0,0.0,0.0,-2.6017,-2.5898,-2.551,-2.4872,-2.3942,-2.1674,-2.0019,-1.9047,-1.719,-1.6326,-1.6326,-1.6326,-1.6392,-1.6507,-1.6168,-1.6036,-1.6115,-1.5942,-1.5776,-1.5675,0.0,0.0,0.0,0.0,0.0,0.0,0.0,0.0,0.0,0.0,-1.5601,-1.5601,-1.5601,0.0,0.0,0.0,0.0,0.0,-1.1776,-1.1405,-1.0732,-0.9754,-0.8573,-0.7639,-0.7625,-0.6638,-0.6012,-0.6962,-0.6577,-0.6038,-0.6239,-0.5302,-0.4231,-0.3495,-0.2708,-0.2309,-0.2695,-0.2423,-0.2357,-0.2691,-0.2423,-0.2222,-0.2222,-0.2222,-0.2222,-0.2222,-0.2222,-0.2222,-0.2222,-0.2222,-0.2222,-0.2222,-0.2141,-0.2133,-0.2133,-0.2186,-0.2161,-0.2128,-0.205,-0.2043,-0.2043,-0.1584,-0.0503,0.0998,0.1436,0.2486,0.3889,0.3455,0.2676,0.1895,0.237,0.2339,0.2177,0.3749,0.4308,0.4308,0.0,0.0,0.0,0.0,0.0,0.0,0.0,0.0,0.0,0.0,0.0,0.0,0.0,0.0,0.0,0.0,0.0,0.0,0.0,-2.5962,-2.5789,-2.5569,-2.5293,-2.4586,-2.3459,-2.1637,-2.0149,-1.8926,-1.744,-1.67,-1.67,-1.67,-1.673,-1.6791,-1.6384,-1.6183,-1.6194,-1.5845,-1.5664,-1.5601,0.0,0.0,0.0,0.0,0.0,0.0,0.0,0.0,0.0,0.0,0.0,0.0,0.0,0.0,0.0,-1.3509,-1.2672,-1.1776,-1.1776,-1.1224,-1.0375,-0.9123,-0.8741,-0.8363,-0.7245,-0.6068,-0.5376,-0.5902,-0.5108,-0.4233,-0.41,-0.343,-0.2826,-0.2289,-0.2174,-0.2385,-0.2898,-0.249,-0.2423,-0.2893,-0.249,-0.2222,-0.2222,-0.2222,-0.2222,-0.2222,-0.2222,-0.2222,-0.2222,-0.2222,-0.2222,-0.2222,-0.2222,-0.2222,-0.2222,-0.2222,-0.2198,-0.215,-0.2078,-0.2074,-0.2074,-0.1808,-0.0769,0.0951,0.1204,0.233,0.3928,0.3915,0.3386,0.2615,0.2826,0.2931,0.3181,0.4021,0.4308,0.4308,0.0,0.0,0.0,0.0,0.0,0.0,0.0,0.0,0.0,0.0,0.0,0.0,0.0,0.0,0.0,0.0,0.0,0.0,0.0,-2.556,-2.5284,-2.5229,-2.497,-2.4898,-2.5012,-2.2268,-2.071,-2.0507,-1.797,-1.67,-1.67,-1.67,-1.6833,-1.7062,-1.6425,-1.6216,-1.645,-1.5865,-1.5585,-1.5601,-1.5601,0.0,0.0,0.0,0.0,0.0,0.0,0.0,0.0,0.0,0.0,0.0,0.0,0.0,-1.3569,-1.296,-1.2307,-1.1776,-1.1776,-1.1776,-1.1263,-0.9432,-0.8311,-0.7255,-0.5663,-0.5332,-0.5238,-0.457,-0.4368,-0.41,-0.343,-0.2759,-0.2289,-0.2222,-0.2224,-0.2225,-0.2289,-0.2222,-0.2222,-0.2289,-0.2222,-0.2222,-0.2222,-0.2222,-0.2222,-0.2222,-0.2222,-0.2222,-0.2222,-0.2222,-0.2222,-0.2222,-0.2222,-0.2222,-0.2222,-0.2222,-0.222,-0.2215,-0.2119,-0.2106,-0.2039,-0.0973,0.0,0.103,0.2059,0.3086,0.4109,0.3989,0.3455,0.2688,0.3626,0.4067,0.4167,0.4238,0.4308,0.4308,0.0,0.0,0.0,0.0,0.0,0.0,0.0,0.0,0.0,0.0,0.0,0.0,0.0,0.0,0.0,0.0,0.0,0.0,0.0,-2.5331,-2.5119,-2.497,-2.4868,-2.4868,-2.497,-2.3127,-2.1421,-1.9832,-1.786,-1.6906,-1.6906,-1.6906,-1.6838,-1.6693,-1.6453,-1.6334,-1.6194,-1.5779,-1.5601,-1.5601,-1.5601,-1.5601,0.0,0.0,0.0,0.0,0.0,0.0,0.0,0.0,-1.4406,-1.4346,-1.4102,-1.3624,-1.302,-1.2779,-1.2247,-1.1776,-1.1776,-1.1345,-1.059,-0.932,-0.8007,-0.664,-0.5472,-0.4906,-0.4638,-0.4368,-0.3631,-0.2893,-0.2625,-0.2356,-0.2222,-0.2222,-0.2222,-0.2222,-0.2222,-0.2222,-0.2222,-0.2222,-0.2222,-0.2222,-0.2222,-0.2222,-0.2222,-0.2222,-0.2222,-0.2222,-0.2222,-0.2222,-0.2222,-0.2222,-0.2222,-0.2222,-0.2222,-0.2222,-0.2222,-0.2222,-0.2143,-0.2138,-0.2137,-0.1727,-0.0593,0.1046,0.1437,0.2534,0.4124,0.4101,0.3882,0.3623,0.4034,0.3865,0.3363,0.4038,0.4308,0.4308,0.0,0.0,0.0,0.0,0.0,0.0,0.0,0.0,0.0,0.0,0.0,0.0,0.0,0.0,0.0,0.0,0.0,0.0,-2.5276,-2.5119,-2.497,-2.4821,-2.4821,-2.4821,-2.4821,-2.4008,-2.2346,-1.989,-1.8058,-1.7079,-1.7026,-1.7026,-1.6844,-1.6478,-1.6425,-1.6253,-1.6087,-1.572,-1.5601,-1.5601,-1.5601,-1.5601,0.0,0.0,0.0,0.0,0.0,0.0,0.0,0.0,-1.3688,-1.3688,-1.3444,-1.3084,-1.2659,-1.2483,-1.1885,-1.1345,-1.1345,-1.0647,-0.9613,-0.8509,-0.7424,-0.6241,-0.4887,-0.4273,-0.3899,-0.3698,-0.2893,-0.2222,-0.2222,-0.2222,-0.2222,-0.2222,-0.2222,-0.2222,-0.2222,-0.2222,-0.2222,-0.2222,-0.2222,-0.2222,-0.2222,-0.2222,-0.2222,-0.2222,-0.2222,-0.2222,-0.2222,-0.2222,-0.2222,-0.2222,-0.2222,-0.2222,-0.2222,-0.2222,-0.2222,-0.2222,-0.2222,-0.2222,-0.2155,-0.1818,-0.0669,0.1061,0.1393,0.2506,0.4181,0.4162,0.4179,0.4222,0.4283,0.3835,0.3228,0.3632,0.4038,0.4239,0.0,0.0,0.0,0.0,0.0,0.0,0.0,0.0,0.0,0.0,0.0,0.0,0.0,0.0,0.0,0.0,0.0,0.0,-2.5276,-2.497,-2.4821,-2.4821,-2.4821,-2.4821,-2.4821,-2.4765,-2.3552,-2.1123,-1.868,-1.7309,-1.6961,-1.6961,-1.6785,-1.6478,-1.62,-1.6087,-1.6087,-1.572,-1.5601,-1.5601,-1.5596,-1.5596,-1.5596,0.0,0.0,0.0,0.0,0.0,0.0,0.0,-1.3688,-1.3569,-1.29,-1.2659,-1.2539,-1.1953,-1.1042,-1.0304,-1.0308,-0.962,-0.8574,-0.6983,-0.6632,-0.607,-0.3752,-0.3228,-0.3027,-0.2357,-0.2222,-0.2222,-0.2222,-0.2222,-0.2222,-0.2222,-0.2222,-0.2222,-0.2222,-0.2222,-0.2222,-0.2222,-0.2222,-0.2221,-0.2221,-0.2221,-0.2221,-0.2221,-0.2221,-0.2222,-0.2222,-0.2222,-0.2222,-0.2222,-0.2222,-0.2222,-0.2222,-0.2222,-0.2222,-0.2222,-0.2222,-0.2222,-0.2155,-0.101,0.0067,0.1142,0.2218,0.3295,0.4303,0.4243,0.4217,0.4224,0.4283,0.4308,0.4172,0.3094,0.3363,0.4172,0.0,0.0,0.0,0.0,0.0,0.0,0.0,0.0,0.0,0.0,0.0,0.0,0.0,0.0,0.0,0.0,0.0,0.0,-2.497,-2.4812,-2.4821,-2.4821,-2.4821,-2.4821,-2.4821,-2.3087,-2.1764,-2.0795,-1.8098,-1.6661,-1.6377,-1.6377,-1.62,-1.5893,-1.6022,-1.5963,-1.572,-1.5661,-1.5601,-1.5537,-1.511,-1.4873,-1.4873,0.0,0.0,0.0,0.0,0.0,0.0,0.0,0.0,0.0,-1.2134,-1.1583,-1.097,-1.0793,-1.0001,-0.9287,-0.939,-0.8324,-0.7081,-0.6748,-0.5439,-0.4028,-0.3352,-0.3228,-0.3027,-0.2357,-0.2222,-0.2222,-0.2222,-0.2222,-0.2222,-0.2222,-0.2222,-0.2222,-0.2222,-0.2222,-0.2213,-0.2125,-0.2123,-0.2114,-0.2158,-0.2156,-0.2156,-0.2156,-0.211,-0.2123,-0.2123,-0.2143,-0.2222,-0.2222,-0.2222,-0.2222,-0.2222,-0.2222,-0.2222,-0.2222,-0.2222,-0.2222,-0.2222,-0.1818,-0.0673,0.1142,0.1411,0.2622,0.4307,0.4288,0.4281,0.4282,0.43,0.4308,0.4172,0.3094,0.3363,0.4172,0.0,0.0,0.0,0.0,0.0,0.0,0.0,0.0,0.0,0.0,-3.2757,-3.1964,0.0,0.0,0.0,0.0,0.0,0.0,0.0,-2.4821,-2.4821,-2.4821,-2.4821,-2.459,-2.4128,-2.2112,-2.0673,-1.9768,-1.7701,-1.649,-1.6087,-1.6087,-1.5903,-1.5601,-1.5785,-1.5779,-1.5601,-1.5601,-1.5601,-1.5537,-1.4873,-1.4629,-1.451,0.0,0.0,0.0,0.0,0.0,0.0,0.0,0.0,0.0,-1.0732,-1.0183,-0.9694,-0.9694,-0.8836,-0.7875,-0.7948,-0.6726,-0.542,-0.526,-0.4146,-0.3061,-0.2887,-0.2826,-0.2691,-0.2289,-0.2222,-0.2222,-0.2222,-0.2145,-0.2136,-0.2136,-0.2193,-0.2185,-0.2185,-0.2185,-0.2178,-0.2093,-0.2091,-0.2084,-0.213,-0.2128,-0.2128,-0.2128,-0.2081,-0.2091,-0.2091,-0.212,-0.2136,-0.2136,-0.2216,-0.2222,-0.2222,-0.2222,-0.2222,-0.2222,-0.2222,-0.1953,-0.1548,-0.1548,-0.0336,0.1747,0.2218,0.3094,0.4308,0.4308,0.4308,0.4308,0.4308,0.4308,0.4172,0.3094,0.3094,0.3565,0.0,0.0,0.0,0.0,0.0,0.0,0.0,0.0,0.0,0.0,-3.1812,-3.0774,0.0,0.0,0.0,0.0,0.0,0.0,0.0,-2.4821,-2.4821,-2.4821,-2.4821,-2.4248,-2.3038,-2.1707,-2.0214,-1.8389,-1.742,-1.6672,-1.6028,-1.6028,-1.5903,-1.5601,-1.5601,-1.5601,-1.5601,-1.5537,-1.5537,-1.5477,-1.4689,-1.4451,-1.4331,-1.3744,0.0,0.0,0.0,0.0,0.0,0.0,0.0,0.0,-0.9083,-0.8714,-0.8653,-0.8653,-0.7553,-0.6272,-0.628,-0.5164,-0.3869,-0.3166,-0.3034,-0.296,-0.2357,-0.2222,-0.2222,-0.2222,-0.222,-0.2218,-0.2218,-0.2125,-0.2105,-0.2105,-0.2082,-0.2128,-0.2128,-0.2128,-0.2127,-0.206,-0.206,-0.2123,-0.2121,-0.212,-0.212,-0.212,-0.2123,-0.206,-0.206,-0.2089,-0.2106,-0.2109,-0.2136,-0.2219,-0.2222,-0.2087,-0.2087,-0.2222,-0.2087,-0.1481,-0.0337,-0.0538,0.0538,0.2622,0.3701,0.4239,0.4308,0.4308,0.4308,0.4308,0.4308,0.4308,0.4172,0.3094,0.2757,0.2824,0.0,0.0,0.0,0.0,0.0,0.0,0.0,0.0,0.0,0.0,0.0,0.0,0.0,0.0,0.0,0.0,0.0,0.0,0.0,-2.4821,-2.4821,-2.4821,-2.4821,-2.4248,-2.3038,-2.1544,-1.9991,-1.8389,-1.7179,-1.6307,-1.572,-1.572,-1.5661,-1.5601,-1.5601,-1.5601,-1.5601,-1.5051,-1.4813,-1.4689,-1.3555,-1.3135,-1.302,-1.2432,-1.1643,0.0,0.0,0.0,0.0,0.0,0.0,0.0,-0.8897,-0.8288,-0.7678,-0.7678,-0.6517,-0.5246,-0.5372,-0.4385,-0.3298,-0.3203,-0.2791,-0.2356,-0.2222,-0.2222,-0.2222,-0.2222,-0.2136,-0.2119,-0.2119,-0.2094,-0.2074,-0.2074,-0.2068,-0.2128,-0.2128,-0.2128,-0.2055,-0.2031,-0.2028,-0.202,-0.1997,-0.1995,-0.1995,-0.1995,-0.2016,-0.2028,-0.2028,-0.2057,-0.2084,-0.2108,-0.2116,-0.2131,-0.2222,-0.1346,-0.1346,-0.2222,-0.1279,-0.0269,0.0672,-0.1009,-0.0605,0.1479,0.2555,0.3498,0.4308,0.4308,0.4308,0.4308,0.4308,0.4308,0.4172,0.3094,0.3228,0.3701,0.0,0.0,0.0,0.0,0.0,0.0,0.0,0.0,0.0,0.0,0.0,0.0,0.0,0.0,0.0,0.0,0.0,0.0,0.0,0.0,-2.4821,-2.4821,-2.4248,-2.332,-2.1941,-2.0508,-1.8958,-1.7297,-1.6602,-1.6076,-1.5601,-1.5601,-1.5601,-1.5601,-1.5601,-1.5601,-1.5537,-1.4873,-1.4629,-1.451,-1.32,-1.2719,-1.2599,-1.1518,-1.0736,-1.0243,-0.9754,0.0,0.0,0.0,0.0,0.0,0.0,0.0,-0.6716,-0.6703,-0.5664,-0.4499,-0.4567,-0.3672,-0.2616,-0.2719,-0.2477,-0.2222,-0.2222,-0.2144,-0.2133,-0.2133,-0.2121,-0.2105,-0.209,-0.2063,-0.2042,-0.2042,-0.2031,-0.2022,-0.2022,-0.2022,-0.2016,-0.2001,-0.1999,-0.1992,-0.1978,-0.1977,-0.1977,-0.1977,-0.199,-0.1999,-0.1999,-0.2026,-0.2056,-0.2086,-0.2101,-0.2124,-0.2222,-0.1616,-0.1616,-0.2222,-0.1616,-0.074,0.0336,0.074,0.1546,0.269,0.3228,0.3768,0.4308,0.4308,0.4308,0.4308,0.4308,0.4308,0.4239,0.3701,0.3498,0.3363,0.0,0.0,0.0,0.0,0.0,0.0,0.0,0.0,0.0,0.0,0.0,0.0,0.0,0.0,0.0,0.0,0.0,0.0,0.0,0.0,0.0,-2.4654,-2.3616,-2.224,-2.0573,-1.9472,-1.7981,-1.6087,-1.6022,-1.5844,-1.5601,-1.5601,-1.5601,-1.5601,-1.5601,-1.5537,-1.5353,-1.4694,-1.4391,-1.4152,-1.302,-1.2423,-1.2118,-1.0785,-1.0061,-0.9694,-0.8836,-0.8474,-0.8169,-0.7375,0.0,0.0,0.0,0.0,-0.5748,-0.5837,-0.4855,-0.386,-0.3917,-0.3063,-0.2116,-0.2214,-0.2222,-0.2221,-0.2215,-0.2127,-0.2106,-0.2095,-0.2093,-0.2086,-0.2061,-0.2031,-0.2011,-0.2011,-0.1992,-0.1977,-0.1977,-0.1977,-0.1977,-0.1977,-0.1977,-0.1977,-0.1977,-0.1977,-0.1915,-0.1729,-0.1914,-0.1914,-0.1729,-0.1935,-0.2027,-0.2127,-0.2089,-0.2119,-0.2222,-0.1818,-0.1818,-0.2222,-0.1818,-0.1144,-0.0135,0.2893,0.4172,0.4038,0.4038,0.4105,0.4308,0.4308,0.4308,0.4308,0.4308,0.4308,0.4308,0.4308,0.3768,0.2959,0.0,0.0,0.0,0.0,0.0,0.0,0.0,0.0,0.0,0.0,-2.8635,-2.7546,0.0,0.0,0.0,0.0,0.0,0.0,-2.4821,0.0,0.0,-2.4033,-2.3352,-2.2029,-1.9954,-1.9472,-1.8202,-1.6087,-1.5785,-1.5661,-1.5601,-1.5601,-1.5601,-1.5601,-1.5601,-1.5294,-1.4689,-1.4102,-1.3504,-1.29,-1.2191,-1.1402,-1.0607,-1.0365,-0.9265,-0.78,-0.7617,-0.7011,-0.6283,-0.616,-0.6099,0.0,0.0,0.0,-0.5065,-0.5142,-0.416,-0.3165,-0.3213,-0.2673,-0.2116,-0.2214,-0.2222,-0.2215,-0.2121,-0.2112,-0.2094,-0.2041,-0.2031,-0.2029,-0.2025,-0.2001,-0.1982,-0.1982,-0.1979,-0.1977,-0.1977,-0.1977,-0.1977,-0.1977,-0.1977,-0.1977,-0.1977,-0.1977,-0.1667,-0.074,-0.1481,-0.1605,-0.074,-0.1546,-0.2007,-0.2126,-0.2132,-0.2162,-0.2221,-0.0269,-0.0336,-0.2155,-0.0269,0.0739,0.0941,0.3228,0.3768,0.2891,0.2891,0.3431,0.4308,0.4308,0.4308,0.4308,0.4308,0.4308,0.4308,0.4308,0.4239,0.3969,0.0,0.0,0.0,0.0,0.0,0.0,0.0,0.0,0.0,0.0,0.0,-2.7384,0.0,0.0,0.0,-2.4821,-2.4821,-2.4821,-2.4821,-2.4256,-2.368,-2.3143,-2.19,-2.0408,-1.8777,-1.7923,-1.6938,-1.5844,-1.5661,-1.5601,-1.5601,-1.5601,-1.5418,-1.5051,-1.5051,-1.4694,-1.4043,-1.3384,-1.2964,-1.2664,-1.2014,-1.1224,-1.0243,-0.9694,-0.8593,-0.7312,-0.6768,-0.6033,-0.5358,-0.5358,-0.5112,-0.4807,-0.4807,0.0,0.0,0.0,-0.3831,-0.3019,-0.2694,-0.239,-0.2138,-0.2218,-0.2222,-0.2213,-0.2116,-0.2096,-0.2071,-0.2027,-0.2006,-0.1995,-0.1995,-0.155,-0.1358,-0.1914,-0.1543,-0.1358,-0.1914,-0.1543,-0.1358,-0.1915,-0.1481,-0.1358,-0.1915,-0.1977,-0.1791,-0.1358,-0.1234,-0.0987,-0.0493,-0.0925,-0.0934,-0.0445,-0.0899,-0.1237,-0.133,-0.0268,-0.0269,-0.1212,0.0336,0.1411,0.2017,0.3565,0.4038,0.3565,0.3565,0.3835,0.4308,0.4308,0.4308,0.4308,0.4308,0.4308,0.4308,0.4308,0.4308,0.4172,0.0,0.0,0.0,0.0,0.0,0.0,0.0,0.0,0.0,0.0,0.0,0.0,0.0,0.0,0.0,0.0,-2.4821,-2.471,-2.4599,-2.4033,-2.3279,-2.2451,-2.0752,-1.9261,-1.8021,-1.6885,-1.6076,-1.5601,-1.5601,-1.5601,-1.5601,-1.5601,-1.5175,-1.4391,-1.451,-1.4157,-1.3389,-1.2904,-1.2603,-1.2423,-1.1708,-1.0732,-0.9569,-0.8593,-0.7492,-0.6394,-0.5667,-0.5053,-0.4619,-0.4619,-0.4312,-0.3883,-0.3883,-0.3821,0.0,0.0,0.0,-0.2359,-0.1875,-0.1548,-0.1413,-0.1683,-0.1746,-0.1801,-0.2039,-0.2074,-0.2044,-0.2014,-0.1991,-0.1977,-0.1977,-0.1358,-0.1048,-0.1543,-0.0987,-0.0678,-0.1173,-0.0617,-0.037,-0.1173,-0.0555,-0.0432,-0.1173,-0.1234,-0.1111,-0.0864,-0.0617,-0.037,-0.0123,-0.0617,-0.0559,0.0126,-0.0512,-0.0909,-0.0988,-0.0936,-0.0808,-0.0471,0.0605,0.1546,0.2353,0.3701,0.4308,0.4308,0.4308,0.4308,0.4308,0.4308,0.4308,0.4308,0.4308,0.4308,0.4308,0.4308,0.4308,0.4172,0.0,0.0,0.0,0.0,0.0,0.0,0.0,0.0,0.0,0.0,0.0,0.0,-2.6254,-2.5348,-2.4821,-2.4821,-2.4821,-2.4543,-2.3968,-2.3352,-2.2788,-2.2165,-2.0615,0.0,-1.8389,-1.7461,-1.6532,-1.5601,-1.5601,-1.5601,-1.5601,-1.5601,-1.4942,-1.3748,-1.4336,-1.3913,-1.2719,-1.2719,-1.2367,-1.1776,-1.0793,-0.9447,-0.7919,-0.6879,-0.5536,-0.4066,-0.4006,-0.4004,-0.3943,-0.3943,-0.3944,-0.3883,-0.3883,-0.3513,-0.3041,0.0,0.0,0.0,-0.0606,0.0134,0.0672,-0.0336,-0.06,-0.0854,-0.1879,-0.2043,-0.2013,-0.1984,-0.1977,-0.1977,-0.1977,-0.1977,-0.1605,-0.074,-0.0555,-0.0185,0.074,0.0863,0.0924,0.0863,0.0863,0.0924,0.0863,0.0863,0.1233,0.222,0.0555,-0.0062,0.0863,-0.0864,-0.1927,-0.1828,-0.1984,-0.2013,-0.2043,-0.2072,-0.1548,-0.0471,0.0605,0.1142,0.1277,0.3363,0.4308,0.4308,0.4308,0.4308,0.4308,0.4308,0.4308,0.4308,0.4308,0.4308,0.4308,0.4308,0.4308,0.4308,0.0,0.0,0.0,0.0,0.0,0.0,0.0,0.0,0.0,0.0,0.0,0.0,0.0,-2.4953,-2.42,-2.42,-2.3857,-2.3576,-2.3352,-2.2732,-2.1809,-2.035,-1.9377,-1.8163,-1.6649,-1.6295,-1.5946,-1.5601,-1.5601,-1.5601,-1.5601,-1.5601,-1.4942,-1.3688,-1.3923,-1.3324,-1.213,-1.213,-1.1643,-1.0796,-0.9997,-0.859,-0.6881,-0.6086,-0.4984,-0.3883,-0.3883,-0.3637,-0.333,-0.333,-0.3022,-0.2654,-0.2654,-0.2531,-0.2236,-0.1534,-0.0921,-0.0337,0.0336,0.0807,0.1008,0.0605,0.0466,0.0394,0.0,-0.0127,-0.0126,-0.0062,-0.0062,-0.0062,-0.0062,-0.0617,-0.111,-0.1419,-0.037,0.037,0.0062,0.1171,0.1726,0.1048,0.1541,0.1726,0.1048,0.0986,0.0863,0.0616,0.0493,0.0308,0.0062,-0.0617,-0.0742,-0.0124,-0.07,-0.1044,-0.1069,-0.1813,-0.1616,-0.0471,0.0605,0.1479,0.2151,0.3632,0.4308,0.4308,0.4308,0.4308,0.4308,0.4308,0.4308,0.4308,0.4308,0.4308,0.4308,0.4308,0.4308,0.4308,0.0,0.0,0.0,0.0,0.0,0.0,0.0,0.0,0.0,-2.7877,0.0,0.0,0.0,0.0,-2.3576,-2.3576,-2.3239,-2.2901,-2.2732,-2.2335,-2.1296,-1.9543,-1.879,-1.7695,-1.6124,-1.5774,-1.5601,-1.5601,-1.5601,-1.5601,-1.5601,-1.5601,-1.4942,-1.3688,-1.3688,-1.2973,-1.1776,-1.1776,-1.1409,-1.0671,-0.9383,-0.8039,-0.6757,-0.5167,-0.4189,-0.3575,-0.333,-0.3023,-0.2654,-0.2654,-0.2346,-0.1977,-0.1977,-0.1983,-0.1812,-0.0704,-0.0197,0.0268,0.1343,0.1882,0.2084,0.1747,0.1591,0.1435,0.1098,0.0952,0.0936,0.0988,0.0986,0.0986,0.0986,0.0431,-0.0123,-0.0432,0.0617,0.1356,0.1048,0.2097,0.2714,0.2035,0.259,0.2714,0.2035,0.1973,0.1541,0.0555,0.0801,0.0555,-0.0431,-0.0802,-0.0681,-0.0063,-0.0638,-0.0981,-0.1076,-0.1818,-0.1818,-0.1077,0.0067,0.0941,0.1681,0.3094,0.3768,0.3768,0.4172,0.4308,0.4308,0.4308,0.4308,0.4308,0.4308,0.4308,0.4308,0.4308,0.4308,0.4308,0.0,0.0,0.0,0.0,0.0,0.0,0.0,0.0,-2.8038,-2.63,0.0,0.0,0.0,0.0,0.0,-2.2958,-2.2958,-2.2675,-2.2108,-2.2059,-2.1368,-1.9815,-1.8861,-1.7923,-1.6997,-1.6065,-1.5601,-1.5601,-1.5601,-1.5601,-1.5601,-1.5601,-1.4942,-1.3688,-1.3688,-1.2973,-1.1776,-1.1776,-1.1776,-1.153,-0.8958,-0.7856,-0.749,-0.4249,-0.2961,-0.29,-0.2223,-0.1977,-0.1977,-0.1977,-0.1977,-0.1977,-0.1977,-0.1996,-0.1771,-0.0706,0.0326,0.1322,0.0,0.0,0.0,0.3026,0.2698,0.2383,0.1354,0.1071,0.1109,0.1109,0.1109,0.1109,0.1109,0.1109,0.1418,0.2405,0.2529,0.2837,0.3703,0.3889,0.3889,0.3889,0.3889,0.3889,0.3889,0.3889,0.3517,0.259,0.1541,0.0555,-0.0431,-0.1481,-0.2003,-0.2126,-0.2128,-0.2159,-0.2221,-0.2222,-0.2222,-0.2155,-0.1077,-0.0471,-0.0404,0.1749,0.269,0.269,0.3835,0.4308,0.4239,0.4308,0.4308,0.4308,0.4308,0.4308,0.4308,0.4308,0.4308,0.4308,0.0,0.0,0.0,0.0,0.0,-2.9343,-2.9237,-2.7877,-2.6626,0.0,0.0,0.0,-2.3014,-2.2619,-2.2173,-2.1717,-2.1717,-2.1603,-2.1432,-2.0795,-1.9917,-1.8861,-1.787,-1.6938,-1.6005,-1.5715,-1.5601,-1.5601,-1.5601,-1.5601,-1.5601,-1.5601,-1.4942,-1.3688,-1.3688,-1.2973,-1.1776,-1.1776,-1.1409,-1.055,-0.865,-0.7184,-0.5841,-0.3758,-0.2716,-0.2223,-0.2038,-0.1977,-0.1977,-0.1977,-0.1977,-0.1977,-0.1977,-0.1996,-0.1771,-0.0706,0.0326,0.1322,0.2412,0.0,0.0,0.0,0.0,0.0,0.3287,0.3152,0.3085,0.3085,0.3085,0.3085,0.3085,0.3085,0.3208,0.3455,0.2961,0.259,0.2837,0.3455,0.3889,0.3889,0.3889,0.3889,0.3889,0.3889,0.3517,0.259,0.1541,0.0555,-0.0431,-0.1481,-0.2003,-0.2126,-0.2128,-0.2159,-0.2221,-0.2222,-0.2222,-0.2155,-0.1077,-0.0471,-0.0404,0.1749,0.2286,0.1613,0.3498,0.3835,0.3228,0.3969,0.4308,0.4308,0.4308,0.4308,0.4308,0.4308,0.4308,0.4308,0.0,0.0,0.0,0.0,-2.9079,-2.9079,-2.893,-2.734,-2.5972,0.0,0.0,0.0,-2.2279,-2.1945,-2.1603,-2.1211,-2.1211,-2.1211,-2.1211,-2.0335,-1.9397,-1.8448,-1.7519,-1.6532,-1.5596,-1.5601,-1.5601,-1.5601,-1.5601,-1.5601,-1.5596,-1.5294,-1.4639,-1.3688,-1.3389,-1.2728,-1.1776,-1.1776,-1.147,-1.0732,-0.8407,-0.7062,-0.6145,-0.3574,-0.2531,-0.2407,-0.2099,-0.1977,-0.1977,-0.1977,-0.1977,-0.1977,-0.1977,-0.1988,-0.1819,-0.07,0.0,0.0779,0.2238,0.3106,0.3701,0.41,0.0,0.0,0.4087,0.3954,0.3889,0.3889,0.3889,0.3889,0.3889,0.3889,0.3889,0.3889,0.3455,0.3085,0.3085,0.358,0.3889,0.3889,0.3889,0.3889,0.3889,0.3889,0.3517,0.259,0.1541,0.037,-0.1048,-0.1667,-0.2003,-0.2126,-0.2128,-0.2159,-0.2221,-0.2222,-0.2222,-0.2222,-0.1548,-0.1212,-0.1144,0.0605,0.1277,0.121,0.2891,0.3565,0.3431,0.4038,0.4308,0.4239,0.3835,0.3902,0.4239,0.3768,0.3902,0.4308,0.0,0.0,-2.9026,-2.9026,-2.891,-2.8708,-2.8504,-2.6907,-2.547,0.0,-2.3038,-2.1774,-2.1268,-2.1211,-2.1211,-2.1211,-2.1211,-2.1211,-2.1211,-2.022,-1.9281,-1.8448,-1.7402,-1.6473,-1.5596,-1.5601,-1.5601,-1.5601,-1.5601,-1.5537,-1.5477,-1.4873,-1.4217,-1.3569,-1.2964,-1.2367,-1.1776,-1.1776,-1.1716,-1.1349,-0.8282,-0.7307,-0.7368,-0.3574,-0.2408,-0.2838,-0.2223,-0.1977,-0.1977,-0.1977,-0.1977,-0.1977,-0.1977,-0.1977,-0.1796,-0.0879,-0.0504,0.0,0.1796,0.2448,0.2834,0.3738,0.3952,0.0,0.3971,0.3928,0.3889,0.3889,0.3889,0.3889,0.3889,0.3889,0.3889,0.3889,0.3889,0.3889,0.3889,0.3889,0.3889,0.3889,0.3889,0.3889,0.3889,0.3889,0.358,0.2714,0.1603,0.0123,-0.1915,-0.1977,-0.2003,-0.2126,-0.2128,-0.2159,-0.2221,-0.2222,-0.2222,-0.2222,-0.2222,-0.2222,-0.2155,-0.101,-0.0067,0.0807,0.2017,0.3026,0.3768,0.4038,0.4172,0.4172,0.3228,0.3431,0.4172,0.3228,0.3498,0.4308,0.0,-2.8451,-2.8451,-2.8451,-2.7672,-2.7015,-2.6971,-2.5029,-2.3536,-2.3359,-2.2207,-2.1325,-2.1211,-2.1211,-2.1211,-2.1211,-2.1211,-2.1211,-2.1211,-1.9622,-1.8571,-1.8389,-1.6762,-1.5774,-1.5601,-1.5601,-1.5601,-1.5601,-1.5601,-1.5299,-1.4808,-1.4689,-1.3973,-1.29,-1.2779,-1.2367,-1.1776,-1.1776,-1.1345,-1.0425,-0.8468,-0.7487,-0.6754,-0.3881,-0.2531,-0.2161,-0.2038,-0.1977,-0.1977,-0.1977,-0.1977,-0.1977,-0.1977,-0.1977,-0.1982,-0.1758,-0.1072,-0.0316,0.0064,0.1353,0.2641,0.2834,0.344,0.0,0.3971,0.3928,0.3889,0.3889,0.3889,0.3889,0.3889,0.3889,0.3889,0.3889,0.3889,0.3889,0.3889,0.3889,0.3889,0.3889,0.3889,0.3889,0.3889,0.3889,0.3826,0.3642,0.1973,0.0123,-0.1915,-0.1977,-0.2003,-0.2126,-0.2128,-0.2159,-0.2221,-0.2222,-0.2222,-0.2222,-0.2222,-0.2222,-0.2155,-0.101,-0.0875,-0.1413,0.0538,0.1009,0.0538,0.2286,0.3498,0.4308,0.4038,0.4105,0.4308,0.4038,0.4105,0.4308,-2.8291,-2.8291,-2.8121,-2.752,-2.6907,-2.63,-2.568,-2.4133,-2.2974,-2.2974,-2.193,-2.1211,-2.1211,-2.1211,-2.1211,-2.1211,-2.0744,-2.0515,-2.0515,-1.8745,-1.7695,-1.7695,-1.6354,-1.5601,-1.5601,-1.5294,-1.5116,-1.5116,-1.4818,-1.4461,-1.4157,-1.3794,-1.3071,-1.1985,-1.1631,-1.1337,-1.1039,-1.1039,-1.0736,-1.0122,-0.8163,-0.6877,-0.59,-0.3452,-0.2285,-0.1977,-0.1977,-0.1977,-0.1977,-0.1977,-0.1977,-0.1977,-0.1977,-0.1977,-0.1979,-0.1993,-0.1623,-0.1063,-0.0566,0.0315,0.1323,0.2269,0.2884,0.0,0.0,0.391,0.3889,0.3889,0.3889,0.3889,0.3889,0.3889,0.3889,0.3889,0.3889,0.3889,0.3889,0.3889,0.3889,0.3889,0.3889,0.3889,0.3889,0.3889,0.3703,0.3209,0.1356,-0.0185,-0.1172,-0.2051,-0.2397,-0.2127,-0.2467,-0.2503,-0.2222,-0.2222,-0.2222,-0.2222,-0.2222,-0.2222,-0.2155,-0.1616,-0.1346,-0.1279,-0.0202,0.0269,0.0404,0.1479,0.2218,0.2757,0.3295,0.3161,0.269,0.269,0.269,0.269,-2.8291,-2.8291,-2.7906,-2.669,-2.63,-2.5735,-2.4561,-2.3416,-2.2644,-2.2644,-2.1759,-2.1031,-2.0737,-2.068,-2.0558,-2.0321,-1.9622,-1.9216,-1.9339,-1.7753,-1.6879,-1.6997,-1.6124,-1.5537,-1.5418,-1.4873,-1.457,-1.4451,-1.3923,-1.3629,-1.3509,-1.296,-1.2109,-1.1076,-1.0418,-1.0061,-0.9997,-0.9876,-0.9815,-0.9572,-0.7426,-0.6206,-0.5351,-0.3083,-0.2223,-0.2161,-0.2038,-0.1977,-0.1977,-0.1977,-0.1977,-0.1977,-0.1977,-0.1977,-0.1977,-0.1977,-0.2099,-0.2037,-0.1171,-0.0924,-0.0493,0.1109,0.1787,0.2281,0.0,0.0,0.0,0.3889,0.3889,0.3889,0.3889,0.3889,0.3889,0.3889,0.3889,0.3889,0.3889,0.3889,0.3889,0.3889,0.3889,0.3889,0.3889,0.3899,0.3466,0.2282,0.0682,-0.0435,-0.0991,-0.2324,-0.2934,-0.2524,-0.2946,-0.2984,-0.2624,-0.2357,-0.2289,-0.2423,-0.2289,-0.2222,-0.2222,-0.2222,-0.1683,-0.0808,-0.0808,-0.0336,0.0471,0.0672,0.0672,0.0605,0.1882,0.2017,0.1411,0.1142,0.121,0.1411,-2.8291,-2.8291,-2.7906,-2.669,-2.5626,-2.4514,-2.3359,-2.2207,-2.1375,-2.1375,-2.1017,-2.0307,-1.919,-1.8848,-1.826,-1.7132,-1.6956,-1.7079,-1.7624,-1.6691,-1.6408,-1.6997,-1.6124,-1.5299,-1.4748,-1.4629,-1.4336,-1.3808,-1.3748,-1.3384,-1.2779,-1.2719,-1.1872,-1.0361,-0.9687,-0.9262,-0.8958,-0.8407,-0.798,-0.7617,-0.6147,-0.5839,-0.6025,-0.376,-0.29,-0.2838,-0.2223,-0.1977,-0.1977,-0.1977,-0.1977,-0.1977,-0.1977,-0.1977,-0.1977,-0.1977,-0.2408,-0.2838,-0.2775,-0.2527,-0.2216,-0.197,-0.08,0.0554,0.1539,0.0,0.29,0.3703,0.0,0.3889,0.3889,0.0,0.0,0.3889,0.3889,0.3889,0.3889,0.3889,0.3889,0.3889,0.3889,0.3889,0.3889,0.3934,0.319,0.1296,0.0948,-0.0255,-0.2645,-0.2998,-0.3365,-0.4008,-0.3487,-0.3446,-0.4031,-0.2826,-0.249,-0.3094,-0.249,-0.2222,-0.2222,-0.2222,-0.2155,-0.202,-0.202,-0.1953,-0.175,-0.074,-0.0942,-0.1615,0.0471,0.1815,0.242,0.1479,0.168,0.2353,-2.8014,-2.8291,-2.7682,-2.579,-2.5058,-2.4069,-2.2263,-2.1546,-2.1211,-2.1211,-2.1089,-2.0788,-2.0256,-1.9622,-1.8855,-1.7892,-1.685,-1.6149,-1.609,-1.5219,-1.4813,-1.5046,-1.4699,-1.4346,-1.4097,-1.3679,-1.338,-1.3144,-1.2788,-1.2126,-1.1329,-1.1329,-1.0358,-0.8596,-0.7919,-0.7736,-0.7922,-0.7309,-0.7187,-0.7312,-0.6392,-0.578,-0.5291,-0.3207,-0.2408,-0.2407,-0.2099,-0.1977,-0.1977,-0.1977,-0.2285,-0.2531,-0.2099,-0.2531,-0.3022,-0.2654,-0.3022,-0.3513,-0.3513,-0.3144,-0.2773,-0.2524,-0.1662,-0.0616,0.0431,0.1292,0.2156,0.2899,0.0,0.0,0.0,0.0,0.0,0.0,0.3889,0.3889,0.3889,0.3889,0.3889,0.3889,0.3918,0.3573,0.2528,0.2018,0.1324,0.0379,-0.0192,-0.0963,-0.2235,-0.3625,-0.4384,-0.4282,-0.3982,-0.3808,-0.363,-0.2691,-0.2357,-0.2625,-0.2357,-0.2222,-0.2222,-0.2222,-0.2222,-0.2222,-0.2222,-0.2222,-0.2155,-0.1683,-0.175,-0.2087,-0.1211,-0.0538,-0.0135,0.0067,0.0067,-0.0202,-2.6898,-2.7178,-2.6509,-2.4339,-2.4005,-2.3287,-2.1253,-2.1031,-2.1089,-2.1089,-2.1089,-2.0788,-2.0026,-1.921,-1.8267,-1.7014,-1.5623,-1.4743,-1.4436,-1.3794,-1.3509,-1.3688,-1.3688,-1.3629,-1.3444,-1.296,-1.2603,-1.2423,-1.2014,-1.1285,-1.0304,-1.0304,-0.9265,-0.7373,-0.6698,-0.6514,-0.67,-0.6025,-0.6025,-0.6394,-0.5718,-0.5047,-0.425,-0.2838,-0.2285,-0.2223,-0.2038,-0.1977,-0.1977,-0.1977,-0.247,-0.29,-0.2408,-0.3022,-0.3821,-0.3391,-0.3698,-0.4189,-0.4189,-0.4006,-0.3761,-0.351,-0.2956,-0.2155,-0.1169,-0.0246,0.0615,0.1355,0.2095,0.0,0.0,0.0,0.3331,0.3455,0.0,0.3889,0.3889,0.3889,0.3889,0.3889,0.3938,0.3486,0.2251,0.1343,0.0575,0.0193,-0.0714,-0.1561,-0.2397,-0.4072,-0.4901,-0.4638,-0.4615,-0.4234,-0.3496,-0.2826,-0.249,-0.249,-0.2289,-0.2222,-0.2222,-0.2222,-0.2222,-0.2222,-0.2222,-0.2222,-0.2222,-0.2222,-0.2222,-0.2222,-0.2222,-0.2222,-0.2087,-0.1279,-0.1279,-0.175,-2.445,-2.445,-2.3958,-2.2467,-2.2191,-2.1737,-2.05,-2.0551,-2.0723,-2.0723,-2.0723,-1.9659,-1.695,-1.6309,-1.5025,-1.2251,-1.1953,-1.2191,-1.2719,-1.2719,-1.3024,-1.3688,-1.3688,-1.3384,-1.2719,-1.2719,-1.2427,-1.1837,-1.1837,-1.1285,-1.0304,-1.0304,-0.9265,-0.7373,-0.6698,-0.5843,-0.4925,-0.425,-0.4004,-0.3943,-0.333,-0.3085,-0.3085,-0.3023,-0.2961,-0.29,-0.2223,-0.1977,-0.1977,-0.1977,-0.247,-0.3023,-0.2961,-0.3391,-0.3883,-0.3881,-0.4373,-0.4863,-0.4863,-0.5297,-0.5794,-0.5794,-0.5297,-0.4555,-0.3505,-0.283,-0.2093,-0.1107,-0.0861,-0.0615,0.0,0.0923,0.1785,0.0,0.3332,0.0,0.0,0.3889,0.3889,0.3889,0.3938,0.3995,0.3991,0.3131,0.2092,0.1032,0.0066,-0.1603,-0.4085,-0.4267,-0.4635,-0.531,-0.5379,-0.5042,-0.43,-0.3564,-0.3161,-0.3161,-0.249,-0.2222,-0.2222,-0.2222,-0.2222,-0.2222,-0.2222,-0.2222,-0.2222,-0.2222,-0.2222,-0.2222,-0.2222,-0.2222,-0.2222,-0.2155,-0.1481,-0.074,-2.138,-2.1323,-2.1502,-2.2013,-2.2078,-2.168,-2.05,-2.0385,-2.0148,-1.9261,-1.9203,-1.8493,-1.6715,-1.5843,-1.4847,-1.3421,-1.2775,-1.2307,-1.213,-1.207,-1.2195,-1.2436,-1.2436,-1.2311,-1.213,-1.207,-1.2014,-1.1776,-1.1103,-1.0304,-0.9265,-0.8653,-0.7681,-0.6403,-0.5722,-0.5232,-0.4863,-0.4189,-0.3883,-0.3883,-0.3698,-0.3575,-0.3575,-0.3575,-0.3575,-0.3575,-0.333,-0.3268,-0.3268,-0.3268,-0.3698,-0.419,-0.376,-0.4315,-0.5114,-0.4681,-0.5051,-0.5546,-0.5546,-0.5421,-0.536,-0.5794,-0.5421,-0.4802,-0.4493,-0.3753,-0.2953,-0.2154,-0.1477,-0.0923,-0.0677,0.0,0.0554,0.0,0.0,0.1973,0.0,0.2613,0.3269,0.3935,0.3124,0.2452,0.2444,0.1517,0.0264,-0.1324,-0.1337,-0.2147,-0.4206,-0.429,-0.4638,-0.5381,-0.4438,-0.4034,-0.43,-0.3161,-0.2558,-0.2558,-0.2289,-0.2222,-0.2222,-0.2222,-0.2222,-0.2222,-0.2222,-0.2222,-0.2222,-0.2222,-0.2222,-0.2222,-0.2222,-0.2222,-0.2222,-0.2222,-0.1953,-0.1683,-1.9873,-1.9815,-2.0097,-2.1002,-2.1117,-2.0895,-2.0104,-1.9686,-1.9145,-1.8325,-1.791,-1.7196,-1.5773,-1.5133,-1.4366,-1.3361,-1.2715,-1.2191,-1.1837,-1.1776,-1.1776,-1.1776,-1.1776,-1.1651,-1.1285,-1.1591,-1.1591,-1.1285,-1.0611,-0.9815,-0.8775,-0.7861,-0.6888,-0.5855,-0.5421,-0.4988,-0.4496,-0.4066,-0.3637,-0.3268,-0.3515,-0.3576,-0.3637,-0.4066,-0.425,-0.425,-0.4004,-0.3883,-0.3883,-0.3883,-0.4373,-0.4803,-0.4373,-0.4989,-0.5794,-0.536,-0.5546,-0.5916,-0.5916,-0.5607,-0.536,-0.5794,-0.5546,-0.5235,-0.5235,-0.4802,-0.4246,-0.3817,-0.32,-0.2646,-0.246,-0.1783,-0.1107,0.0,0.0,0.037,0.0,0.1763,0.2811,0.35,0.2986,0.2554,0.2546,0.1266,-0.0067,-0.1275,-0.1881,-0.2689,-0.3831,-0.4166,-0.4368,-0.464,-0.4237,-0.3834,-0.3564,-0.3162,-0.2691,-0.2222,-0.2222,-0.2222,-0.2222,-0.2222,-0.2222,-0.2222,-0.2222,-0.2222,-0.2222,-0.2222,-0.2222,-0.2222,-0.2222,-0.2222,-0.2222,-0.2222,-0.2222,-0.2222,-1.9815,-1.9758,-1.97,-1.9424,-1.9424,-1.9424,-1.9424,-1.8512,-1.7846,-1.7787,-1.6956,-1.5773,-1.4183,-1.4004,-1.3416,-1.1957,-1.1776,-1.1776,-1.1776,-1.1776,-1.1776,-1.1776,-1.1716,-1.1224,-1.0243,-1.1163,-1.1163,-1.0183,-1.0183,-0.9694,-0.8714,-0.7739,-0.6827,-0.5916,-0.5916,-0.5177,-0.3883,-0.3883,-0.3145,-0.2038,-0.2716,-0.3023,-0.3146,-0.4373,-0.4863,-0.4802,-0.4189,-0.4006,-0.4006,-0.4006,-0.4435,-0.4926,-0.4926,-0.536,-0.5916,-0.5916,-0.5916,-0.5916,-0.5916,-0.5916,-0.5916,-0.5916,-0.5916,-0.5916,-0.5916,-0.5916,-0.5916,-0.5916,-0.5916,-0.573,-0.5049,-0.4185,-0.3137,0.0,0.0,-0.0866,-0.0188,0.1403,0.2525,0.2497,0.3493,0.4178,0.4234,0.2286,0.1008,0.0941,-0.1613,-0.3228,-0.3228,-0.3831,-0.3899,-0.3228,-0.4505,-0.4305,-0.2289,-0.3564,-0.3497,-0.2222,-0.2222,-0.2222,-0.2222,-0.2222,-0.2222,-0.2222,-0.2222,-0.2222,-0.2222,-0.2222,-0.2222,-0.2222,-0.2222,-0.2222,-0.2222,-0.2222,-0.2222,-0.2222,-1.954,-1.9482,-1.9482,-1.9424,-1.9424,-1.9424,-1.9424,-1.8402,-1.7273,-1.6332,-1.5144,-1.3899,-1.2543,-1.2363,-1.2247,-1.1837,-1.1776,-1.1776,-1.1776,-1.1776,-1.1776,-1.1776,-1.0607,-0.9812,-0.9566,-0.914,-0.8775,-0.8529,-0.8288,-0.7983,-0.7739,-0.6768,-0.616,-0.5916,-0.5916,-0.5177,-0.3883,-0.3883,-0.3145,-0.2038,-0.2716,-0.3023,-0.3085,-0.3883,-0.4127,-0.425,-0.5114,-0.5362,-0.5362,-0.5362,-0.5485,-0.5669,-0.5669,-0.5732,-0.5916,-0.5916,-0.5916,-0.5916,-0.5916,-0.5916,-0.5916,-0.5916,-0.5916,-0.5916,-0.5916,-0.5916,-0.5916,-0.5916,-0.5916,-0.5855,-0.5669,-0.5049,-0.4432,-0.4064,-0.3142,-0.2168,-0.1256,0.0447,0.149,0.1447,0.3125,0.3954,0.316,0.1411,-0.0067,-0.0874,-0.2353,-0.3228,-0.3228,-0.2893,-0.2893,-0.3161,-0.3095,-0.3028,-0.296,-0.2826,-0.2558,-0.2222,-0.2222,-0.2222,-0.2222,-0.2222,-0.2222,-0.2222,-0.2222,-0.2222,-0.2222,-0.2222,-0.2222,-0.2222,-0.2222,-0.2222,-0.2222,-0.2222,-0.2222,-0.2222,-1.9424,-1.9424,-1.9424,-1.9424,-1.8946,-1.859,-1.859,-1.7461,-1.622,-1.4917,-1.3674,-1.2603,-1.1897,-1.1776,-1.1776,-1.1776,-1.1776,-1.1776,-1.1776,-1.1776,-1.147,-1.0732,-0.9812,-0.8769,-0.7612,-0.749,-0.7368,-0.7248,-0.7065,-0.7128,-0.7373,-0.6342,-0.5732,-0.5483,-0.5794,-0.5177,-0.3883,-0.3637,-0.3085,-0.247,-0.2531,-0.2592,0.0,-0.3268,-0.3513,-0.3637,-0.4684,-0.5237,-0.5483,-0.5483,-0.5669,-0.5916,-0.5916,-0.5916,-0.5916,-0.5916,-0.5916,-0.5916,-0.5916,-0.5916,-0.5916,-0.5916,-0.5916,-0.5916,-0.5916,-0.5916,-0.5916,-0.5916,-0.5916,-0.5916,-0.5916,-0.5607,-0.5358,-0.5358,-0.4277,-0.3379,-0.3108,-0.1288,-0.0065,-0.0133,0.1673,0.2488,0.1412,0.0538,-0.0336,-0.1076,-0.2689,-0.343,-0.2826,-0.2691,-0.2691,-0.2759,-0.2691,-0.2691,-0.2759,-0.2691,-0.249,-0.2222,-0.2222,-0.2222,-0.2222,-0.2222,-0.2222,-0.2222,-0.2222,-0.2222,-0.2222,-0.2222,-0.2222,-0.2222,-0.2222,-0.2222,-0.2222,-0.2222,-0.2222,-0.2222,-1.9424,-1.9424,-1.9366,-1.9185,-1.8233,-1.739,-1.7038,-1.6037,-1.4976,-1.3844,-1.2603,-1.1776,-1.1776,-1.1776,-1.1776,-1.1776,-1.1776,-1.1716,-1.1595,-1.153,-1.0793,-0.9198,-0.883,-0.7609,-0.5289,-0.6023,-0.6267,-0.5963,-0.6025,-0.6399,-0.6966,-0.6052,-0.532,-0.4832,-0.5393,-0.4955,-0.3771,-0.3155,-0.2843,-0.2838,-0.2223,-0.1977,-0.2038,-0.2654,-0.29,-0.2961,-0.3453,-0.4127,-0.4802,-0.4863,-0.5297,-0.5794,-0.5855,-0.5916,-0.5916,-0.5916,-0.5916,-0.5916,-0.5916,-0.5916,-0.5916,-0.5916,-0.5916,-0.5916,-0.5916,-0.5916,-0.5916,-0.5916,-0.5916,-0.5916,-0.5916,-0.5855,-0.5794,-0.5794,-0.4806,-0.4243,-0.4745,-0.2931,-0.1653,-0.1807,-0.0067,0.0,-0.074,-0.0471,-0.0336,-0.0673,-0.2823,-0.3564,-0.2289,-0.2759,-0.2826,-0.2222,-0.2759,-0.2759,-0.2222,-0.2759,-0.2759,-0.2222,-0.2222,-0.2222,-0.2222,-0.2222,-0.2222,-0.2222,-0.2222,-0.2222,-0.2222,-0.2222,-0.2222,-0.2222,-0.2222,-0.2222,-0.2222,-0.2222,-0.2222,-0.2222,-1.9424,-1.9424,-1.9068,-1.8046,-1.763,-1.6803,-1.4669,-1.4202,-1.3963,-1.3725,-1.2603,-1.1776,-1.1776,-1.1776,-1.1776,-1.1776,-1.1776,-1.147,-1.0611,-1.0058,-0.9259,-0.8163,-0.6265,-0.5042,-0.4614,-0.4003,-0.3637,-0.3575,-0.4066,-0.44,-0.458,-0.4395,-0.4297,-0.4157,-0.4286,-0.3877,-0.3142,-0.245,-0.2184,-0.2161,-0.2038,-0.1977,-0.2038,-0.2099,-0.2161,-0.2161,-0.2285,-0.3085,-0.4189,-0.4742,-0.4988,-0.5174,-0.573,-0.5916,-0.5916,-0.5916,-0.5916,-0.5916,-0.5916,-0.5916,-0.5916,-0.5916,-0.5916,-0.5916,-0.5916,-0.5916,-0.5916,-0.5916,-0.5916,-0.5916,-0.5916,-0.5421,-0.5049,-0.5049,-0.4555,-0.3914,-0.3418,-0.2331,-0.191,-0.284,-0.0534,0.0067,-0.2488,-0.1882,-0.1479,-0.1885,-0.2826,-0.3027,-0.2222,-0.2289,-0.2289,-0.2222,-0.2289,-0.2289,-0.2222,-0.2289,-0.2289,-0.2222,-0.2222,-0.2222,-0.2222,-0.2222,-0.2222,-0.2222,-0.2222,-0.2222,-0.2222,-0.2222,-0.2222,-0.2222,-0.2222,-0.2222,-0.2222,-0.2222,-0.2222,-0.2222,-1.9424,-1.8887,-1.8227,-1.763,-1.6391,-1.5144,-1.3904,-1.3135,-1.2724,-1.2724,-1.2191,-1.1776,-1.1776,-1.1776,-1.1776,-1.1776,-1.1345,-1.0796,-1.0304,-0.9201,-0.7978,-0.6634,-0.5165,-0.4002,-0.3144,-0.2715,-0.2654,-0.3023,-0.3294,-0.3632,-0.3973,-0.4003,-0.3842,-0.3547,-0.3483,-0.3469,-0.3445,-0.2872,-0.2532,-0.2498,-0.2123,-0.199,-0.1977,-0.1977,-0.1977,-0.1977,-0.1977,-0.2407,-0.3022,-0.3698,-0.4373,-0.4926,-0.5297,-0.5607,-0.5916,-0.5916,-0.5916,-0.5916,-0.5916,-0.5916,-0.5916,-0.5916,-0.5916,-0.5916,-0.5916,-0.5916,-0.5916,-0.5916,-0.5916,-0.5916,-0.5916,-0.5607,-0.5297,-0.4988,-0.4742,-0.4349,-0.3658,-0.291,-0.2632,-0.3161,-0.1666,-0.1143,-0.2557,-0.2221,-0.2019,-0.2155,-0.2826,-0.2893,-0.2222,-0.2222,-0.2222,-0.2222,-0.2222,-0.2222,-0.2222,-0.2222,-0.2222,-0.2222,-0.2222,-0.2222,-0.2222,-0.2222,-0.2222,-0.2222,-0.2222,-0.2222,-0.2222,-0.2222,-0.2222,-0.2222,-0.2222,-0.2222,-0.2222,-0.2222,-0.2222,-0.2222,-1.859,-1.776,-1.6979,-1.6744,-1.5025,-1.3605,-1.331,-1.2427,-1.1776,-1.1776,-1.1776,-1.1776,-1.1776,-1.1776,-1.1716,-1.153,-1.0736,-1.0058,-0.9508,-0.8163,-0.6634,-0.4983,-0.4247,-0.3267,-0.2038,-0.1977,-0.2285,-0.2776,-0.2756,-0.3028,-0.3595,-0.3596,-0.3374,-0.2931,-0.2866,-0.312,-0.3562,-0.3111,-0.2828,-0.279,-0.2219,-0.2011,-0.1986,-0.1986,-0.1981,-0.1977,-0.1977,-0.1977,-0.2099,-0.2592,-0.3637,-0.4742,-0.4863,-0.536,-0.5916,-0.5916,-0.5916,-0.5916,-0.5916,-0.5916,-0.5916,-0.5916,-0.5916,-0.5916,-0.5916,-0.5916,-0.5916,-0.5916,-0.5916,-0.5916,-0.5916,-0.5794,-0.5544,-0.4988,-0.4865,-0.4658,-0.3955,-0.3614,-0.3355,-0.3213,-0.273,-0.2423,-0.2423,-0.2289,-0.2222,-0.2222,-0.2691,-0.2759,-0.2222,-0.2222,-0.2222,-0.2222,-0.2222,-0.2222,-0.2222,-0.2222,-0.2222,-0.2222,-0.2222,-0.2222,-0.2222,-0.2222,-0.2222,-0.2222,-0.2222,-0.2222,-0.2222,-0.2222,-0.2222,-0.2222,-0.2222,-0.2222,-0.2222,-0.2222,-0.2222,-0.2222,-1.5989,-1.5865,-1.5391,-1.4257,-1.3844,-1.331,-1.213,-1.1897,-1.1776,-1.1776,-1.1776,-1.1776,-1.1776,-1.1776,-1.1409,-1.055,-1.0365,-0.9265,-0.6942,-0.6086,-0.4921,-0.3268,-0.2592,-0.2161,-0.1977,-0.1977,-0.2038,-0.2099,-0.2067,-0.2144,-0.2209,-0.2272,-0.2252,-0.2281,-0.2281,-0.2264,-0.2302,-0.2236,-0.2218,-0.2189,-0.2124,-0.2041,-0.2015,-0.2015,-0.1999,-0.1977,-0.1977,-0.1977,-0.2038,-0.2099,-0.2961,-0.4127,-0.4681,-0.536,-0.5916,-0.5916,-0.5916,-0.5916,-0.5916,-0.5916,-0.5916,-0.5916,-0.5916,-0.5916,-0.5916,-0.5916,-0.5916,-0.5916,-0.5916,-0.5916,-0.5916,-0.5421,-0.4988,-0.4926,-0.4493,-0.3954,-0.322,-0.3722,-0.3933,-0.3168,-0.3109,-0.3094,-0.3094,-0.2558,-0.2222,-0.2222,-0.2289,-0.2289,-0.2222,-0.2222,-0.2222,-0.2222,-0.2222,-0.2222,-0.2222,-0.2222,-0.2222,-0.2222,-0.2222,-0.2222,-0.2222,-0.2222,-0.2222,-0.2222,-0.2222,-0.2222,-0.2222,-0.2222,-0.2222,-0.2222,-0.2222,-0.2222,-0.2222,-0.2222,-0.2222,-0.2222,-1.5575,-1.4976,-1.4321,-1.3784,-1.3075,-1.2367,-1.1897,-1.1776,-1.1776,-1.1776,-1.1776,-1.1776,-1.1776,-1.1285,-1.0732,-1.0368,-0.9204,-0.8105,-0.7065,-0.5414,-0.4189,-0.3575,-0.2531,-0.1977,-0.1977,-0.1993,-0.2002,-0.2002,-0.205,-0.2073,-0.2074,-0.2116,-0.2143,-0.2222,-0.2222,-0.2215,-0.2136,-0.2136,-0.2119,-0.2091,-0.2091,-0.2073,-0.2046,-0.2046,-0.2027,-0.2002,-0.2002,-0.1991,-0.1977,-0.1977,-0.2838,-0.3944,-0.4189,-0.5053,-0.5916,-0.5916,-0.5916,-0.5916,-0.5916,-0.5916,-0.5916,-0.5916,-0.5916,-0.5916,-0.5916,-0.5916,-0.5916,-0.5916,-0.5916,-0.5916,-0.5916,-0.5669,-0.5237,-0.4435,-0.4149,-0.3601,-0.2532,-0.2736,-0.2855,-0.2516,-0.2579,-0.2625,-0.2625,-0.2356,-0.2222,-0.2222,-0.2222,-0.2222,-0.2222,-0.2222,-0.2222,-0.2222,-0.2222,-0.2222,-0.2222,-0.2222,-0.2222,-0.2222,-0.2222,-0.2222,-0.2222,-0.2222,-0.2222,-0.2222,-0.2222,-0.2222,-0.2222,-0.2222,-0.2222,-0.2222,-0.2222,-0.2222,-0.2222,-0.2222,-0.2222,-0.2356,-1.4505,-1.3729,-1.3135,-1.3135,-1.2427,-1.1776,-1.1776,-1.153,-1.1349,-1.1349,-1.1099,-1.1039,-1.1345,-1.049,-0.9754,-0.9447,-0.8166,-0.7189,-0.67,-0.4925,-0.3821,-0.3637,-0.2592,-0.198,-0.1989,-0.2008,-0.2023,-0.2032,-0.2084,-0.2105,-0.2097,-0.2127,-0.2213,-0.2222,-0.2222,-0.2222,-0.2222,-0.2222,-0.2142,-0.2123,-0.2123,-0.2104,-0.2077,-0.2077,-0.2059,-0.2031,-0.2022,-0.2005,-0.1988,-0.1979,-0.2715,-0.3637,-0.3821,-0.4682,-0.5669,-0.5855,-0.5916,-0.5916,-0.5916,-0.5916,-0.5916,-0.5916,-0.5916,-0.5916,-0.5916,-0.5916,-0.5916,-0.5916,-0.5916,-0.5916,-0.5916,-0.5916,-0.5546,-0.4373,-0.4006,-0.3513,-0.2469,-0.2343,-0.2321,-0.2128,-0.2316,-0.2423,-0.2222,-0.2222,-0.2222,-0.2222,-0.2222,-0.2222,-0.2222,-0.2222,-0.2222,-0.2222,-0.2222,-0.2222,-0.2222,-0.2222,-0.2222,-0.2222,-0.2222,-0.2222,-0.2222,-0.2222,-0.2222,-0.2222,-0.2222,-0.2222,-0.2222,-0.2222,-0.2222,-0.2222,-0.2222,-0.2222,-0.2222,-0.2222,-0.2491,-0.3027,-1.1837,-1.1837,-1.1837,-1.1837,-1.1837,-1.1776,-1.1776,-1.0978,-1.0304,-1.0304,-0.9447,-0.9204,-1.0183,-0.9447,-0.8471,-0.7495,-0.7434,-0.67,-0.5047,-0.4312,-0.3637,-0.3023,-0.2346,-0.199,-0.2018,-0.2018,-0.2033,-0.2128,-0.2094,-0.2094,-0.2129,-0.2095,-0.2126,-0.2222,-0.2222,-0.2222,-0.2222,-0.2222,-0.2222,-0.2221,-0.2221,-0.2136,-0.2108,-0.2108,-0.209,-0.2059,-0.2029,-0.2018,-0.2014,-0.1986,-0.2469,-0.3085,-0.3698,-0.4373,-0.5049,-0.573,-0.5916,-0.5916,-0.5916,-0.5916,-0.5916,-0.5916,-0.5916,-0.5916,-0.5916,-0.5916,-0.5916,-0.5916,-0.5916,-0.5916,-0.5916,-0.5916,-0.5669,-0.4988,-0.4312,-0.3698,-0.3085,-0.3037,-0.2836,-0.2192,-0.2711,-0.296,-0.2289,-0.2222,-0.2222,-0.2222,-0.2222,-0.2222,-0.2222,-0.2222,-0.2222,-0.2222,-0.2222,-0.2222,-0.2222,-0.2222,-0.2222,-0.2222,-0.2222,-0.2222,-0.2222,-0.2222,-0.2222,-0.2222,-0.2222,-0.2222,-0.2222,-0.2222,-0.2222,-0.2222,-0.2222,-0.2222,-0.2222,-0.2222,-0.3095,-0.43,-1.1776,-1.1776,-1.1776,-1.1776,-1.1776,-1.1776,-1.1776,-1.0978,-1.0304,-1.0304,-0.8839,-0.7983,-0.8288,-0.8044,-0.7739,-0.7434,-0.6768,-0.6158,-0.5607,-0.4498,-0.3821,-0.3637,-0.2554,-0.2009,-0.2018,-0.2059,-0.2085,-0.2095,-0.2125,-0.2135,-0.2192,-0.2136,-0.2212,-0.2222,-0.2222,-0.2222,-0.2222,-0.2222,-0.2222,-0.2222,-0.2222,-0.2216,-0.214,-0.214,-0.2121,-0.2093,-0.2084,-0.2067,-0.2045,-0.2015,-0.213,-0.2438,-0.3093,-0.4006,-0.5049,-0.573,-0.5916,-0.5916,-0.5916,-0.5916,-0.5916,-0.5916,-0.5916,-0.5916,-0.5916,-0.5916,-0.5916,-0.5916,-0.5916,-0.5916,-0.5916,-0.5916,-0.5546,-0.4373,-0.4067,-0.3513,-0.2469,-0.2406,-0.2321,-0.2128,-0.2316,-0.2423,-0.2222,-0.2222,-0.2222,-0.2222,-0.2222,-0.2222,-0.2222,-0.2222,-0.2222,-0.2222,-0.2222,-0.2222,-0.2222,-0.2222,-0.2222,-0.2222,-0.2222,-0.2222,-0.2222,-0.2222,-0.2222,-0.2222,-0.2222,-0.2222,-0.2222,-0.2222,-0.2222,-0.2222,-0.2222,-0.2222,-0.2356,-0.3563,-0.4231,-0.5033,-1.1975,-1.1975,-1.1955,-1.1886,-1.187,-1.1728,-1.1292,-1.0365,-0.963,-0.9265,-0.7803,-0.6827,-0.6827,-0.6827,-0.6827,-0.6827,-0.6283,-0.5916,-0.5916,-0.4867,-0.42,-0.3977,-0.2949,-0.2283,-0.2052,-0.209,-0.2115,-0.2126,-0.2212,-0.2222,-0.2222,-0.2222,-0.2222,-0.2222,-0.2222,-0.2222,-0.2222,-0.2222,-0.2222,-0.2222,-0.2222,-0.2222,-0.2222,-0.2222,-0.2143,-0.2125,-0.2114,-0.2097,-0.2076,-0.2046,-0.2035,-0.2157,-0.2813,-0.373,-0.4716,-0.5308,-0.573,-0.5916,-0.5916,-0.5916,-0.5916,-0.5916,-0.5916,-0.5916,-0.5916,-0.5916,-0.5916,-0.5916,-0.5916,-0.5916,-0.5916,-0.5669,-0.5176,-0.4067,-0.3698,-0.3207,-0.2161,-0.2027,-0.2128,-0.2128,-0.2184,-0.2222,-0.2222,-0.2222,-0.2222,-0.2222,-0.2222,-0.2222,-0.2222,-0.2222,-0.2222,-0.2222,-0.2222,-0.2222,-0.2222,-0.2222,-0.2222,-0.2222,-0.2222,-0.2222,-0.2222,-0.2222,-0.2222,-0.2222,-0.2222,-0.2222,-0.2222,-0.2222,-0.2222,-0.2222,-0.249,-0.2826,-0.3361,-0.4699,-0.5834,-0.6965,-1.2308,-1.2308,-1.2251,-1.2077,-1.2048,-1.1622,-1.0483,-0.9477,-0.8497,-0.7518,-0.6544,-0.5935,-0.5935,-0.5935,-0.5935,-0.5935,-0.5925,-0.5921,-0.5927,-0.5306,-0.4657,-0.4101,-0.3415,-0.2757,-0.2173,-0.2111,-0.2126,-0.2222,-0.2222,-0.2222,-0.2222,-0.2222,-0.2222,-0.2222,-0.2222,-0.2222,-0.2222,-0.2222,-0.2222,-0.2222,-0.2222,-0.2222,-0.2222,-0.2222,-0.2222,-0.2218,-0.2123,-0.2112,-0.2108,-0.2077,-0.2131,-0.2191,-0.2731,-0.3412,-0.4027,-0.4702,-0.536,-0.5916,-0.5916,-0.5916,-0.5916,-0.5916,-0.5916,-0.5916,-0.5916,-0.5916,-0.5916,-0.5916,-0.5916,-0.5916,-0.5916,-0.536,-0.4742,-0.4004,-0.3453,-0.2839,-0.2102,-0.2029,-0.2129,-0.2131,-0.2185,-0.2222,-0.2222,-0.2222,-0.2222,-0.2222,-0.2222,-0.2222,-0.2222,-0.2222,-0.2222,-0.2222,-0.2222,-0.2222,-0.2222,-0.2222,-0.2222,-0.2222,-0.2222,-0.2222,-0.2222,-0.2222,-0.2222,-0.2222,-0.2222,-0.2222,-0.2222,-0.2222,-0.2222,-0.2357,-0.296,-0.3897,-0.4966,-0.5769,-0.7567,-0.9694,-1.2308,-1.2308,-1.2292,-1.2247,-1.2239,-1.1842,-1.0789,-0.978,-0.8706,-0.7696,-0.6751,-0.6119,-0.6119,-0.6119,-0.6119,-0.6119,-0.5996,-0.5947,-0.5954,-0.539,-0.4984,-0.4932,-0.3758,-0.3074,-0.2963,-0.2464,-0.2214,-0.2222,-0.2222,-0.2222,-0.2222,-0.2222,-0.2222,-0.2222,-0.2222,-0.2222,-0.2222,-0.2222,-0.2222,-0.2222,-0.2222,-0.2222,-0.2222,-0.2222,-0.2222,-0.2221,-0.2213,-0.2144,-0.2139,-0.2109,-0.2098,-0.2093,-0.2257,-0.2759,-0.3446,-0.4594,-0.536,-0.5916,-0.5916,-0.5916,-0.5916,-0.5916,-0.5916,-0.5916,-0.5916,-0.5916,-0.5916,-0.5916,-0.5916,-0.5916,-0.5916,-0.5794,-0.5298,-0.4067,-0.376,-0.3281,-0.213,-0.204,-0.2073,-0.2095,-0.2131,-0.2222,-0.2222,-0.2222,-0.2222,-0.2222,-0.2222,-0.2222,-0.2222,-0.2222,-0.2222,-0.2222,-0.2222,-0.2222,-0.2222,-0.2222,-0.2222,-0.2222,-0.2222,-0.2222,-0.2222,-0.2222,-0.2222,-0.2222,-0.2222,-0.2222,-0.2222,-0.2222,-0.249,-0.296,-0.3162,-0.4233,-0.5835,-0.7372,-0.8834,-1.0293,-1.2548,-1.2548,-1.2523,-1.2438,-1.2039,-1.1306,-1.0209,-0.9115,-0.8098,-0.7075,-0.6498,-0.618,-0.618,-0.618,-0.6052,-0.5731,-0.5586,-0.5554,-0.5599,-0.4966,-0.4486,-0.4226,-0.354,-0.3038,-0.2727,-0.2414,-0.2222,-0.2222,-0.2222,-0.2222,-0.2222,-0.2222,-0.2222,-0.2222,-0.2222,-0.2222,-0.2222,-0.2222,-0.2222,-0.2222,-0.2222,-0.2222,-0.2222,-0.2222,-0.2222,-0.2222,-0.2222,-0.2222,-0.2219,-0.2136,-0.213,-0.2125,-0.2094,-0.254,-0.3177,-0.3865,-0.4694,-0.5534,-0.5806,-0.5916,-0.5916,-0.5916,-0.5916,-0.5916,-0.5916,-0.5916,-0.5916,-0.5916,-0.5916,-0.5916,-0.5916,-0.5423,-0.4745,-0.4004,-0.3409,-0.2811,-0.2079,-0.2056,-0.2091,-0.2107,-0.2136,-0.2222,-0.2222,-0.2222,-0.2222,-0.2222,-0.2222,-0.2222,-0.2222,-0.2222,-0.2222,-0.2222,-0.2222,-0.2222,-0.2222,-0.2222,-0.2222,-0.2222,-0.2222,-0.2222,-0.2222,-0.2222,-0.2222,-0.2222,-0.2222,-0.2356,-0.2624,-0.2624,-0.3094,-0.3764,-0.4101,-0.5438,-0.7305,-0.8573,-1.0038,-1.1497,-1.277,-1.277,-1.2787,-1.2633,-1.1892,-1.0804,-0.9453,-0.847,-0.7508,-0.6414,-0.6221,-0.6221,-0.6221,-0.6221,-0.5964,-0.5381,-0.5122,-0.4988,-0.4978,-0.4396,-0.3775,-0.33,-0.317,-0.2857,-0.2356,-0.2222,-0.2222,-0.2222,-0.2222,-0.2222,-0.2222,-0.2222,-0.2222,-0.2222,-0.2222,-0.2222,-0.2222,-0.2222,-0.2222,-0.2222,-0.2222,-0.2222,-0.2222,-0.2222,-0.2222,-0.2222,-0.2222,-0.2222,-0.2222,-0.2222,-0.2222,-0.2217,-0.2124,-0.2511,-0.2965,-0.2989,-0.3846,-0.4868,-0.5607,-0.5824,-0.5871,-0.5796,-0.5855,-0.5855,-0.5794,-0.5732,-0.5732,-0.5732,-0.5671,-0.5675,-0.5873,-0.4823,-0.3899,-0.3908,-0.2949,-0.209,-0.2031,-0.2077,-0.2111,-0.2116,-0.2139,-0.2222,-0.2222,-0.2222,-0.2222,-0.2222,-0.2222,-0.2222,-0.2222,-0.2222,-0.2222,-0.2222,-0.2222,-0.2222,-0.2222,-0.2222,-0.2222,-0.2222,-0.2222,-0.2222,-0.2222,-0.2222,-0.2222,-0.2356,-0.2356,-0.2759,-0.3362,-0.3563,-0.4033,-0.4769,-0.5577,-0.7178,-0.9039,-0.9643,-1.1104,-1.277,-1.277,-1.277,-1.2762,-1.28,-1.266,-1.186,-0.9849,-0.9384,-0.859,-0.6677,-0.6479,-0.6479,-0.6479,-0.6479,-0.6411,-0.6277,-0.514,-0.4386,-0.4337,-0.4202,-0.4162,-0.4084,-0.3485,-0.3154,-0.3026,-0.249,-0.2222,-0.2222,-0.2222,-0.2222,-0.2222,-0.2222,-0.2222,-0.2222,-0.2222,-0.2222,-0.2222,-0.2222,-0.2222,-0.2222,-0.2222,-0.2222,-0.2222,-0.2222,-0.2222,-0.2222,-0.2222,-0.2222,-0.2222,-0.2222,-0.2222,-0.2221,-0.2216,-0.2281,-0.2408,-0.2966,-0.321,-0.365,-0.4881,-0.558,-0.5825,-0.519,-0.5483,-0.5732,-0.5174,-0.5049,-0.5049,-0.5049,-0.4621,-0.4578,-0.5767,-0.49,-0.3974,-0.4089,-0.3401,-0.2648,-0.2157,-0.2104,-0.2119,-0.2144,-0.2219,-0.2222,-0.2222,-0.2222,-0.2222,-0.2222,-0.2222,-0.2222,-0.2222,-0.2222,-0.2222,-0.2222,-0.2222,-0.2222,-0.2222,-0.2222,-0.2222,-0.2222,-0.2222,-0.2222,-0.2222,-0.2222,-0.249,-0.3027,-0.3027,-0.343,-0.4167,-0.5101,-0.5904,-0.6706,-0.7707,-0.9238,-1.0833,-1.0899,-1.1765,-1.277,-1.277,-1.277,-1.277,-1.277,-1.1839,-1.0707,-0.9779,-0.8648,-0.7584,-0.6654,-0.652,-0.652,-0.652,-0.652,-0.6319,-0.5917,-0.531,-0.4693,-0.4263,-0.3531,-0.3142,-0.3161,-0.2826,-0.2691,-0.2691,-0.2356,-0.2222,-0.2222,-0.2222,-0.2222,-0.2222,-0.2222,-0.2222,-0.2222,-0.2222,-0.2222,-0.2222,-0.2222,-0.2222,-0.2222,-0.2222,-0.2222,-0.2222,-0.2222,-0.2222,-0.2222,-0.2222,-0.2222,-0.2222,-0.2222,-0.2222,-0.2222,-0.2222,-0.2222,-0.2286,-0.2537,-0.3097,-0.3835,-0.4839,-0.5321,-0.5412,-0.512,-0.5238,-0.5302,-0.4545,-0.4418,-0.4418,-0.4418,-0.4167,-0.4177,-0.478,-0.4148,-0.3455,-0.3544,-0.2987,-0.242,-0.2107,-0.2123,-0.2139,-0.222,-0.2222,-0.2222,-0.2222,-0.2222,-0.2222,-0.2222,-0.2222,-0.2222,-0.2222,-0.2222,-0.2222,-0.2222,-0.2222,-0.2222,-0.2222,-0.2222,-0.2222,-0.2222,-0.2222,-0.2222,-0.2222,-0.2558,-0.2893,-0.3228,-0.363,-0.4235,-0.4975,-0.604,-0.6907,-0.7641,-0.8709,-0.9971,-1.123,-1.123,-1.1901,-1.277,-1.277,-1.277,-1.277,-1.277,-1.1439,-1.0177,-0.9646,-0.8251,-0.7054,-0.6587,-0.652,-0.652,-0.652,-0.652,-0.6252,-0.5716,-0.5515,-0.5178,-0.4571,-0.3363,-0.2625,-0.2423,-0.2289,-0.2222,-0.2222,-0.2222,-0.2222,-0.2222,-0.2222,-0.2222,-0.2222,-0.2222,-0.2222,-0.2222,-0.2222,-0.2222,-0.2222,-0.2222,-0.2222,-0.2222,-0.2222,-0.2222,-0.2222,-0.2222,-0.2222,-0.2222,-0.2222,-0.2222,-0.2222,-0.2222,-0.2222,-0.2222,-0.2222,-0.2222,-0.2222,-0.2222,-0.285,-0.3709,-0.4278,-0.4726,-0.511,-0.4901,-0.5088,-0.5153,-0.4446,-0.4125,-0.3997,-0.3997,-0.3867,-0.3871,-0.4208,-0.3628,-0.3116,-0.3321,-0.2697,-0.212,-0.212,-0.214,-0.2222,-0.2222,-0.2222,-0.2222,-0.2222,-0.2222,-0.2222,-0.2222,-0.2222,-0.2222,-0.2222,-0.2222,-0.2222,-0.2222,-0.2222,-0.2222,-0.2222,-0.2222,-0.2222,-0.2222,-0.2222,-0.2289,-0.2424,-0.296,-0.3362,-0.3765,-0.4303,-0.4975,-0.5783,-0.7045,-0.7907,-0.8509,-0.9842,-1.084,-1.1563,-1.1563,-1.2099,-1.277,-1.277,-1.277,-1.277,-1.277,-1.2638,-1.1905,-0.9911,-0.9446,-0.8648,-0.6721,-0.652,-0.652,-0.652,-0.652,-0.6453,-0.6453,-0.5783,-0.5381,-0.5314,-0.4571,-0.3831,-0.3161,-0.2558,-0.2222,-0.2222,-0.2222,-0.2222,-0.2222,-0.2222,-0.2222,-0.2222,-0.2222,-0.2222,-0.2222,-0.2222,-0.2222,-0.2222,-0.2222,-0.2222,-0.2222,-0.2222,-0.2222,-0.2222,-0.2222,-0.2222,-0.2222,-0.2222,-0.2222,-0.2222,-0.2222,-0.2222,-0.2222,-0.2222,-0.2222,-0.2222,-0.2222,-0.2286,-0.2342,-0.2311,-0.3748,-0.5045,-0.4333,-0.5153,-0.5923,-0.5281,-0.4576,-0.4061,-0.4061,-0.3608,-0.3558,-0.4852,-0.4076,-0.3433,-0.4078,-0.3088,-0.2218,-0.2218,-0.2221,-0.2222,-0.2222,-0.2222,-0.2222,-0.2222,-0.2222,-0.2222,-0.2222,-0.2222,-0.2222,-0.2222,-0.2222,-0.2222,-0.2222,-0.2222,-0.2222,-0.2222,-0.2222,-0.2222,-0.2222,-0.2222,-0.2558,-0.3161,-0.3161,-0.3968,-0.5247,-0.5312,-0.5714,-0.6587,-0.8581,-0.9443,-0.9709,-1.1773,-1.2638,-1.27,-1.27,-1.2704,-1.277,-1.277,-1.277,-1.277,-1.277,-1.2235,-1.1303,-0.9842,-0.9045,-0.8112,-0.6654,-0.652,-0.652,-0.652,-0.652,-0.652,-0.652,-0.6252,-0.6051,-0.6051,-0.5379,-0.4638,-0.3899,-0.3228,-0.3027,-0.3497,-0.2625,-0.2423,-0.2826,-0.2423,-0.2222,-0.2222,-0.2222,-0.2222,-0.2222,-0.2222,-0.2222,-0.2222,-0.2625,-0.2826,-0.2893,-0.3295,-0.3228,-0.2893,-0.3295,-0.3228,-0.2826,-0.2826,-0.2826,-0.2826,-0.2826,-0.2558,-0.2289,-0.2691,-0.2558,-0.2222,-0.2222,-0.2222,-0.2219,-0.2141,-0.3404,-0.4594,-0.4306,-0.4962,-0.549,-0.4829,-0.4431,-0.4234,-0.4234,-0.4035,-0.3843,-0.3932,-0.3536,-0.3142,-0.3025,-0.2558,-0.2222,-0.2222,-0.2222,-0.2222,-0.2222,-0.2222,-0.2222,-0.2222,-0.2222,-0.2222,-0.2222,-0.2222,-0.2222,-0.2222,-0.2222,-0.2222,-0.2222,-0.2222,-0.2222,-0.2222,-0.2222,-0.2222,-0.2222,-0.2625,-0.296,-0.3228,-0.417,-0.4842,-0.5448,-0.585,-0.6583,-0.7514,-0.8981,-0.9975,-1.077,-1.2235,-1.277,-1.277,-1.277,-1.277,-1.277,-1.277,-1.277,-1.277,-1.277,-1.2169,-1.1369,-1.024,-0.9175,-0.8112,-0.7118,-0.6719,-0.652,-0.652,-0.652,-0.652,-0.652,-0.652,-0.652,-0.652,-0.6051,-0.5312,-0.4368,-0.3831,-0.3764,-0.43,-0.3362,-0.3102,-0.3588,-0.3114,-0.292,-0.2931,-0.2931,-0.2925,-0.2912,-0.2912,-0.2905,-0.2893,-0.3362,-0.3564,-0.3563,-0.41,-0.3966,-0.363,-0.41,-0.3966,-0.3564,-0.3564,-0.3564,-0.3564,-0.3564,-0.3228,-0.296,-0.343,-0.3094,-0.249,-0.2289,-0.2357,-0.249,-0.2289,-0.3228,-0.43,-0.43,-0.4841,-0.5312,-0.5041,-0.4838,-0.4638,-0.4638,-0.4638,-0.4504,-0.3967,-0.3901,-0.3767,-0.3297,-0.2827,-0.249,-0.249,-0.2357,-0.2222,-0.2222,-0.2222,-0.2222,-0.2222,-0.2222,-0.2222,-0.2222,-0.2222,-0.2222,-0.2222,-0.2222,-0.2222,-0.2222,-0.2222,-0.2222,-0.2222,-0.2222,-0.2289,-0.249,-0.296,-0.343,-0.3901,-0.491,-0.5515,-0.5783,-0.6583,-0.7383,-0.811,-0.9507,-1.0568,-1.1299,-1.2367,-1.277,-1.277,-1.277,-1.277,-1.277,-1.277,-1.277,-1.277,-1.277,-1.277,-1.2437,-1.1365,-1.0306,-0.9244,-0.811,-0.7118,-0.652,-0.652,-0.652,-0.652,-0.652,-0.652,-0.652,-0.6522,-0.6522,-0.5848,-0.437,-0.4301,-0.4301,-0.4301,-0.4303,-0.4331,-0.4392,-0.4392,-0.4491,-0.4622,-0.4622,-0.452,-0.4392,-0.4392,-0.4358,-0.4303,-0.4303,-0.4303,-0.4301,-0.4301,-0.4301,-0.4301,-0.4301,-0.4301,-0.4301,-0.4301,-0.4301,-0.4301,-0.4301,-0.4301,-0.43,-0.43,-0.3764,-0.3094,-0.2423,-0.2691,-0.3094,-0.2423,-0.3228,-0.43,-0.43,-0.4841,-0.5582,-0.6319,-0.5917,-0.5381,-0.5381,-0.5381,-0.5381,-0.5381,-0.5381,-0.5381,-0.5381,-0.417,-0.3228,-0.3228,-0.2625,-0.2222,-0.2222,-0.2222,-0.2222,-0.2222,-0.2222,-0.2222,-0.2222,-0.2222,-0.2222,-0.2222,-0.2222,-0.2222,-0.2222,-0.2222,-0.2222,-0.2222,-0.2222,-0.2558,-0.3228,-0.3228,-0.3967,-0.5381,-0.5381,-0.5783,-0.6587,-0.7581,-0.7977,-0.8176,-1.03,-1.123,-1.1299,-1.2367,-1.277,-1.277,-1.277,-1.277,-1.277,-1.277,-1.277,-1.277,-1.277,-1.277,-1.2437,-1.1365,-1.0306,-0.9244,-0.811,-0.7118,-0.652,-0.652,-0.652,-0.652,-0.652,-0.652,-0.6549,-0.6545,-0.6549,-0.6371,-0.6019,-0.5415,-0.5386,-0.5934,-0.5026,-0.4783,-0.5218,-0.4803,-0.4534,-0.4622,-0.4622,-0.4612,-0.4525,-0.4525,-0.4515,-0.4566,-0.498,-0.5157,-0.518,-0.5728,-0.556,-0.5109,-0.5646,-0.5512,-0.5042,-0.5042,-0.5042,-0.5042,-0.5042,-0.4705,-0.43,-0.43,-0.4166,-0.3966,-0.3764,-0.3831,-0.3899,-0.3697,-0.3966,-0.43,-0.43,-0.4841,-0.5582,-0.6319,-0.6319,-0.6185,-0.6185,-0.6185,-0.5984,-0.5515,-0.5381,-0.5245,-0.4705,-0.3833,-0.3228,-0.3228,-0.2625,-0.2222,-0.2222,-0.2222,-0.2222,-0.2222,-0.2222,-0.2222,-0.2222,-0.2222,-0.2222,-0.2222,-0.2222,-0.2222,-0.2222,-0.2222,-0.2423,-0.2893,-0.2893,-0.3027,-0.3228,-0.4237,-0.4977,-0.5448,-0.5917,-0.6319,-0.6587,-0.7581,-0.8443,-0.9244,-1.0634,-1.163,-1.2367,-1.2704,-1.277,-1.277,-1.277,-1.277,-1.277,-1.277,-1.277,-1.277,-1.277,-1.277,-1.2437,-1.1365,-1.0306,-0.9244,-0.811,-0.7118,-0.652,-0.652,-0.652,-0.6535,-0.6504,-0.6541,-0.6584,-0.6641,-0.6643,-0.6668,-0.6725,-0.6283,-0.6258,-0.6645,-0.586,-0.5687,-0.6137,-0.5715,-0.5519,-0.5549,-0.5549,-0.5532,-0.5504,-0.5504,-0.5489,-0.5464,-0.5883,-0.5994,-0.6017,-0.6434,-0.6336,-0.5948,-0.6425,-0.6289,-0.5948,-0.5948,-0.5948,-0.5948,-0.5948,-0.5585,-0.5145,-0.4849,-0.4705,-0.4705,-0.4368,-0.4502,-0.4638,-0.4368,-0.4502,-0.4705,-0.4705,-0.5042,-0.5582,-0.6319,-0.652,-0.652,-0.652,-0.652,-0.6386,-0.5917,-0.585,-0.5714,-0.5242,-0.4571,-0.4102,-0.4102,-0.3229,-0.2625,-0.2625,-0.2356,-0.2222,-0.2222,-0.2222,-0.2222,-0.2222,-0.2222,-0.2222,-0.2222,-0.2222,-0.2222,-0.2222,-0.2222,-0.249,-0.3161,-0.3496,-0.3765,-0.4102,-0.4977,-0.5582,-0.585,-0.6717,-0.7116,-0.7183,-0.8643,-0.964,-1.0306,-1.1369,-1.2235,-1.277,-1.277,-1.277,-1.277,-1.277,-1.277,-1.277,-1.277,-1.277,-1.277,-1.277,-1.2782,-1.2526,-1.1519,-1.0469,-0.9413,-0.8341,-0.7277,-0.6612,-0.6545,-0.6545,-0.6511,-0.6596,-0.6678,-0.6729,-0.6737,-0.6737,-0.6741,-0.6749,-0.6825,-0.6829,-0.6751,-0.6749,-0.6788,-0.6937,-0.6937,-0.6909,-0.699,-0.699,-0.6945,-0.6937,-0.6937,-0.6823,-0.6749,-0.6749,-0.6745,-0.6737,-0.6737,-0.6733,-0.6727,-0.6727,-0.6727,-0.6727,-0.6727,-0.6727,-0.6727,-0.6727,-0.6672,-0.6451,-0.576,-0.5536,-0.54,-0.4722,-0.4992,-0.54,-0.4722,-0.4992,-0.5536,-0.5536,-0.5531,-0.5658,-0.6321,-0.652,-0.652,-0.652,-0.652,-0.652,-0.652,-0.652,-0.652,-0.652,-0.585,-0.5381,-0.5381,-0.4102,-0.3228,-0.3228,-0.2625,-0.2222,-0.2222,-0.2222,-0.2222,-0.2222,-0.2222,-0.2222,-0.2222,-0.2222,-0.2222,-0.2222,-0.2289,-0.2625,-0.3295,-0.4033,-0.4705,-0.5381,-0.5448,-0.585,-0.652,-0.7514,-0.7977,-0.811,-1.0303,-1.123,-1.1299,-1.2371,-1.277,-1.277,-1.277,-1.277,-1.277,-1.277,-1.277,-1.277,-1.277,-1.277,-1.277,-1.277,-1.295,-1.2968,-1.2696,-1.1935,-1.0923,-0.9749,-0.8724,-0.7698,-0.6735,-0.6668,-0.6676,-0.6694,-0.6715,-0.6756,-0.6821,-0.6825,-0.6858,-0.6929,-0.6952,-0.6952,-0.6933,-0.6933,-0.6941,-0.696,-0.696,-0.697,-0.699,-0.699,-0.6978,-0.696,-0.696,-0.6949,-0.6933,-0.6933,-0.689,-0.6825,-0.6825,-0.6786,-0.6727,-0.6727,-0.6727,-0.6727,-0.6727,-0.6727,-0.6727,-0.6727,-0.6713,-0.6625,-0.6466,-0.6391,-0.6391,-0.625,-0.632,-0.6391,-0.625,-0.632,-0.6391,-0.6391,-0.6407,-0.6337,-0.647,-0.652,-0.652,-0.652,-0.652,-0.652,-0.652,-0.652,-0.652,-0.652,-0.585,-0.5381,-0.5381,-0.4102,-0.3228,-0.3228,-0.2625,-0.2222,-0.2222,-0.2222,-0.2222,-0.2222,-0.2222,-0.2222,-0.2222,-0.2222,-0.2222,-0.2222,-0.2692,-0.3362,-0.4033,-0.4774,-0.5245,-0.5381,-0.5984,-0.6319,-0.652,-0.7514,-0.7977,-0.811,-1.0303,-1.123,-1.1299,-1.2371,-1.277,-1.277,-1.277,-1.277,-1.277,-1.277,-1.277,-1.277,-1.2942,-1.2958,-1.2986,-1.3076,-1.3165,-1.309,-1.2543,-1.2072,-1.1158,-0.9492,-0.8801,-0.8042,-0.6864,-0.6727,-0.6741,-0.6784,-0.6827,-0.687,-0.6915,-0.6919,-0.6939,-0.6988,-0.699,-0.699,-0.699,-0.699,-0.699,-0.699,-0.699,-0.699,-0.699,-0.699,-0.699,-0.699,-0.699,-0.699,-0.699,-0.699,-0.6962,-0.6919,-0.6919,-0.6892,-0.6851,-0.6851,-0.6851,-0.6851,-0.6851,-0.6851,-0.6845,-0.68,-0.6786,-0.678,-0.6739,-0.6727,-0.6727,-0.6727,-0.6727,-0.6727,-0.6727,-0.6727,-0.6727,-0.6727,-0.669,-0.6631,-0.6539,-0.6553,-0.652,-0.652,-0.652,-0.652,-0.652,-0.652,-0.652,-0.652,-0.6185,-0.5917,-0.5917,-0.4977,-0.4101,-0.3764,-0.3094,-0.2558,-0.2222,-0.249,-0.2558,-0.2222,-0.249,-0.2691,-0.2691,-0.2691,-0.2826,-0.3162,-0.3564,-0.4101,-0.4839,-0.5709,-0.6311,-0.6646,-0.7049,-0.7517,-0.7984,-0.9042,-0.9504,-0.9637,-1.1233,-1.1967,-1.2033,-1.2568,-1.277,-1.277,-1.277,-1.277,-1.277,-1.277,-1.277,-1.277,-1.3108,-1.3141,-1.3189,-1.3344,-1.3396,-1.3141,-1.2244,-1.2128,-1.1375,-0.9142,-0.8793,-0.8306,-0.691,-0.6772,-0.68,-0.6941,-0.6945,-0.699,-0.699,-0.699,-0.699,-0.699,-0.699,-0.699,-0.699,-0.699,-0.699,-0.699,-0.699,-0.699,-0.699,-0.699,-0.699,-0.699,-0.699,-0.699,-0.699,-0.699,-0.699,-0.699,-0.699,-0.699,-0.699,-0.699,-0.699,-0.699,-0.699,-0.699,-0.6978,-0.6903,-0.6947,-0.6864,-0.6794,-0.6772,-0.6772,-0.6772,-0.6772,-0.6772,-0.6772,-0.6772,-0.6772,-0.6772,-0.676,-0.6729,-0.6651,-0.6566,-0.6568,-0.6568,-0.6568,-0.6564,-0.6547,-0.6545,-0.6539,-0.6522,-0.652,-0.652,-0.652,-0.585,-0.5178,-0.457,-0.3831,-0.3161,-0.2625,-0.3095,-0.3162,-0.2625,-0.3094,-0.3362,-0.3362,-0.3362,-0.3697,-0.43,-0.4435,-0.4839,-0.5647,-0.6644,-0.7641,-0.8573,-0.8573,-0.8909,-0.9643,-1.07,-1.123,-1.123,-1.2301,-1.277,-1.277,-1.277,-1.277,-1.277,-1.277,-1.277,-1.277,-1.277,-1.277,-1.277,-1.3295,-1.3331,-1.334,-1.3368,-1.3502,-1.3538,-1.3398,-1.3522,-1.2757,-1.0469,-1.0111,-0.9322,-0.717,-0.6954,-0.696,-0.697,-0.6982,-0.699,-0.699,-0.699,-0.699,-0.699,-0.699,-0.699,-0.699,-0.699,-0.699,-0.699,-0.699,-0.699,-0.699,-0.699,-0.699,-0.699,-0.699,-0.699,-0.699,-0.699,-0.699,-0.699,-0.699,-0.699,-0.699,-0.699,-0.699,-0.699,-0.699,-0.699,-0.6988,-0.6974,-0.697,-0.697,-0.6958,-0.6954,-0.6954,-0.6954,-0.6954,-0.6954,-0.6954,-0.6954,-0.6954,-0.6954,-0.6894,-0.6904,-0.6892,-0.6751,-0.669,-0.669,-0.669,-0.6666,-0.6586,-0.6572,-0.6545,-0.6533,-0.652,-0.652,-0.652,-0.585,-0.5381,-0.5245,-0.4571,-0.41,-0.4033,-0.41,-0.41,-0.4033,-0.41,-0.4166,-0.4166,-0.4166,-0.4167,-0.43,-0.4908,-0.5711,-0.6775,-0.751,-0.8839,-1.0767,-1.0767,-1.0369,-0.9643,-1.07,-1.123,-1.123,-1.2301,-1.277,-1.277,-1.277,-1.277,-1.277,-1.277,-1.277,-1.277,-1.277,-1.277,-1.277,-1.3486,-1.3522,-1.3555,-1.3652,-1.3734,-1.3786,-1.3786,-1.3851,-1.3325,-1.1603,-1.0812,-0.9801,-0.814,-0.7349,-0.699,-0.699,-0.699,-0.699,-0.699,-0.699,-0.699,-0.699,-0.699,-0.699,-0.699,-0.699,-0.699,-0.699,-0.699,-0.699,-0.699,-0.699,-0.699,-0.699,-0.699,-0.699,-0.699,-0.699,-0.699,-0.699,-0.699,-0.699,-0.699,-0.699,-0.699,-0.699,-0.699,-0.699,-0.699,-0.699,-0.699,-0.699,-0.699,-0.699,-0.7133,-0.7781,-0.7494,-0.7133,-0.7781,-0.7923,-0.7923,-0.7923,-0.8395,-0.8719,-0.8071,-0.7895,-0.7622,-0.6885,-0.6727,-0.6715,-0.6674,-0.6625,-0.6576,-0.6537,-0.6555,-0.652,-0.652,-0.6252,-0.585,-0.5448,-0.4772,-0.43,-0.43,-0.4705,-0.4772,-0.4301,-0.5237,-0.5837,-0.5837,-0.5837,-0.6239,-0.724,-0.6978,-0.7379,-0.844,-0.9371,-1.0233,-1.123,-1.1831,-1.1835,-1.1372,-1.1901,-1.2099,-1.2099,-1.2568,-1.277,-1.277,-1.277,-1.277,-1.277,-1.277,-1.277,-1.277,-1.277,-1.277,-1.277]},{"header":{"parameterUnit":"m.s-1","parameterCategory":1,"la1":30.6,"la2":28.766,"lo1":-90.7593,"lo2":-88.6598,"dy":0.0162,"dx":0.0183,"nx":116,"ny":114,"refTime":"2023-10-07T12:00:00:Z","depth":0,"parameterNumber":3,"parameterNumberName":"V-component_of_WINDS"},"data":[0.0,0.0,0.0,0.0,0.0,0.0,0.0,0.0,0.0,0.0,0.0,0.0,0.0,0.0,0.0,0.0,0.0,0.0,0.0,0.0,0.0,0.0,0.0,0.0,0.0,0.0,0.0,0.0,0.0,0.0,0.0,0.0,0.0,0.0,0.0,0.0,0.0,0.0,0.0,0.0,0.0,0.0,0.0,0.0,0.0,0.0,0.0,0.0,0.0,0.0,0.0,0.0,0.0,0.0,0.0,0.0,0.0,0.0,0.0,0.0,0.0,0.0,0.0,0.0,0.0,0.0,0.0,0.0,0.0,0.0,0.0,0.0,0.0,0.0,0.0,0.0,0.0,0.0,0.0,0.0,0.0,0.0,0.0,0.0,0.0,0.0,0.0,0.0,0.0,0.0,0.0,0.0,0.0,0.0,0.0,0.0,0.0,0.0,0.0,0.0,0.0,0.0,0.0,0.0,0.0,0.0,0.0,0.0,0.0,0.0,0.0,0.0,0.0,0.0,0.0,0.0,0.0,0.0,0.0,0.0,0.0,0.0,0.0,0.0,0.0,0.0,0.0,0.0,0.0,0.0,0.0,0.0,0.0,0.0,0.0,0.0,0.0,0.0,0.0,0.0,0.0,0.0,0.0,0.0,0.0,0.0,0.0,0.0,0.0,0.0,0.0,0.0,0.0,0.0,0.0,0.0,0.0,0.0,0.0,0.0,0.0,0.0,0.0,0.0,0.0,0.0,0.0,0.0,0.0,0.0,0.0,0.0,0.0,0.0,0.0,0.0,0.0,0.0,0.0,0.0,0.0,0.0,0.0,0.0,0.0,0.0,0.0,0.0,0.0,0.0,0.0,0.0,0.0,0.0,0.0,0.0,0.0,0.0,0.0,0.0,0.0,0.0,0.0,0.0,0.0,0.0,0.0,0.0,0.0,0.0,0.0,0.0,0.0,0.0,0.0,0.0,0.0,0.0,0.0,0.0,0.0,0.0,0.0,0.0,0.0,0.0,0.0,0.0,0.0,0.0,0.0,0.0,0.0,0.0,0.0,0.0,0.0,0.0,0.0,0.0,0.0,0.0,0.0,0.0,0.0,0.0,0.0,0.0,0.0,0.0,0.0,0.0,0.0,0.0,0.0,0.0,0.0,0.0,0.0,0.0,0.0,0.0,0.0,0.0,0.0,0.0,0.0,0.0,0.0,0.0,0.0,0.0,0.0,0.0,0.0,0.0,0.0,0.0,0.0,0.0,0.0,0.0,0.0,0.0,0.0,0.0,0.0,0.0,0.0,0.0,0.0,0.0,0.0,0.0,0.0,0.0,0.0,0.0,0.0,0.0,0.0,0.0,0.0,0.0,0.0,0.0,0.0,0.0,0.0,0.0,0.0,0.0,0.0,0.0,0.0,0.0,0.0,0.0,0.0,0.0,0.0,0.0,0.0,0.0,0.0,0.0,0.0,0.0,0.0,0.0,0.0,0.0,0.0,0.0,0.0,0.0,0.0,0.0,0.0,0.0,0.0,0.0,0.0,0.0,0.0,0.0,0.0,0.0,0.0,0.0,0.0,0.0,0.0,0.0,0.0,0.0,0.0,0.0,0.0,0.0,0.0,0.0,0.0,0.0,0.0,0.0,0.0,0.0,0.0,0.0,0.0,0.0,0.0,0.0,0.0,0.0,0.0,0.0,0.0,0.0,0.0,0.0,0.0,0.0,0.0,0.0,0.0,0.0,0.0,0.0,0.0,0.0,0.0,0.0,0.0,0.0,0.0,0.0,0.0,0.0,0.0,0.0,0.0,0.0,0.0,0.0,0.0,0.0,0.0,0.0,0.0,0.0,0.0,0.0,0.0,0.0,0.0,0.0,0.0,0.0,0.0,0.0,0.0,0.0,0.0,0.0,0.0,0.0,0.0,0.0,0.0,0.0,0.0,0.0,0.0,0.0,0.0,0.0,0.0,0.0,0.0,0.0,0.0,0.0,0.0,0.0,0.0,0.0,0.0,0.0,0.0,0.0,0.0,0.0,0.0,0.0,0.0,0.0,0.0,0.0,0.0,0.0,0.0,0.0,0.0,0.0,0.0,0.0,0.0,0.0,0.0,0.0,0.0,0.0,0.0,0.0,0.0,0.0,0.0,0.0,0.0,0.0,0.0,0.0,0.0,0.0,0.0,0.0,0.0,0.0,0.0,0.0,0.0,0.0,0.0,0.0,0.0,0.0,0.0,0.0,0.0,0.0,0.0,0.0,0.0,0.0,0.0,0.0,0.0,0.0,0.0,0.0,0.0,0.0,0.0,0.0,0.0,0.0,0.0,0.0,0.0,0.0,0.0,0.0,0.0,0.0,0.0,0.0,0.0,0.0,0.0,0.0,0.0,0.0,0.0,0.0,0.0,0.0,0.0,0.0,0.0,0.0,0.0,0.0,0.0,0.0,0.0,0.0,0.0,0.0,0.0,0.0,0.0,0.0,0.0,0.0,0.0,0.0,0.0,0.0,0.0,0.0,0.0,0.0,0.0,0.0,0.0,0.0,0.0,0.0,0.0,0.0,0.0,0.0,0.0,0.0,0.0,0.0,0.0,0.0,0.0,0.0,0.0,0.0,0.0,0.0,0.0,0.0,0.0,0.0,0.0,0.0,0.0,0.0,0.0,0.0,0.0,0.0,0.0,0.0,0.0,0.0,0.0,0.0,0.0,0.0,0.0,0.0,0.0,0.0,0.0,0.0,0.0,0.0,0.0,0.0,0.0,0.0,0.0,0.0,0.0,0.0,0.0,0.0,0.0,0.0,0.0,0.0,0.0,0.0,0.0,0.0,0.0,0.0,0.0,0.0,0.0,0.0,0.0,0.0,0.0,0.0,0.0,0.0,0.0,0.0,0.0,0.0,0.0,0.0,0.0,0.0,0.0,0.0,0.0,0.0,0.0,0.0,0.0,0.0,0.0,0.0,0.0,0.0,0.0,0.0,0.0,0.0,0.0,0.0,0.0,0.0,0.0,0.0,0.0,0.0,0.0,0.0,0.0,0.0,0.0,0.0,0.0,0.0,0.0,0.0,0.0,0.0,0.0,0.0,0.0,0.0,0.0,0.0,0.0,0.0,0.0,0.0,0.0,0.0,0.0,0.0,0.0,0.0,0.0,0.0,0.0,0.0,0.0,0.0,0.0,0.0,0.0,0.0,0.0,0.0,0.0,0.0,0.0,0.0,0.0,0.0,0.0,0.0,0.0,0.0,0.0,0.0,0.0,0.0,0.0,0.0,0.0,0.0,0.0,0.0,0.0,0.0,0.0,0.0,0.0,0.0,0.0,0.0,0.0,0.0,0.0,0.0,0.0,0.0,0.0,0.0,0.0,0.0,0.0,0.0,0.0,0.0,0.0,0.0,0.0,0.0,0.0,0.0,0.0,0.0,0.0,0.0,0.0,0.0,0.0,0.0,0.0,0.0,0.0,0.0,0.0,0.0,0.0,0.0,0.0,0.0,0.0,0.0,0.0,0.0,0.0,0.0,0.0,0.0,0.0,0.0,0.0,0.0,0.0,0.0,0.0,0.0,0.0,0.0,0.0,0.0,0.0,0.0,0.0,0.0,0.0,0.0,0.0,0.0,0.0,0.0,0.0,0.0,0.0,0.0,0.0,0.0,0.0,0.0,0.0,0.0,0.0,0.0,0.0,0.0,0.0,0.0,0.0,0.0,0.0,0.0,0.0,0.0,0.0,0.0,0.0,0.0,0.0,0.0,0.0,0.0,0.0,0.0,0.0,0.0,0.0,0.0,0.0,0.0,0.0,0.0,0.0,0.0,0.0,0.0,0.0,0.0,0.0,0.0,0.0,0.0,0.0,0.0,0.0,0.0,0.0,0.0,0.0,0.0,0.0,0.0,0.0,0.0,0.0,0.0,0.0,0.0,0.0,0.0,0.0,0.0,0.0,0.0,0.0,0.0,0.0,0.0,0.0,0.0,0.0,0.0,0.0,0.0,0.0,0.0,0.0,0.0,0.0,0.0,0.0,0.0,0.0,0.0,0.0,0.0,0.0,0.0,0.0,0.0,0.0,0.0,0.0,0.0,0.0,0.0,0.0,0.0,0.0,0.0,0.0,0.0,0.0,0.0,0.0,0.0,0.0,0.0,0.0,0.0,0.0,0.0,0.0,0.0,0.0,0.0,0.0,0.0,0.0,0.0,0.0,0.0,0.0,0.0,0.0,0.0,0.0,0.0,0.0,0.0,0.0,0.0,0.0,0.0,0.0,0.0,0.0,0.0,0.0,0.0,0.0,0.0,0.0,0.0,0.0,0.0,0.0,0.0,0.0,0.0,0.0,0.0,0.0,0.0,0.0,0.0,0.0,0.0,0.0,0.0,0.0,0.0,0.0,0.0,0.0,0.0,0.0,0.0,0.0,0.0,0.0,0.0,0.0,0.0,0.0,0.0,0.0,0.0,0.0,0.0,0.0,0.0,0.0,0.0,0.0,0.0,0.0,0.0,0.0,0.0,0.0,0.0,0.0,0.0,0.0,0.0,0.0,0.0,0.0,0.0,0.0,0.0,0.0,0.0,0.0,0.0,0.0,0.0,0.0,0.0,0.0,0.0,0.0,0.0,0.0,0.0,0.0,0.0,0.0,0.0,0.0,0.0,0.0,0.0,0.0,0.0,0.0,0.0,0.0,0.0,0.0,0.0,0.0,0.0,0.0,0.0,0.0,0.0,0.0,0.0,0.0,0.0,0.0,0.0,0.0,0.0,0.0,0.0,0.0,0.0,0.0,0.0,0.0,0.0,0.0,0.0,0.0,0.0,0.0,0.0,0.0,0.0,0.0,0.0,0.0,0.0,0.0,0.0,0.0,0.0,0.0,0.0,0.0,0.0,0.0,0.0,0.0,0.0,0.0,0.0,0.0,0.0,0.0,0.0,0.0,0.0,0.0,0.0,0.0,0.0,0.0,0.0,0.0,0.0,0.0,0.0,0.0,0.0,0.0,0.0,0.0,0.0,0.0,0.0,0.0,0.0,0.0,0.0,0.0,0.0,0.0,0.0,0.0,0.0,0.0,0.0,0.0,0.0,0.0,0.0,0.0,0.0,0.0,0.0,0.0,0.0,0.0,0.0,0.0,0.0,0.0,0.0,0.0,0.0,0.0,0.0,0.0,0.0,0.0,0.0,0.0,0.0,0.0,0.0,0.0,0.0,0.0,0.0,0.0,0.0,0.0,0.0,0.0,0.0,0.0,0.0,0.0,0.0,0.0,0.0,0.0,0.0,0.0,0.0,0.0,0.0,0.0,0.0,0.0,0.0,0.0,0.0,0.0,0.0,0.0,0.0,0.0,0.0,0.0,0.0,0.0,0.0,0.0,0.0,0.0,0.0,0.0,0.0,0.0,0.0,0.0,0.0,0.0,0.0,0.0,0.0,0.0,0.0,0.0,0.0,0.0,0.0,0.0,0.0,0.0,0.0,0.0,0.0,0.0,0.0,0.0,0.0,0.0,0.0,0.0,0.0,0.0,0.0,0.0,0.0,0.0,0.0,0.0,0.0,0.0,0.0,0.0,0.0,0.0,0.0,0.0,0.0,0.0,0.0,0.0,0.0,0.0,0.0,0.0,0.0,0.0,0.0,0.0,0.0,0.0,0.0,0.0,0.0,0.0,0.0,0.0,0.0,0.0,0.0,0.0,0.0,0.0,0.0,0.0,0.0,0.0,0.0,0.0,0.0,0.0,0.0,0.0,0.0,0.0,0.0,0.0,0.0,0.0,0.0,0.0,0.0,0.0,0.0,0.0,0.0,0.0,0.0,0.0,0.0,0.0,0.0,0.0,0.0,0.0,0.0,0.0,0.0,0.0,0.0,0.0,0.0,0.0,0.0,0.0,0.0,0.0,0.0,0.0,0.0,0.0,0.0,0.0,0.0,0.0,0.0,0.0,0.0,0.0,0.0,0.0,0.0,0.0,0.0,0.0,0.0,0.0,0.0,0.0,0.0,0.0,0.0,0.0,0.0,0.0,0.0,0.0,0.0,0.0,0.0,0.0,0.0,0.0,0.0,0.0,0.0,0.0,0.0,0.0,0.0,0.0,0.0,0.0,0.0,0.0,0.0,0.0,0.0,0.0,0.0,0.0,0.0,0.0,0.0,0.0,0.0,5.2245,5.1825,0.0,0.0,0.0,0.0,0.0,0.0,0.0,0.0,0.0,0.0,0.0,0.0,0.0,0.0,0.0,0.0,0.0,0.0,0.0,0.0,0.0,0.0,0.0,0.0,0.0,0.0,0.0,0.0,0.0,0.0,0.0,0.0,0.0,0.0,0.0,0.0,0.0,4.5864,4.5475,4.571,4.6553,4.6226,4.5719,4.5089,0.0,0.0,0.0,0.0,0.0,0.0,0.0,0.0,0.0,0.0,0.0,0.0,0.0,0.0,0.0,0.0,0.0,0.0,0.0,0.0,0.0,0.0,0.0,0.0,0.0,0.0,0.0,0.0,0.0,0.0,0.0,0.0,0.0,0.0,0.0,0.0,0.0,0.0,0.0,0.0,0.0,0.0,0.0,0.0,0.0,0.0,0.0,0.0,0.0,0.0,0.0,0.0,0.0,0.0,0.0,0.0,0.0,0.0,0.0,0.0,0.0,0.0,0.0,0.0,0.0,0.0,0.0,0.0,0.0,0.0,5.2671,5.2467,0.0,0.0,0.0,0.0,0.0,0.0,0.0,0.0,0.0,0.0,0.0,0.0,0.0,0.0,0.0,0.0,0.0,0.0,0.0,0.0,0.0,0.0,0.0,4.6147,4.6147,4.6147,4.6147,4.6147,0.0,0.0,0.0,0.0,0.0,0.0,4.6185,4.6207,4.6599,4.7356,4.6775,4.7009,4.7997,4.8383,4.8093,4.7282,4.7548,0.0,0.0,0.0,0.0,0.0,0.0,0.0,0.0,0.0,0.0,0.0,0.0,0.0,0.0,0.0,0.0,0.0,0.0,0.0,0.0,0.0,0.0,0.0,0.0,0.0,0.0,0.0,0.0,0.0,0.0,0.0,0.0,0.0,0.0,0.0,0.0,0.0,0.0,0.0,0.0,0.0,0.0,0.0,0.0,0.0,0.0,0.0,0.0,0.0,0.0,0.0,0.0,0.0,0.0,0.0,0.0,0.0,0.0,0.0,0.0,0.0,0.0,0.0,5.2989,5.2907,5.2907,5.2907,5.3193,5.3626,5.3113,5.3193,5.3606,5.3331,0.0,0.0,0.0,0.0,0.0,0.0,0.0,0.0,0.0,0.0,0.0,0.0,0.0,0.0,0.0,0.0,0.0,0.0,0.0,4.6359,4.6359,4.6359,4.6359,4.6359,4.6359,4.6359,4.6359,0.0,0.0,0.0,0.0,4.7395,4.729,4.7967,4.8579,4.9156,4.9537,4.9774,4.9945,5.0565,5.0669,5.0259,4.866,4.7935,4.7882,0.0,0.0,0.0,0.0,0.0,0.0,0.0,0.0,0.0,0.0,0.0,0.0,0.0,0.0,0.0,0.0,0.0,0.0,0.0,0.0,0.0,0.0,0.0,0.0,0.0,0.0,0.0,0.0,0.0,0.0,0.0,0.0,0.0,0.0,0.0,0.0,0.0,0.0,0.0,0.0,0.0,5.2777,5.3023,0.0,0.0,0.0,0.0,0.0,0.0,0.0,0.0,0.0,0.0,0.0,0.0,0.0,5.3308,5.3407,5.3624,5.3739,5.3777,5.4035,5.4162,5.4162,5.4162,5.4197,5.4285,5.4197,0.0,5.4182,5.4146,0.0,0.0,0.0,0.0,0.0,0.0,0.0,0.0,0.0,0.0,0.0,0.0,0.0,0.0,0.0,0.0,0.0,0.0,0.0,0.0,0.0,4.7458,4.7588,4.7588,4.7736,4.7776,4.7588,4.8006,0.0,0.0,4.8762,4.9172,4.9127,4.9705,5.0198,5.0628,5.1575,5.1809,5.1387,5.181,5.2059,5.2112,5.1223,5.0544,5.0071,4.9942,0.0,0.0,0.0,0.0,0.0,0.0,0.0,0.0,0.0,0.0,0.0,0.0,0.0,0.0,0.0,0.0,0.0,0.0,0.0,0.0,0.0,0.0,0.0,0.0,0.0,0.0,0.0,0.0,0.0,0.0,0.0,0.0,0.0,0.0,0.0,0.0,0.0,0.0,0.0,5.289,5.2959,5.2897,5.2828,5.2757,0.0,0.0,0.0,0.0,0.0,0.0,0.0,0.0,0.0,5.3681,5.3681,5.3776,5.3963,5.4108,5.4232,5.4298,5.4434,5.4571,5.4686,5.4686,5.4686,5.4686,5.4686,5.4654,5.4625,5.4426,5.4359,5.4375,0.0,0.0,0.0,0.0,5.4969,5.5116,0.0,0.0,0.0,0.0,0.0,0.0,0.0,0.0,0.0,0.0,0.0,0.0,4.8309,4.8567,4.8725,4.8727,4.8945,4.9087,4.9041,4.9599,4.9917,4.9873,5.0545,5.0965,5.1028,5.1526,5.1935,5.216,5.3107,5.3271,5.2697,5.2763,5.2947,5.3162,5.3069,5.268,5.2126,5.2078,5.2036,5.203,0.0,0.0,0.0,0.0,0.0,0.0,0.0,0.0,0.0,0.0,0.0,0.0,0.0,0.0,0.0,0.0,0.0,0.0,0.0,0.0,0.0,0.0,0.0,0.0,0.0,0.0,0.0,0.0,0.0,0.0,0.0,0.0,0.0,0.0,0.0,0.0,0.0,5.2893,5.3005,5.2761,5.2984,5.3091,0.0,0.0,0.0,0.0,0.0,0.0,5.3869,5.3739,5.3907,5.4441,5.4459,5.4695,5.5162,5.5162,5.5228,5.5319,5.5319,5.5381,5.5527,5.5527,5.5527,5.5527,5.5527,5.5527,5.5492,5.4808,5.4554,5.4597,5.4847,5.4971,5.5034,5.5235,5.5347,5.5437,0.0,0.0,0.0,0.0,0.0,0.0,0.0,0.0,0.0,0.0,0.0,4.8883,4.919,4.9314,4.9329,4.9268,4.9329,4.9698,5.0447,5.0525,5.0882,5.1635,5.2136,5.2511,5.2758,5.3543,5.3953,5.3971,5.4028,5.403,5.3992,5.3549,5.3367,5.3387,5.3182,5.318,5.3306,5.3044,5.2941,5.2877,5.2322,0.0,0.0,0.0,0.0,0.0,0.0,0.0,0.0,0.0,0.0,0.0,0.0,0.0,0.0,0.0,0.0,0.0,0.0,0.0,0.0,0.0,0.0,0.0,0.0,0.0,0.0,0.0,0.0,0.0,0.0,0.0,0.0,0.0,0.0,0.0,0.0,0.0,0.0,5.3346,5.3547,0.0,0.0,0.0,0.0,5.3868,5.3868,5.403,5.4343,5.4361,5.4851,5.5951,5.5989,5.6383,5.7232,5.7251,5.7251,5.7267,5.7267,5.7267,5.7282,5.7282,5.7282,5.7282,5.7282,5.7282,5.7153,5.553,5.4947,5.508,5.5075,5.5174,5.5277,5.5301,5.5459,5.5692,0.0,0.0,0.0,0.0,0.0,0.0,0.0,0.0,4.9126,4.9218,4.9252,4.9299,4.942,4.9636,4.9792,4.9746,5.0482,5.0977,5.1049,5.2021,5.2635,5.2686,5.3357,5.386,5.4119,5.4403,5.4666,5.4933,5.4666,5.4554,5.4538,5.4067,5.3979,5.4157,5.3925,5.3925,5.4122,5.3528,5.333,5.3431,5.3086,5.2938,0.0,0.0,0.0,0.0,0.0,0.0,0.0,0.0,0.0,0.0,0.0,0.0,0.0,0.0,0.0,0.0,0.0,0.0,0.0,0.0,0.0,0.0,0.0,0.0,0.0,0.0,0.0,0.0,0.0,0.0,0.0,0.0,0.0,0.0,0.0,0.0,0.0,5.374,5.3978,0.0,5.3851,5.4151,5.4576,5.5141,5.5397,5.5787,5.6429,5.6374,5.651,5.6906,5.6941,5.7092,5.7396,5.7396,5.7442,5.7532,5.7532,5.761,5.7715,5.7715,5.7715,5.773,5.7823,5.7838,5.7813,5.7357,5.6976,5.6725,5.7094,5.7249,5.7321,5.7483,5.7616,5.7711,0.0,0.0,0.0,0.0,0.0,0.0,0.0,4.9489,4.9532,4.9664,4.9678,4.9706,4.9832,5.0062,5.019,5.0178,5.1162,5.1828,5.187,5.3143,5.3924,5.3979,5.448,5.4758,5.4791,5.4928,5.5127,5.5403,5.5127,5.499,5.499,5.4538,5.4441,5.4657,5.4432,5.4465,5.4626,5.4051,5.387,5.3907,5.3662,5.3565,5.3545,0.0,0.0,0.0,0.0,0.0,0.0,0.0,0.0,0.0,0.0,0.0,0.0,0.0,0.0,0.0,0.0,0.0,0.0,0.0,0.0,0.0,0.0,0.0,0.0,0.0,0.0,0.0,0.0,0.0,0.0,0.0,0.0,0.0,0.0,5.4238,5.4723,5.4388,5.5016,5.5352,5.501,5.541,5.5939,5.6527,5.6787,5.7139,5.7658,5.761,5.7699,5.7965,5.7965,5.8117,5.8403,5.8403,5.8462,5.8549,5.8549,5.8611,5.8746,5.8788,5.8808,5.8808,5.898,5.9042,5.9053,5.9234,5.9104,5.8746,5.8549,5.8505,5.8565,5.8736,5.8797,5.8797,0.0,0.0,0.0,0.0,0.0,0.0,4.9532,4.9532,4.9664,4.9993,5.0031,5.0155,5.0481,5.0572,5.0582,5.0549,5.134,5.2195,5.2984,5.3867,5.4691,5.5466,5.5444,5.5217,5.4821,5.52,5.5403,5.5403,5.5403,5.5403,5.539,5.499,5.4806,5.4806,5.4673,5.4689,5.4791,5.4657,5.4536,5.439,5.4072,5.3926,5.3889,0.0,0.0,0.0,0.0,0.0,0.0,0.0,0.0,0.0,0.0,0.0,0.0,0.0,0.0,0.0,0.0,0.0,0.0,0.0,0.0,0.0,0.0,0.0,0.0,0.0,0.0,0.0,0.0,0.0,0.0,0.0,0.0,0.0,5.4199,5.5027,5.5638,5.532,5.6668,5.7494,5.7169,5.7601,5.7905,5.7944,5.7944,5.7944,5.7982,5.7982,5.8345,5.9128,5.9133,5.9548,6.0403,6.0403,6.0403,6.0403,6.0403,6.0403,6.0417,6.0553,6.0601,6.0613,6.0817,6.0911,6.0932,6.1049,6.1103,6.0948,5.931,5.8762,5.8875,5.8875,5.8875,5.8875,0.0,0.0,0.0,0.0,0.0,0.0,5.0358,5.0358,5.0445,5.0624,5.0576,5.0586,5.0763,5.073,5.0903,5.146,5.2307,5.3172,5.4026,5.4852,5.5388,5.5554,5.5551,5.5437,5.5249,5.5333,5.5403,5.5403,5.5403,5.5403,5.539,5.5305,5.5246,5.5233,5.5038,5.4976,5.5004,5.4863,5.481,5.473,5.45,5.4399,5.4382,0.0,0.0,0.0,0.0,0.0,0.0,0.0,0.0,0.0,0.0,0.0,0.0,0.0,0.0,0.0,0.0,0.0,0.0,0.0,0.0,0.0,0.0,0.0,0.0,0.0,0.0,0.0,0.0,0.0,0.0,0.0,5.7651,5.7756,5.6422,5.6842,5.7263,5.7167,5.7544,5.7785,5.7692,5.7813,5.8135,5.8727,5.8784,5.9052,5.9682,5.9701,5.9797,6.0026,6.0045,6.016,6.0403,6.0403,6.0403,6.0403,6.0494,6.0553,6.0553,6.0739,6.0817,6.0828,6.0974,6.104,6.1049,6.1244,6.131,6.1271,6.0805,6.0653,6.0694,6.0694,6.0694,6.0694,0.0,0.0,0.0,0.0,0.0,0.0,5.0683,5.0712,5.074,5.0871,5.0825,5.0825,5.093,5.0863,5.1156,5.1987,5.2817,5.3658,5.4535,5.5345,5.5759,5.5689,5.5689,5.5613,5.5444,5.542,5.5402,5.5403,5.5396,5.5403,5.5403,5.5403,5.5403,5.539,5.5273,5.5227,5.5214,5.5042,5.5033,5.5095,5.4893,5.4788,5.4695,5.4468,5.4298,5.4159,5.3907,5.3814,5.3814,5.3814,0.0,0.0,0.0,0.0,0.0,0.0,0.0,0.0,0.0,0.0,0.0,0.0,0.0,0.0,0.0,0.0,0.0,0.0,0.0,0.0,0.0,0.0,0.0,0.0,5.8835,5.8949,5.8536,5.8449,5.8402,5.8402,5.8727,5.8937,5.8937,5.8937,5.9147,5.9606,5.9644,5.9873,6.037,6.0403,6.0403,6.0403,6.0403,6.0403,6.0403,6.0403,6.0425,6.0481,6.0559,6.0638,6.0719,6.0894,6.0974,6.1003,6.1159,6.1236,6.1225,6.1352,6.1393,6.1393,0.0,0.0,0.0,0.0,6.1393,6.1393,0.0,0.0,0.0,0.0,0.0,0.0,5.0673,5.0702,5.0749,5.0894,5.0902,5.0942,5.1008,5.1014,5.1358,5.2218,5.2986,5.3831,5.4796,5.5523,5.5904,5.5831,5.5831,5.5741,5.5558,5.5501,5.5454,5.5437,5.5434,5.5422,5.5396,5.5403,5.5403,5.5403,5.5403,5.5403,5.539,5.5214,5.5227,5.539,5.5214,5.5042,5.4897,5.4723,5.4645,5.4581,5.4455,5.4407,5.4409,5.4409,0.0,0.0,0.0,0.0,0.0,0.0,0.0,0.0,0.0,0.0,0.0,0.0,0.0,0.0,0.0,0.0,0.0,0.0,0.0,0.0,0.0,0.0,0.0,0.0,5.9759,5.9529,6.0288,5.9739,5.9262,5.9262,5.9931,6.0403,6.0403,6.0403,6.0403,6.0403,6.0403,6.0403,6.0403,6.0403,0.0,0.0,0.0,6.0412,6.0412,6.0458,6.0527,6.0626,6.0649,6.0742,6.0923,6.1077,6.112,6.1148,6.131,6.1393,6.1393,6.1393,6.1393,6.1393,6.1393,6.1393,6.1393,6.1393,6.1393,6.1393,0.0,0.0,0.0,0.0,0.0,0.0,5.0613,5.0682,5.0775,5.0953,5.093,5.0958,5.1137,5.1063,5.1352,5.2226,5.3062,5.4213,5.5727,5.598,5.605,5.6044,5.6044,5.5996,5.5901,5.5893,5.5801,5.5633,5.5639,5.5566,5.5402,5.5409,5.5403,5.5403,5.5403,5.5403,5.539,5.5358,5.5358,5.539,5.5364,5.5214,5.5071,5.5023,5.4829,5.4597,5.4565,5.4505,5.4409,5.4409,5.4409,5.4409,5.4409,5.4409,0.0,0.0,0.0,0.0,0.0,0.0,0.0,0.0,0.0,0.0,0.0,0.0,0.0,0.0,0.0,0.0,0.0,0.0,0.0,6.037,6.0255,6.0198,6.037,6.0236,6.0141,6.0141,6.0307,6.0403,6.0403,6.0403,6.0403,6.0403,6.0403,6.0403,6.0403,6.0403,6.0403,6.0403,6.0507,6.0559,6.0559,6.0716,6.0825,6.0839,6.0954,0.0,6.1067,6.1252,6.1344,6.1344,6.1386,6.1393,6.1393,6.1393,6.1393,6.1393,6.1393,6.1393,6.1393,6.1393,6.1393,6.1393,0.0,0.0,0.0,0.0,0.0,0.0,5.0593,5.0702,5.0855,5.0978,5.1027,5.1113,5.1284,5.1245,5.1729,5.303,5.4256,5.5302,5.6153,5.6191,5.6191,5.6191,5.6191,5.6158,5.6051,5.6012,5.5954,5.5852,5.5849,5.5788,5.5639,5.5656,5.5632,5.5596,5.5542,5.5495,5.5502,5.5422,5.5403,5.5403,5.5403,5.5345,5.5227,5.514,5.5009,5.4829,5.4661,5.4568,5.4489,5.4424,5.4409,5.4409,5.4409,5.4409,5.4409,0.0,0.0,0.0,0.0,0.0,0.0,0.0,0.0,0.0,0.0,0.0,0.0,0.0,0.0,6.0375,6.027,0.0,6.0403,6.0403,6.0403,6.0403,6.0403,6.0403,6.0403,6.0403,6.0403,6.0403,6.0403,6.0403,6.0403,6.0403,6.0403,6.0403,6.0403,6.046,6.0494,6.0494,6.0657,6.0762,6.0762,6.085,6.0933,6.0993,6.1067,6.1156,6.1252,6.1352,6.1393,6.1393,6.1393,6.1393,6.1393,6.1393,6.1393,6.1393,6.1393,6.1393,6.1393,6.1393,6.1393,6.1393,0.0,0.0,0.0,0.0,0.0,0.0,5.0542,5.0747,5.092,5.0997,5.1123,5.1252,5.139,5.1394,5.2097,5.3854,5.5139,5.6005,5.6336,5.6356,5.6356,5.6356,5.6356,5.6299,5.6195,5.6135,5.6084,5.6051,5.6022,5.5986,5.5898,5.5889,5.5844,5.5808,5.5696,5.5651,5.5621,5.5531,5.5477,5.5477,5.5477,5.5477,5.5465,5.5255,5.5162,5.5066,5.4799,5.4661,5.4581,5.4472,5.4424,5.4409,5.4409,5.4409,5.4409,5.4409,5.4407,0.0,0.0,0.0,0.0,0.0,0.0,0.0,0.0,5.8627,5.9725,5.9077,5.9712,6.0403,6.0403,6.0403,6.0403,6.0403,6.0403,6.0403,6.0403,6.0403,6.0403,6.0403,6.0403,6.0403,6.0403,6.0403,6.0403,6.0403,6.0403,6.0417,6.0439,6.054,6.0613,6.0669,6.085,6.0933,6.0933,6.0983,6.1041,6.1156,6.1156,6.1244,6.1393,6.1393,6.1393,6.1393,6.1393,6.1393,6.1393,6.1393,6.1393,6.1393,6.1393,6.1393,6.1393,6.1393,6.1393,6.1393,0.0,0.0,0.0,0.0,0.0,0.0,0.0,0.0,5.0856,5.0985,5.1113,5.1252,5.139,5.1394,5.2097,5.3854,5.4162,5.4918,5.646,5.6577,5.6577,5.6577,5.6577,5.6555,5.655,5.6478,5.6386,5.6278,5.6142,5.6013,5.5902,5.5846,5.5808,5.5798,5.5779,5.5789,5.5789,5.5769,5.5759,5.5759,5.5759,5.5759,5.5739,5.5599,5.5371,5.5094,5.5066,5.4859,5.4597,5.4581,5.4505,5.4409,5.4409,5.4409,5.4409,5.4409,5.4489,5.4581,5.4597,5.4814,5.5071,5.518,5.5957,5.67,0.0,5.7998,5.9196,5.9101,5.9783,6.0403,6.0403,6.0403,6.0403,6.0403,6.0403,6.0403,6.0403,6.0403,6.0403,6.0403,6.0403,6.0403,6.0403,6.0403,6.0403,6.0403,6.0403,6.0447,6.0571,6.0577,6.0673,6.086,6.1002,6.1076,6.1076,6.1244,6.1344,6.1378,6.1378,6.1386,6.1393,6.1393,6.1393,6.1393,6.1393,6.1393,6.1393,6.1393,6.1393,6.1393,6.1393,6.1393,6.1393,6.1393,6.1393,6.1393,0.0,0.0,0.0,0.0,0.0,0.0,0.0,0.0,5.0781,5.0918,5.1064,5.1194,5.132,5.1798,5.2383,5.3124,5.365,5.445,5.5659,5.5737,5.5952,5.6459,5.6478,5.6478,5.6478,5.6461,5.6418,5.6359,5.6305,5.6224,5.6121,5.6095,5.6078,5.6091,5.5971,5.5917,5.5909,5.5827,5.5798,5.5798,5.5798,5.5798,5.5789,5.5739,5.5635,5.547,5.5197,5.5023,0.0,5.4676,5.4549,5.4486,5.4424,5.4439,5.4519,5.4519,5.4632,5.4788,5.4859,5.5085,5.5388,5.5859,5.628,5.6721,5.7237,5.8268,5.9095,5.9095,5.9797,6.0403,6.0403,6.0403,6.0403,6.0403,6.0403,6.0403,6.0403,6.0403,6.0403,6.0403,6.0403,6.0403,6.0403,6.0403,6.0403,6.0403,6.0474,6.054,6.0589,6.0779,6.0925,6.1002,6.1184,6.1268,6.1268,6.1352,6.1393,6.1393,6.1393,6.1393,6.1393,6.1393,6.1393,6.1393,6.1393,6.1393,6.1393,6.1393,6.1393,6.1393,6.1393,6.1393,6.1393,6.1393,6.1393,6.1393,0.0,0.0,0.0,0.0,0.0,0.0,0.0,0.0,0.0,0.0,5.0927,5.1108,5.1273,5.1865,5.2337,5.2571,5.3175,5.3896,5.4714,5.4987,5.5377,5.602,5.6273,5.6409,5.6409,5.6377,5.6368,5.6368,5.6373,5.6349,5.6306,5.6306,5.6302,5.6291,5.6151,5.6067,5.6087,5.5971,5.5937,5.5937,5.5937,5.5937,5.5928,5.5892,5.5855,5.5808,5.5394,5.5197,5.5111,5.488,5.4776,5.47,5.4565,5.4629,5.4716,5.4645,5.4773,5.4985,5.514,5.5286,5.5536,5.611,5.6262,5.6492,5.7351,5.8173,5.8842,5.9038,5.9797,6.0403,6.0403,6.0403,6.0403,6.0403,6.0403,6.0403,6.0403,6.0403,6.0403,6.0403,6.0403,6.0403,6.0403,6.0403,6.0417,6.0447,6.0553,6.0638,6.0723,6.0964,6.1139,6.1173,6.1318,6.1276,6.105,6.1276,6.1276,6.105,6.1296,6.1393,6.1393,6.1393,6.1393,6.1393,6.1393,6.1393,6.1393,6.1393,6.1393,6.1393,6.1393,6.1393,6.1393,6.1393,6.1393,6.1393,0.0,0.0,0.0,0.0,0.0,0.0,0.0,0.0,0.0,0.0,0.0,5.1006,5.1269,5.132,5.1671,5.2532,5.261,5.2999,5.3876,5.4675,5.5104,5.5143,5.5942,5.6409,5.6409,5.6339,5.6294,5.6294,5.629,5.6298,5.6298,5.6298,5.6298,5.6291,5.6291,5.6291,5.6291,5.6285,5.6285,5.6285,5.6285,5.6285,5.6252,5.6079,5.5993,5.596,5.5667,5.5466,5.5287,5.5287,5.518,5.5067,5.4933,5.4971,5.5026,5.4704,5.4829,5.514,5.5332,5.539,5.5422,5.5441,5.5441,5.5651,5.6454,5.7313,5.8154,5.8937,5.9797,6.0403,6.0403,6.0403,6.0403,6.0403,6.0403,6.0403,6.0403,6.0403,6.0403,6.0403,6.0403,6.0403,6.0403,6.0403,6.0447,6.0577,6.0589,6.0734,6.1076,6.1094,6.1192,6.1386,6.1393,6.0992,6.0157,6.0992,6.0992,6.0157,6.1011,6.1393,6.1393,6.1393,6.1393,6.1393,6.1393,6.1393,6.1393,6.1393,6.1393,6.1393,6.1393,6.1393,6.1393,6.1393,6.1393,6.1393,0.0,0.0,0.0,0.0,0.0,0.0,0.0,0.0,0.0,0.0,0.0,0.0,0.0,0.0,0.0,0.0,5.1606,5.1967,5.2858,5.3149,5.3563,5.4147,5.4458,5.4886,5.5464,5.5441,5.572,5.6309,5.6304,5.6291,5.6291,5.6291,5.6291,5.6291,5.6291,5.6291,5.6291,5.6291,5.6291,5.6291,5.6246,5.6252,5.6285,5.6185,5.6158,5.6178,0.0,5.576,5.5628,5.5522,5.5466,5.5401,5.5218,5.5298,5.5431,5.5401,5.5345,5.5339,5.5495,5.5465,5.5403,5.5403,5.5403,5.5613,5.6415,5.7275,5.8135,5.8923,5.9797,6.0403,6.0403,6.0403,6.0403,6.0403,6.0403,6.0403,6.0403,6.0403,6.0403,6.0403,6.0403,6.0403,6.0403,6.0403,6.0466,6.0596,6.0708,6.0883,6.1085,6.1236,6.1065,6.0545,6.0545,6.0118,5.9244,5.9535,5.9827,6.0118,6.0992,6.1393,6.1393,6.1393,6.1393,6.1393,6.1393,6.1393,6.1393,6.1393,6.1393,6.1393,6.1393,6.1393,6.1393,6.1393,6.1441,6.1376,0.0,0.0,0.0,0.0,0.0,0.0,0.0,0.0,0.0,0.0,0.0,0.0,0.0,0.0,0.0,0.0,0.0,5.1189,5.1753,5.2149,5.2609,5.3172,5.3502,5.3929,5.4492,5.4511,5.4789,5.5366,5.5663,5.5799,5.5806,5.6116,5.6252,5.6272,5.6285,5.6285,5.6252,5.6252,5.6252,5.6252,5.6225,5.6239,5.6291,5.6246,5.6252,0.0,5.6151,5.6056,5.5954,5.5798,5.5731,5.5711,5.5521,5.5538,5.5628,5.576,5.5686,5.5558,5.5643,5.5581,5.5465,5.5465,5.5434,5.5536,5.6052,5.6836,5.7676,5.8498,5.9357,6.0026,6.0346,6.0403,6.0403,6.0403,6.0403,6.0403,6.0403,6.0403,6.0403,6.0403,6.0403,6.0403,6.0403,6.0403,6.0487,6.0692,6.0828,6.0983,6.12,6.1026,6.0681,6.0118,5.9807,5.9224,5.837,5.8661,5.9244,6.0099,6.0689,6.1123,6.1434,6.1441,6.1434,6.1434,6.1434,6.1434,6.1434,6.1447,6.1434,6.1434,6.1407,6.1408,6.1434,6.1434,6.1481,6.1417,0.0,0.0,0.0,0.0,0.0,0.0,0.0,0.0,0.0,0.0,0.0,0.0,0.0,0.0,0.0,0.0,0.0,0.0,5.0687,5.1645,5.2218,5.2218,5.302,5.3492,5.3531,5.3531,5.3591,5.3695,5.4456,5.4825,5.4853,5.5668,5.6063,5.6063,5.6175,5.6194,5.6141,5.6179,5.6199,5.6199,5.6199,5.6239,5.6291,5.6291,5.6291,5.6291,5.6291,5.6291,5.6278,5.6087,5.6028,5.5993,5.5879,5.5721,5.5649,5.5789,5.5808,5.5798,5.5808,5.5708,5.5607,5.5596,5.5495,5.5416,5.5403,5.6014,5.6836,5.7714,5.8536,5.9376,6.0236,6.0403,6.0403,6.0403,6.0403,6.0403,6.0403,6.0403,6.0403,6.0403,6.0403,6.0403,6.0403,6.0403,6.054,6.086,6.0911,6.1022,6.132,6.0538,6.006,5.9963,5.9166,5.835,5.7541,5.8338,5.9153,5.9969,6.0079,6.0594,6.1431,6.1446,6.1451,6.149,6.149,6.149,6.1505,6.1498,6.1495,6.149,6.1428,6.1445,6.15,6.15,6.1517,6.1405,0.0,0.0,0.0,0.0,0.0,0.0,0.0,0.0,0.0,0.0,0.0,0.0,0.0,0.0,0.0,0.0,0.0,0.0,5.0411,5.0862,5.112,5.112,5.1509,5.2012,5.262,5.2639,5.2949,5.3622,5.3829,5.3926,5.3933,5.4166,5.4262,5.4282,5.4968,5.5259,5.5271,5.5923,5.6194,5.6194,5.6194,5.6216,5.6232,5.6232,5.6252,5.6291,5.6291,5.6291,5.6291,5.6239,5.6213,5.6232,5.6172,5.6044,5.5935,5.6121,5.5999,5.5817,5.5926,5.5845,5.5719,5.561,5.5562,5.5531,5.5409,5.6014,5.6836,5.7714,5.8536,5.9376,6.0236,6.0403,6.0403,6.0403,6.0403,6.0403,6.0403,6.0403,6.0403,6.0403,6.0403,6.0403,6.0403,6.0403,6.054,6.086,6.0911,6.0722,6.0303,6.0172,5.9535,5.8279,5.8027,5.7502,5.6641,5.7488,5.8011,5.8245,5.8967,5.9752,6.0609,6.0604,6.0921,6.149,6.149,6.149,6.1495,6.1495,6.151,6.149,6.1484,6.1483,6.1493,6.1493,6.1127,6.0505,0.0,0.0,0.0,0.0,0.0,0.0,0.0,0.0,0.0,0.0,0.0,0.0,0.0,0.0,0.0,0.0,0.0,0.0,0.0,5.0295,5.0459,5.048,5.067,5.1024,5.1551,5.1633,5.193,5.2456,5.2809,5.3003,5.3037,5.3432,5.3606,5.3626,5.4105,5.4524,5.4897,5.5382,5.5808,0.0,0.0,5.618,5.6197,5.6197,5.6223,5.6264,5.6264,5.6264,5.6264,5.6264,5.6258,5.6252,5.6252,5.6199,5.6151,5.6278,5.617,5.6032,5.6102,5.6012,5.5864,5.5779,5.5686,5.5593,5.5495,5.5791,5.6415,5.7657,5.8268,5.8956,6.016,6.0403,6.0403,6.0403,6.0403,6.0403,6.0403,6.0403,6.0403,6.0403,6.0403,6.0403,6.0403,6.0431,6.0553,6.079,6.0505,6.0249,6.0041,5.9374,5.857,5.7637,5.7229,5.6788,5.6296,5.6798,5.7233,5.7644,5.8202,5.8905,5.9724,5.9763,6.0219,6.1022,6.1022,6.1237,6.1591,6.1568,6.1542,6.1544,6.1507,6.152,6.1504,6.1113,6.0718,6.0165,0.0,0.0,0.0,0.0,0.0,0.0,0.0,0.0,0.0,0.0,0.0,0.0,0.0,0.0,0.0,0.0,0.0,0.0,0.0,0.0,5.0056,5.0123,5.0262,5.038,5.0508,5.0699,5.0839,5.0921,5.1644,5.2028,5.214,5.2895,5.3251,5.3251,5.3366,5.3805,5.4463,5.4696,5.5238,5.5935,5.6051,5.6141,5.6191,0.0,5.6199,5.6199,5.6199,5.6199,5.6199,5.6191,5.6182,5.6199,5.6199,5.6246,5.6291,5.6291,5.6291,5.6291,5.6291,5.6165,5.6036,5.6001,5.5798,5.5629,5.5607,5.5502,5.588,5.7542,5.7905,5.8402,6.0083,6.0403,6.0403,6.0403,6.0403,6.0403,6.0403,6.0403,6.0403,6.0403,6.0403,6.0417,6.0417,6.0493,6.0545,6.0586,5.9899,5.9624,5.9969,5.8476,5.7548,5.7431,5.6703,5.6305,5.6305,5.6329,5.6743,5.754,5.7606,5.8052,5.8832,5.8897,5.9397,6.0237,6.0222,6.0651,6.1369,6.1411,6.1435,6.1433,6.1364,6.1385,6.133,6.0451,6.0098,5.9836,0.0,0.0,0.0,0.0,0.0,0.0,0.0,0.0,0.0,0.0,4.8458,4.9133,0.0,0.0,0.0,0.0,0.0,0.0,0.0,0.0,0.0,4.9693,4.9886,4.9997,5.0028,5.0149,5.0325,5.05,5.0741,5.0977,5.1146,5.1301,5.1378,5.1397,5.2129,5.2516,5.2759,5.4191,5.4879,5.51,5.5811,5.6098,5.6114,5.6184,0.0,0.0,5.6199,5.6199,5.6191,5.6141,5.616,5.6199,5.6199,5.6246,5.6291,5.6291,5.6291,5.6291,5.6291,5.6278,5.6206,5.6044,5.5882,5.5739,5.5629,5.5502,5.588,5.7542,5.7905,5.8402,6.0083,6.0403,6.0403,6.0403,6.0403,6.0403,6.0403,6.0403,6.0403,6.0403,6.0444,6.0485,6.0485,6.0638,6.0534,5.9987,5.9258,5.8893,5.8964,5.8091,5.7276,5.6542,5.6432,5.6377,5.6377,5.6449,5.6546,5.6709,5.6782,5.7224,5.8004,5.8029,5.8499,5.9339,5.9323,5.9418,5.9599,6.0268,6.055,6.06,6.0531,6.0527,6.0418,5.9541,5.8773,5.8137,0.0,0.0,0.0,0.0,0.0,0.0,0.0,4.6328,4.6595,4.6809,4.7578,4.8252,4.8587,4.8658,4.8801,0.0,0.0,0.0,0.0,0.0,0.0,4.9396,4.9537,4.9668,4.9733,4.9917,5.0028,5.0138,0.0,5.0295,5.0371,5.0558,5.0634,5.0673,5.1269,5.1763,5.2208,5.3083,5.3962,5.4832,5.5263,5.5678,5.6046,5.6082,0.0,0.0,5.609,5.609,5.609,5.6098,5.6122,5.6141,5.6182,5.6218,5.6252,5.6285,5.6291,5.6291,5.6291,5.6291,5.6278,5.6185,5.602,5.5864,5.5729,5.5596,5.5968,5.7569,5.7905,5.8402,6.0083,6.0403,6.0403,6.0403,6.0403,6.0403,6.0403,6.0403,6.0403,6.0444,6.0485,6.0512,6.0552,6.0742,6.0577,5.9897,5.9199,5.8645,5.8256,5.7473,5.6834,5.6429,5.6409,5.6418,5.6457,5.6475,5.6511,5.6548,5.658,5.6801,5.7172,5.7172,5.7621,5.8421,5.8417,5.8676,5.9129,5.9524,5.966,5.9675,5.9642,5.962,5.9522,5.8646,5.8066,5.7695,0.0,0.0,0.0,0.0,0.0,0.0,0.0,4.6283,4.6572,4.6731,4.7074,4.7559,4.8143,4.8083,4.8233,0.0,0.0,0.0,0.0,0.0,0.0,0.0,0.0,0.0,4.9435,0.0,0.0,4.9796,4.9828,0.0,0.0,0.0,0.0,0.0,5.0558,5.1076,5.1757,5.1985,5.2898,0.0,0.0,5.5163,5.5743,0.0,0.0,0.0,0.0,5.6012,5.6029,5.6073,5.6098,5.6133,5.6191,5.6209,5.6206,5.6285,5.6291,5.6291,5.6291,5.6291,5.6291,5.6291,5.6151,5.5968,5.5827,5.5707,5.6038,5.7582,5.7905,5.8402,6.0083,6.0403,6.0403,6.0403,6.0403,6.0403,6.0403,6.0403,6.0417,6.0499,6.0512,6.0559,6.0654,6.0689,6.0425,5.9735,5.8895,5.8153,5.7554,5.6872,5.6501,5.6501,5.6464,5.6468,5.6514,5.6514,5.6545,5.6606,5.6606,5.6606,5.6606,5.6606,5.6938,5.7543,5.7532,5.7913,5.8589,5.8746,5.8785,5.8744,5.8738,5.8724,5.8626,5.7754,5.7559,5.7695,0.0,0.0,0.0,0.0,0.0,0.0,0.0,4.6573,4.6842,4.7516,4.7613,4.7874,4.8476,4.7808,4.7494,0.0,0.0,0.0,0.0,0.0,0.0,0.0,0.0,0.0,0.0,0.0,0.0,4.9445,4.9575,0.0,0.0,0.0,0.0,0.0,0.0,5.021,5.06,5.134,0.0,0.0,0.0,0.0,0.0,0.0,0.0,0.0,0.0,5.6037,5.6082,5.6029,5.609,5.6191,5.6199,5.6209,5.6206,5.6285,5.6291,5.6291,5.6291,5.6291,5.6291,5.6291,5.6151,5.5968,5.5827,5.5707,5.6038,5.7582,5.7905,5.8402,6.0083,6.0403,6.0403,6.0403,6.0403,6.0403,6.0403,6.0403,6.0417,6.0499,6.0552,6.0659,6.0845,6.0392,5.9776,5.9041,5.7632,5.6765,5.6621,5.654,5.6501,5.6501,5.6548,5.658,5.6582,5.6582,5.6584,5.6606,5.6606,5.6606,5.6606,5.6606,5.6645,5.6706,5.665,5.6708,5.6889,5.7623,5.7916,5.7893,5.7836,5.7812,5.7715,5.6916,5.7072,5.7695,0.0,0.0,0.0,0.0,0.0,0.0,4.6442,4.6985,4.7389,4.7655,4.7689,4.7782,4.8047,4.7718,4.7681,4.8107,0.0,0.0,0.0,0.0,0.0,0.0,0.0,0.0,0.0,0.0,4.901,4.9104,4.9155,0.0,0.0,0.0,0.0,0.0,0.0,4.9974,5.0111,5.0446,0.0,0.0,0.0,0.0,0.0,0.0,0.0,0.0,0.0,0.0,5.6037,5.6065,5.609,5.6149,5.6182,5.6204,5.6206,5.6285,5.6291,5.6291,5.6291,5.6291,5.6291,5.6291,5.6239,5.6102,5.5865,5.5769,5.6135,5.7589,5.7905,5.8402,6.0083,6.0403,6.0403,6.0403,6.0403,6.0403,6.0403,6.0431,6.0485,6.0552,6.0688,6.083,6.0954,6.0932,6.0375,5.9121,5.7509,5.6582,5.655,5.655,5.655,5.655,5.658,5.6606,5.6606,5.6606,5.6606,5.6606,5.6606,5.6606,5.6606,5.6606,5.6606,5.6606,5.6579,5.6548,5.6555,5.6888,5.7024,5.7014,5.6987,5.6974,5.6935,5.6624,5.7013,5.7773,0.0,0.0,0.0,0.0,0.0,4.5687,4.6502,4.7257,4.7815,4.802,4.826,4.839,4.839,4.839,4.8394,4.8451,4.8496,0.0,0.0,0.0,0.0,0.0,0.0,0.0,0.0,0.0,4.8891,4.8874,4.8891,4.8909,0.0,0.0,4.9257,4.9255,0.0,0.0,0.0,0.0,0.0,0.0,0.0,0.0,0.0,0.0,0.0,0.0,0.0,0.0,0.0,0.0,0.0,5.6106,5.6182,5.6211,5.6206,5.6285,5.6291,5.6291,5.6291,5.6291,5.6291,5.6291,5.6272,5.6136,5.5855,5.5779,5.6156,5.7602,5.7905,5.8402,6.0083,6.0403,6.0403,6.0403,6.0403,6.0403,6.0403,6.0444,6.0499,6.0591,6.0735,6.0884,6.1027,6.09,6.0207,5.8829,5.7406,5.6606,5.6606,5.6606,5.6606,5.6606,5.6606,5.6606,5.6606,5.6606,5.6606,5.6606,5.6606,5.6606,5.6606,5.6577,5.6575,5.6606,5.6577,5.6548,5.6536,5.6502,5.6506,5.6502,5.65,5.6507,5.6526,5.678,5.7384,5.8217,0.0,0.0,0.0,0.0,0.0,0.0,4.6515,4.734,4.8054,4.8795,4.9526,4.9993,4.9993,4.9993,4.9666,4.8855,4.791,0.0,0.0,0.0,0.0,0.0,0.0,0.0,0.0,0.0,4.8856,4.8787,4.8856,4.8909,4.8909,4.8909,4.8909,4.8909,0.0,0.0,0.0,0.0,0.0,0.0,0.0,0.0,5.5243,0.0,0.0,0.0,0.0,0.0,0.0,0.0,0.0,0.0,0.0,5.6209,5.6206,5.6285,5.6291,5.6291,5.6291,5.6291,5.6291,5.6291,5.6151,5.5968,5.5827,5.5707,5.6049,5.7582,5.7905,5.8402,6.0083,6.0403,6.0403,6.0403,6.0403,6.0403,6.0403,6.0403,6.0444,6.0578,6.0604,6.0762,6.117,5.9938,5.8751,5.7875,5.7055,5.6606,5.6606,5.6606,5.6606,5.6606,5.6606,5.6606,5.6606,5.6606,5.6606,5.6606,5.6606,5.6606,5.6606,5.6534,5.6533,5.6608,5.6535,5.6533,5.6591,5.6523,5.6495,5.649,5.6494,5.6507,5.6604,5.7384,5.8237,5.9113,0.0,0.0,0.0,0.0,0.0,0.0,0.0,4.8094,4.8829,4.9555,4.986,5.0011,5.0011,5.0011,4.9907,4.9648,4.9147,0.0,0.0,0.0,0.0,0.0,0.0,0.0,0.0,0.0,4.8495,4.8787,4.8856,4.8909,4.8909,4.8909,4.8909,4.8909,4.8909,4.8959,0.0,0.0,0.0,0.0,0.0,5.3427,5.5205,0.0,0.0,0.0,0.0,0.0,0.0,0.0,0.0,0.0,0.0,0.0,0.0,5.6232,5.6291,5.6291,5.6291,5.6291,5.6291,5.6291,5.6246,5.6129,5.5855,5.6232,5.6876,5.7723,5.8345,5.9071,6.0179,6.0403,6.0403,6.0403,6.0403,6.0403,6.0403,6.0546,6.07,6.0734,6.1018,6.1305,6.1526,6.0606,5.9631,5.8753,5.7894,5.7172,5.6626,5.6606,5.6606,5.6606,5.6606,5.6606,5.6606,5.6606,5.6606,5.6606,5.6606,5.6606,5.6606,5.6534,5.6519,5.6534,5.65,5.6519,5.6535,5.6503,5.6503,5.6493,5.6492,5.6835,5.7345,5.7617,5.8626,5.9932,0.0,0.0,0.0,0.0,0.0,0.0,0.0,4.8095,4.8776,4.9483,4.983,5.0011,5.0011,5.0011,5.0011,5.0011,4.984,0.0,0.0,0.0,0.0,0.0,0.0,0.0,4.7638,4.7939,4.8231,4.8495,4.8768,4.8891,4.8856,4.8891,4.8909,4.8909,4.8909,4.8909,0.0,0.0,0.0,0.0,5.1952,5.3131,5.4919,0.0,0.0,0.0,0.0,0.0,0.0,0.0,0.0,0.0,0.0,0.0,0.0,0.0,5.6064,5.6148,5.6272,5.6291,5.6291,5.6291,5.6192,5.6067,5.5856,5.6393,5.7094,5.7767,5.8536,5.9376,6.0236,6.0403,6.0403,6.0403,6.0403,6.0425,6.0501,6.0646,6.0806,6.0906,6.1266,6.1532,6.1621,6.0888,6.0178,5.9631,5.8773,5.7933,5.7094,5.7055,5.6918,5.6606,5.6606,5.6606,5.6606,5.6606,5.6606,5.6606,5.6606,5.6593,5.6564,5.6522,5.6504,5.6504,5.6502,5.6503,0.0,5.6504,5.6502,5.6493,5.6504,5.6985,5.7734,5.8066,5.9094,6.0341,0.0,0.0,0.0,0.0,0.0,0.0,0.0,4.7456,4.8176,4.89,4.9573,5.0011,5.0011,5.0011,5.0011,5.0011,0.0,0.0,0.0,0.0,0.0,0.0,0.0,0.0,4.7258,4.7754,4.8035,4.8012,4.8605,4.8856,4.8804,4.8874,4.8909,4.8909,4.8909,4.8909,0.0,0.0,0.0,0.0,5.1772,5.2847,0.0,0.0,0.0,0.0,0.0,0.0,0.0,0.0,0.0,0.0,0.0,0.0,0.0,0.0,0.0,0.0,0.0,5.6278,5.6278,5.6272,5.604,5.5837,5.5876,5.6329,0.0,5.7817,5.8658,5.9448,6.025,6.0417,6.0412,6.0412,6.0439,6.0514,6.0707,6.0743,6.0857,6.1116,6.1365,6.15,6.15,6.0887,6.0471,6.0393,5.9651,5.8812,5.7933,5.7894,5.7543,5.6801,5.6723,5.6665,5.6606,5.6606,5.6606,5.6606,5.6606,5.6563,5.6501,5.6502,5.6495,5.6494,5.6506,5.6506,5.6503,5.6501,5.6496,5.6512,5.6565,5.7089,5.7895,5.8767,5.9639,6.0516,0.0,0.0,0.0,0.0,0.0,0.0,0.0,0.0,0.0,0.0,4.9906,5.0011,5.0011,5.0011,5.0011,0.0,0.0,0.0,0.0,0.0,0.0,0.0,0.0,0.0,4.7404,4.7429,4.7635,4.8075,4.8623,4.8891,4.8874,4.8891,4.8909,4.8909,4.8909,4.8909,0.0,0.0,0.0,0.0,5.2353,5.3317,0.0,0.0,0.0,0.0,5.4568,5.4581,0.0,0.0,0.0,0.0,0.0,0.0,0.0,0.0,5.569,5.5808,5.5901,0.0,5.6044,5.5945,5.6048,5.6288,0.0,5.7487,5.8297,5.8906,5.9702,6.0284,6.0373,6.054,6.0623,6.0623,6.0766,6.0877,6.0912,6.1108,6.1328,6.1537,6.1609,6.164,6.164,6.1498,6.1115,6.0451,6.0217,5.971,5.8831,5.8792,5.8714,5.8517,5.7875,5.7211,5.6606,5.6606,5.6606,5.6606,5.6606,5.6591,5.6579,5.6523,5.6495,5.6494,5.6506,5.6499,5.6499,5.6503,5.6503,5.6572,5.7231,5.7992,5.8809,5.9681,6.0555,6.1315,0.0,0.0,0.0,0.0,0.0,0.0,0.0,0.0,0.0,0.0,0.0,0.0,0.0,0.0,0.0,0.0,0.0,0.0,0.0,0.0,0.0,0.0,0.0,4.7584,4.7278,4.7622,4.7789,4.7797,4.8532,4.8891,4.8839,4.8891,4.8909,4.8909,4.8909,4.913,0.0,0.0,0.0,5.2328,5.276,0.0,0.0,0.0,0.0,0.0,5.4409,5.4409,0.0,5.4409,5.4409,5.4424,0.0,0.0,0.0,0.0,5.5442,5.5618,5.5618,5.5759,5.5891,5.5817,5.5937,5.6256,5.6937,5.7825,5.8703,5.9359,6.0173,6.0708,6.0681,6.0768,6.0962,6.137,6.1201,6.1023,6.1123,6.1362,6.1568,6.1637,6.1674,6.1698,6.1698,6.1698,6.1503,6.1037,6.0998,6.0627,5.9749,5.971,5.9514,5.9102,5.8636,5.7992,5.7153,5.6782,5.6606,5.6606,5.6606,5.6575,5.6548,5.6523,5.6498,5.6497,5.6497,5.6506,5.6492,5.6508,5.6496,5.6592,5.7459,5.8282,5.9117,5.9977,6.0847,6.1607,0.0,0.0,0.0,0.0,0.0,0.0,0.0,0.0,0.0,0.0,0.0,0.0,0.0,0.0,0.0,0.0,0.0,0.0,0.0,0.0,0.0,0.0,4.9076,4.8556,4.7378,4.811,4.8193,4.7587,4.8476,4.8874,4.8822,4.8874,4.8964,4.9076,4.9112,4.961,0.0,0.0,5.1588,5.3016,5.3147,0.0,0.0,0.0,0.0,0.0,0.0,0.0,0.0,5.4409,5.4409,5.4409,5.4409,0.0,0.0,0.0,0.0,0.0,5.5403,5.557,5.5749,5.575,5.5933,5.6308,5.713,5.8008,5.8868,5.9678,6.0421,6.0934,6.0983,6.103,6.1286,6.2044,6.157,6.1174,6.1342,6.1561,6.1671,6.1628,6.1666,6.1698,6.1698,6.1698,6.1698,6.1698,6.1698,6.1388,6.0646,6.0607,6.0256,5.9512,5.9378,5.8948,5.8207,5.7387,5.6977,5.6977,5.686,5.6756,5.6694,5.656,5.6502,5.6497,5.6492,5.6503,5.6497,5.6506,5.6589,5.6786,5.7653,5.8482,5.9321,6.0176,6.0964,6.1607,0.0,0.0,0.0,0.0,0.0,0.0,0.0,0.0,0.0,0.0,0.0,0.0,0.0,0.0,0.0,0.0,0.0,0.0,0.0,0.0,0.0,4.9987,4.9409,4.9042,4.8953,4.8639,4.8486,4.8504,4.8771,4.8891,4.8891,4.8891,4.9262,4.993,5.0018,5.0536,5.1373,5.2169,5.2686,5.3053,5.3802,0.0,0.0,0.0,0.0,0.0,0.0,0.0,0.0,5.4409,5.4409,5.4409,5.4409,0.0,0.0,0.0,0.0,0.0,5.5403,5.5422,5.549,5.5596,5.6471,5.7504,5.8217,5.9126,6.0038,6.0726,6.097,6.1058,6.1002,6.1139,6.1324,6.1509,6.1571,6.1609,6.1637,6.1671,6.1698,6.1693,6.1696,6.1698,6.1698,6.1698,6.1698,6.1698,6.1698,6.164,6.1503,6.1503,6.1444,6.1308,6.0588,6.0139,6.0002,5.9143,5.8712,5.8712,5.7972,5.7604,5.7571,5.6849,5.6504,5.6508,5.6502,5.6504,5.6504,5.6491,5.6922,5.7686,5.8495,5.9378,6.0272,6.1109,6.149,6.1607,0.0,0.0,0.0,0.0,0.0,0.0,0.0,0.0,0.0,0.0,0.0,0.0,0.0,0.0,0.0,0.0,0.0,0.0,0.0,0.0,5.0246,5.0285,5.0067,4.9885,4.9776,4.9847,4.9862,4.9781,5.0102,5.0246,5.0246,5.0246,5.045,5.0803,5.0892,5.1445,5.23,5.2761,5.3259,5.3778,0.0,0.0,0.0,0.0,0.0,0.0,0.0,0.0,0.0,0.0,5.4409,5.4409,5.4409,0.0,0.0,0.0,0.0,0.0,5.5403,5.544,5.5535,5.5675,5.6521,5.7542,5.8411,5.9415,6.0365,6.1108,6.1289,6.1305,6.1285,6.1373,6.1476,6.1541,6.2031,6.2223,6.1718,6.1671,6.1693,6.164,6.1671,6.1698,6.1698,6.1698,6.1698,6.1698,6.1698,6.1698,6.1698,6.1698,6.1698,6.1698,6.131,6.1095,6.1095,6.0703,6.002,5.9102,5.8695,5.8499,5.8499,5.8084,5.7654,5.7198,5.7208,5.6938,5.6507,5.6496,5.7007,5.7879,5.8683,5.9544,6.0449,6.1292,6.1607,6.1607,0.0,0.0,0.0,0.0,0.0,0.0,0.0,0.0,0.0,0.0,0.0,0.0,0.0,0.0,0.0,0.0,0.0,0.0,0.0,5.0274,5.0341,5.0453,5.0592,5.0549,5.0307,5.082,5.0987,5.0787,5.1193,5.1398,5.1398,5.1398,5.1491,5.1676,5.1766,5.232,5.3175,5.328,5.374,5.4409,0.0,0.0,0.0,0.0,0.0,0.0,0.0,0.0,0.0,0.0,0.0,0.0,0.0,0.0,0.0,5.4946,5.5165,5.5403,5.5403,5.5477,5.5642,5.602,5.6792,5.7678,5.8479,5.9614,6.068,6.1298,6.1468,6.1495,6.1524,6.1584,6.1634,6.1696,6.2267,6.2435,6.1729,6.1668,6.1671,6.1631,6.1668,6.1698,6.1698,6.1698,6.1698,6.1698,6.1698,6.1698,6.1698,6.1698,6.1698,6.1698,6.1698,6.1698,6.1698,6.1698,6.1035,5.9707,5.9495,5.9397,5.9397,5.9191,5.8745,5.8098,5.8093,5.7707,5.7072,5.6877,5.742,5.8437,5.8838,5.9654,6.0698,6.1353,6.1607,6.1607,0.0,0.0,0.0,0.0,0.0,0.0,0.0,0.0,0.0,0.0,0.0,0.0,0.0,0.0,0.0,0.0,0.0,0.0,0.0,5.0436,5.0575,5.0602,5.0774,5.0766,5.0579,5.0909,5.1099,5.1076,5.1278,5.1398,5.1398,5.1398,5.1806,5.2512,5.2695,5.3249,5.4015,5.421,5.4352,5.4409,5.4409,0.0,0.0,0.0,0.0,0.0,0.0,0.0,0.0,0.0,0.0,0.0,0.0,0.0,5.4931,5.5038,5.5227,5.5403,5.5403,5.5403,5.5669,5.6741,5.7764,5.8556,5.881,6.0194,6.1417,6.149,6.1505,6.1524,6.1584,6.1657,6.1696,6.1698,6.1757,6.1776,6.1696,6.1698,6.1698,6.1696,6.1698,6.1698,6.1698,6.1698,6.1698,6.1698,6.1698,6.1698,6.1698,6.1698,6.1698,6.1698,6.1698,6.1698,6.1698,6.1698,6.164,6.1503,6.0686,6.0315,6.0278,5.9465,5.9062,5.8995,5.8948,5.8884,5.8763,5.7949,5.8589,6.0057,5.9284,6.0038,6.1519,6.1573,6.1607,6.1607,0.0,0.0,0.0,0.0,0.0,0.0,0.0,0.0,0.0,0.0,0.0,0.0,0.0,0.0,0.0,0.0,0.0,0.0,0.0,5.053,5.0657,5.0774,5.0846,5.0846,5.0774,5.119,5.1715,5.2346,5.2803,5.3014,5.3014,5.3014,5.32,5.3552,5.3606,5.3846,5.4235,5.4357,5.4409,5.4409,5.4409,5.4409,0.0,0.0,0.0,0.0,0.0,0.0,0.0,0.0,5.4717,5.4733,5.4776,5.4897,5.5023,5.508,5.5241,5.5403,5.5403,5.5453,5.5781,5.6838,5.7886,5.8845,5.9554,6.0642,6.1505,6.1505,6.1573,6.1631,6.1663,6.1674,6.1698,6.1698,6.1698,6.1698,6.1698,6.1698,6.1698,6.1698,6.1698,6.1698,6.1698,6.1698,6.1698,6.1698,6.1698,6.1698,6.1698,6.1698,6.1698,6.1698,6.1698,6.1698,6.1698,6.1698,6.1698,6.1698,6.1369,6.1213,6.1193,6.0874,6.0427,5.9913,5.9885,5.9536,5.8977,5.8646,5.9228,6.0321,6.053,6.101,6.1607,6.1606,6.1607,6.1607,0.0,0.0,0.0,0.0,0.0,0.0,0.0,0.0,0.0,0.0,0.0,0.0,0.0,0.0,0.0,0.0,0.0,0.0,5.0557,5.0657,5.0774,5.0891,5.0891,5.0891,5.0891,5.1193,5.1855,5.2846,5.3582,5.3963,5.4,5.4,5.4037,5.4109,5.4146,5.4218,5.4308,5.4375,5.4409,5.4409,5.4409,5.4409,0.0,0.0,0.0,0.0,0.0,0.0,0.0,0.0,5.4901,5.4901,5.4941,5.5028,5.5107,5.5168,5.532,5.5453,5.5453,5.575,5.6314,5.7361,5.8358,5.938,6.0408,6.1101,6.1537,6.1569,6.1631,6.1698,6.1698,6.1698,6.1698,6.1698,6.1698,6.1698,6.1698,6.1698,6.1698,6.1698,6.1698,6.1698,6.1698,6.1698,6.1698,6.1698,6.1698,6.1698,6.1698,6.1698,6.1698,6.1698,6.1698,6.1698,6.1698,6.1698,6.1698,6.1698,6.1698,6.1698,6.1701,6.1692,6.1363,6.0772,6.0785,6.0417,5.9795,5.9522,5.9756,6.038,6.1257,6.1599,6.1595,6.1592,6.1606,6.1592,0.0,0.0,0.0,0.0,0.0,0.0,0.0,0.0,0.0,0.0,0.0,0.0,0.0,0.0,0.0,0.0,0.0,0.0,5.0557,5.0774,5.0891,5.0891,5.0891,5.0891,5.0891,5.0918,5.1383,5.2281,5.3306,5.387,5.4,5.4,5.4055,5.4109,5.4254,5.4308,5.4308,5.4375,5.4409,5.4409,5.439,5.439,5.439,0.0,0.0,0.0,0.0,0.0,0.0,0.0,5.4901,5.4931,5.5052,5.5107,5.5135,5.5345,5.5514,5.5596,5.5615,5.6353,5.7371,5.8451,5.9357,6.0281,6.135,6.1595,6.1625,6.1693,6.1698,6.1698,6.1698,6.1698,6.1698,6.1698,6.1698,6.1698,6.1698,6.1698,6.1698,6.1698,6.1698,6.1679,6.1679,6.1679,6.1679,6.1679,6.1679,6.1698,6.1698,6.1698,6.1698,6.1698,6.1698,6.1698,6.1698,6.1698,6.1698,6.1698,6.1698,6.1698,6.1701,6.1691,6.166,6.1591,6.1601,6.1591,6.1529,6.0672,6.0302,6.0399,6.1257,6.1607,6.1597,6.1602,6.1607,6.1597,0.0,0.0,0.0,0.0,0.0,0.0,0.0,0.0,0.0,0.0,0.0,0.0,0.0,0.0,0.0,0.0,0.0,0.0,5.0774,5.0873,5.0891,5.0891,5.0891,5.0891,5.0891,5.1551,5.206,5.2454,5.3506,5.4073,5.4201,5.4201,5.4254,5.4304,5.4307,5.4324,5.4375,5.4392,5.4409,5.4407,5.4486,5.4552,5.4552,0.0,0.0,0.0,0.0,0.0,0.0,0.0,0.0,0.0,5.5305,5.5384,5.5468,5.5523,5.5651,5.5874,5.649,5.6973,5.7672,5.9226,5.991,6.0452,6.1393,6.1595,6.1625,6.1693,6.1698,6.1698,6.1698,6.1698,6.1698,6.1698,6.1698,6.1698,6.1698,6.1698,6.1464,6.0861,6.0783,6.0549,5.9922,5.9863,5.9863,5.9863,6.0432,6.0783,6.0783,6.1369,6.1698,6.1698,6.1698,6.1698,6.1698,6.1698,6.1698,6.1698,6.1698,6.1698,6.1698,6.1692,6.1656,6.1591,6.1605,6.1604,6.1588,6.1315,6.1218,6.1237,6.149,6.1607,6.1597,6.1602,6.1607,6.1597,0.0,0.0,0.0,0.0,0.0,0.0,0.0,0.0,0.0,0.0,4.6136,4.6617,0.0,0.0,0.0,0.0,0.0,0.0,0.0,5.0891,5.0891,5.0891,5.0891,5.0981,5.1158,5.1934,5.2481,5.2871,5.368,5.4146,5.4308,5.4308,5.4342,5.4409,5.4376,5.4357,5.4409,5.4409,5.4409,5.4407,5.4552,5.4597,5.4629,0.0,0.0,0.0,0.0,0.0,0.0,0.0,0.0,0.0,5.5535,5.5618,5.5686,5.5686,5.5789,5.6031,5.6553,5.7361,5.8284,5.9377,6.0228,6.0958,6.1514,6.1634,6.164,6.1696,6.1698,6.1698,6.1698,6.1427,6.1174,6.1174,6.0898,6.0664,6.0664,6.0664,6.0468,5.9944,5.9885,5.969,5.9141,5.9102,5.9102,5.9102,5.9592,5.9885,5.9885,6.0705,6.1174,6.1174,6.1522,6.1698,6.1698,6.1698,6.1698,6.1698,6.1698,6.1707,6.1699,6.1699,6.1659,6.1596,6.1601,6.1602,6.1607,6.1607,6.1607,6.1607,6.1607,6.1607,6.1597,6.1602,6.1602,6.1596,0.0,0.0,0.0,0.0,0.0,0.0,0.0,0.0,0.0,0.0,4.6722,4.7388,0.0,0.0,0.0,0.0,0.0,0.0,0.0,5.0891,5.0891,5.0891,5.0891,5.1123,5.1594,5.2083,5.266,5.3407,5.3813,5.4111,5.4326,5.4326,5.4342,5.4409,5.4409,5.4409,5.4409,5.4407,5.4407,5.4424,5.4581,5.4645,5.4676,5.4867,0.0,0.0,0.0,0.0,0.0,0.0,0.0,0.0,5.5769,5.5808,5.5817,5.5817,5.5957,5.6135,5.6213,5.7581,5.9033,5.9173,6.0412,6.1628,6.1693,6.1698,6.1698,6.1698,6.164,6.1581,6.1581,6.0861,6.0276,6.0276,5.9612,5.9102,5.9102,5.9102,5.9063,5.8987,5.8987,5.8946,5.8887,5.8868,5.8868,5.8868,5.8946,5.8987,5.8987,5.9807,6.0315,6.0393,6.1174,6.162,6.1698,6.1703,6.1703,6.1698,6.1703,6.1701,6.1698,6.1697,6.1658,6.1604,6.1608,6.1592,6.1607,6.1607,6.1607,6.1607,6.1607,6.1607,6.1597,6.1602,6.1598,6.1595,0.0,0.0,0.0,0.0,0.0,0.0,0.0,0.0,0.0,0.0,0.0,0.0,0.0,0.0,0.0,0.0,0.0,0.0,0.0,5.0891,5.0891,5.0891,5.0891,5.1123,5.1594,5.2172,5.2766,5.3407,5.387,5.4181,5.4375,5.4375,5.4392,5.4409,5.4409,5.4409,5.4409,5.4503,5.4568,5.4581,5.4874,5.4976,5.5023,5.5219,5.5371,0.0,0.0,0.0,0.0,0.0,0.0,0.0,5.5779,5.5873,5.596,5.596,5.6107,5.6417,5.7091,5.8155,5.9224,5.9875,6.0873,6.1674,6.1698,6.1698,6.1698,6.1698,6.1154,6.0686,6.0686,5.9963,5.9378,5.9378,5.9222,5.9102,5.9102,5.9102,5.8851,5.8168,5.807,5.7836,5.7192,5.7133,5.7133,5.7133,5.7719,5.807,5.807,5.8909,5.969,6.0373,6.0588,6.1017,6.1698,6.1704,6.1704,6.1698,6.1705,6.1679,6.1617,6.1671,6.1657,6.1603,6.1607,6.16,6.1607,6.1607,6.1607,6.1607,6.1607,6.1607,6.1597,6.1602,6.1595,6.1608,0.0,0.0,0.0,0.0,0.0,0.0,0.0,0.0,0.0,0.0,0.0,0.0,0.0,0.0,0.0,0.0,0.0,0.0,0.0,0.0,5.0891,5.0891,5.1123,5.1467,5.2006,5.2567,5.3166,5.3832,5.4091,5.4271,5.4409,5.4409,5.4409,5.4409,5.4409,5.4409,5.4407,5.4552,5.4597,5.4629,5.4981,5.5094,5.5121,5.5377,5.5554,5.5607,5.5675,0.0,0.0,0.0,0.0,0.0,0.0,0.0,5.6221,5.6636,5.6867,5.7167,5.8024,5.8987,5.9923,6.0759,6.1337,6.1698,6.1698,6.1388,6.1076,6.1076,6.0725,6.0276,5.9846,5.9065,5.848,5.848,5.8148,5.7894,5.7894,5.7894,5.7738,5.7289,5.7231,5.7055,5.6645,5.6606,5.6606,5.6606,5.6996,5.7231,5.7231,5.8011,5.889,5.9749,6.0178,6.0822,6.1698,6.1697,6.1697,6.1698,6.1697,6.1675,6.1659,6.1656,6.1621,6.1601,6.1595,6.1603,6.1607,6.1607,6.1607,6.1607,6.1607,6.1607,6.1592,6.1608,6.16,6.1607,0.0,0.0,0.0,0.0,0.0,0.0,0.0,0.0,0.0,0.0,0.0,0.0,0.0,0.0,0.0,0.0,0.0,0.0,0.0,0.0,0.0,5.0972,5.1375,5.1922,5.2563,5.2959,5.3546,5.4308,5.4307,5.4359,5.4409,5.4409,5.4409,5.4409,5.4409,5.4407,5.4439,5.46,5.4661,5.4723,5.5023,5.5181,5.5229,5.5485,5.564,5.5686,5.5789,5.5865,5.591,5.602,0.0,0.0,0.0,0.0,5.6466,5.734,5.7667,5.7918,5.8776,5.9687,6.0607,6.1483,6.1698,6.1659,6.1503,6.092,6.0315,6.0002,5.9944,5.9729,5.9007,5.8168,5.7582,5.7582,5.7035,5.6606,5.6606,5.6606,5.6606,5.6606,5.6606,5.6606,5.6606,5.6606,5.6608,5.6575,5.6589,5.6589,5.6575,5.7213,5.805,5.9063,5.9807,6.0666,6.1698,6.1692,6.1692,6.1698,6.1692,6.1688,6.1679,6.1631,6.1597,6.1606,6.1606,6.1602,6.1607,6.1607,6.1607,6.1607,6.1607,6.1607,6.1607,6.1607,6.1603,6.1609,0.0,0.0,0.0,0.0,0.0,0.0,0.0,0.0,0.0,0.0,4.8733,4.9312,0.0,0.0,0.0,0.0,0.0,0.0,5.0891,0.0,0.0,5.1246,5.1538,5.2054,5.2842,5.2959,5.343,5.4308,5.4376,5.4392,5.4409,5.4409,5.4409,5.4409,5.4409,5.4455,5.4581,5.4776,5.4927,5.5052,5.5273,5.5421,5.5539,5.5585,5.5739,5.5943,5.5968,5.6087,5.6232,5.6246,5.6252,0.0,0.0,0.0,5.6472,5.7328,5.7682,5.798,5.8858,5.9725,6.0607,6.1483,6.1698,6.1503,6.0744,6.0471,5.9963,5.846,5.8148,5.8109,5.7992,5.7309,5.6762,5.6762,5.6665,5.6606,5.6606,5.6606,5.6606,5.6606,5.6606,5.6606,5.6606,5.6606,5.6577,5.6518,5.6563,5.6579,5.6518,5.6678,5.7484,5.9044,5.92,6.0039,6.1679,6.164,6.164,6.1701,6.164,6.1617,6.1614,6.1595,6.1603,6.1592,6.1592,6.1604,6.1607,6.1607,6.1607,6.1607,6.1607,6.1607,6.1607,6.1607,6.1592,6.1591,0.0,0.0,0.0,0.0,0.0,0.0,0.0,0.0,0.0,0.0,0.0,4.9402,0.0,0.0,0.0,5.0891,5.0891,5.0891,5.0891,5.1141,5.1367,5.1525,5.2066,5.2648,5.321,5.3565,5.3926,5.4359,5.4392,5.4409,5.4409,5.4409,5.4441,5.4503,5.4503,5.46,5.4791,5.4956,5.5057,5.5127,5.5332,5.5477,5.5607,5.5686,5.5827,5.6009,5.6136,5.622,5.6288,5.6288,5.6311,5.6358,5.6358,0.0,0.0,0.0,5.8449,5.8829,6.0194,6.0832,6.1213,6.1601,6.1698,6.1464,6.0607,6.0022,5.9319,5.805,5.7445,5.7133,5.7133,5.6815,5.6566,5.6589,5.6561,5.6566,5.6589,5.6561,5.6566,5.6608,5.6563,5.6566,5.6608,5.6606,5.6593,5.6566,5.6549,5.6534,5.6502,5.6535,5.7102,5.8338,5.8841,5.9694,6.0962,6.1425,6.1679,6.1707,6.164,6.1605,6.1607,6.1596,6.1606,6.1596,6.1596,6.1599,6.1607,6.1607,6.1607,6.1607,6.1607,6.1607,6.1607,6.1607,6.1607,6.1597,0.0,0.0,0.0,0.0,0.0,0.0,0.0,0.0,0.0,0.0,0.0,0.0,0.0,0.0,0.0,0.0,5.0891,5.0945,5.0998,5.1246,5.1528,5.1788,5.2513,5.3099,5.3471,5.3963,5.4271,5.4409,5.4409,5.4409,5.4409,5.4409,5.4489,5.4661,5.4629,5.4742,5.4975,5.5071,5.514,5.5181,5.5377,5.5535,5.5688,5.5827,5.5965,5.6121,5.6278,5.6336,5.6334,5.6334,5.6359,5.6409,5.6409,5.6414,0.0,0.0,0.0,6.0032,6.1358,6.1699,6.1683,6.1696,6.1538,6.1145,6.0278,5.9397,5.8538,5.766,5.7016,5.6606,5.6606,5.6566,5.6533,5.6561,5.6534,5.6519,5.657,5.652,5.6522,5.657,5.6521,5.6522,5.657,5.6568,5.6571,5.6575,5.6539,5.6503,5.6504,5.652,5.6911,5.7773,5.865,5.9524,6.0382,6.1262,6.1694,6.1697,6.1638,6.1602,6.1596,6.1608,6.1607,6.1607,6.1607,6.1607,6.1607,6.1607,6.1607,6.1607,6.1607,6.1607,6.1607,6.1607,6.1607,6.1597,0.0,0.0,0.0,0.0,0.0,0.0,0.0,0.0,0.0,0.0,0.0,0.0,5.0034,5.0564,5.0891,5.0891,5.0891,5.1025,5.1255,5.1538,5.179,5.206,5.2672,0.0,5.3407,5.3738,5.4072,5.4409,5.4409,5.4409,5.4409,5.4409,5.4573,5.4886,5.4695,5.4784,5.5094,5.5094,5.5214,5.5403,5.5523,5.5708,5.5907,5.6024,5.6212,5.6377,5.6401,5.6381,5.6386,5.6386,5.6405,5.6409,5.6409,5.6434,5.6833,0.0,0.0,0.0,6.1677,6.164,6.1617,6.1679,6.1071,6.0248,5.9365,5.8499,5.7641,5.6821,5.6626,5.6606,5.6606,5.6606,5.6579,5.6518,5.6501,5.6503,5.6499,5.6497,5.6496,5.6497,5.6497,5.6496,5.6497,5.6517,5.651,5.6499,5.6501,5.6504,5.6497,5.6556,5.6959,5.7764,5.8658,5.9517,6.0395,6.1254,6.1699,6.1697,6.1638,6.1591,6.1608,6.1607,6.1607,6.1607,6.1607,6.1607,6.1607,6.1607,6.1607,6.1607,6.1607,6.1607,6.1607,6.1607,6.1607,6.1607,0.0,0.0,0.0,0.0,0.0,0.0,0.0,0.0,0.0,0.0,0.0,0.0,0.0,5.0739,5.1167,5.1167,5.1307,5.1436,5.1538,5.1815,5.2168,5.267,5.3057,5.3505,5.4036,5.4144,5.4268,5.4409,5.4409,5.4409,5.4409,5.4409,5.4573,5.4901,5.4822,5.4971,5.5286,5.5286,5.5371,5.5542,5.5632,5.5808,5.6044,5.6136,5.6264,5.6409,5.6409,5.6426,5.6464,5.6464,5.6482,5.6539,5.6539,5.6545,5.6909,5.8593,6.0325,6.1698,6.1659,6.1616,6.1613,6.1638,6.1014,6.0174,5.9297,5.8437,5.7558,5.6719,5.6543,5.6543,5.6543,5.6539,5.6532,5.6564,5.6522,5.6503,5.6504,5.6492,5.6497,5.6494,5.6502,5.6497,5.6494,5.6495,5.6497,5.65,5.6502,5.6503,5.6504,5.652,5.6675,5.6953,5.8355,5.9795,6.1221,6.1536,6.1697,6.1697,6.1638,6.1603,6.1603,6.1592,6.1607,6.1607,6.1607,6.1607,6.1607,6.1607,6.1607,6.1607,6.1607,6.1607,6.1607,6.1607,6.1607,6.1607,0.0,0.0,0.0,0.0,0.0,0.0,0.0,0.0,0.0,4.9148,0.0,0.0,0.0,0.0,5.1436,5.1436,5.1589,5.174,5.1815,5.1987,5.2379,5.2975,5.3247,5.3662,5.4216,5.4339,5.4409,5.4409,5.4409,5.4409,5.4409,5.4409,5.4573,5.4901,5.4901,5.5095,5.5403,5.5403,5.546,5.5547,5.5699,5.587,5.6039,5.6228,5.6368,5.643,5.6464,5.6501,5.6539,5.6539,5.6553,5.6606,5.6606,5.6782,5.7276,5.8687,6.0136,6.1308,6.1548,6.1592,6.1605,6.1596,6.076,5.9787,5.9228,5.8195,5.7199,5.6612,5.6495,5.6495,5.6495,5.6502,5.6504,5.6561,5.6539,5.6507,5.6494,5.6504,5.6497,5.6506,5.6503,5.6497,5.6506,5.6508,5.6502,5.6501,5.6498,5.6501,5.6502,5.6518,5.6793,5.7344,5.8492,5.9933,6.167,6.1692,6.1692,6.1709,6.164,6.1633,6.1637,6.1602,6.1603,6.1603,6.1597,6.1607,6.1607,6.1607,6.1607,6.1607,6.1607,6.1607,6.1607,6.1607,6.1607,6.1607,0.0,0.0,0.0,0.0,0.0,0.0,0.0,0.0,4.9057,4.9988,0.0,0.0,0.0,0.0,0.0,5.1715,5.1715,5.184,5.2084,5.2126,5.2392,5.2999,5.3263,5.3565,5.3907,5.4233,5.4409,5.4409,5.4409,5.4409,5.4409,5.4409,5.4573,5.4901,5.4901,5.5095,5.5403,5.5403,5.5403,5.5434,5.5769,5.5896,5.5946,5.6344,5.6504,5.6508,5.6577,5.6606,5.6606,5.6606,5.6606,5.6606,5.6606,5.7153,5.7961,5.8843,5.9726,6.0571,0.0,0.0,0.0,6.1605,6.0291,5.9014,5.9086,5.7744,5.6493,5.6493,5.6493,5.6493,5.6493,5.6493,5.6506,5.6492,5.6506,5.6491,5.65,5.6507,5.6507,5.6507,5.6507,5.6507,5.6507,5.6507,5.6492,5.6503,5.6502,5.6501,5.6502,5.6563,5.7367,5.9044,5.9102,5.9941,6.1679,6.1698,6.1698,6.1701,6.169,6.1697,6.1698,6.1635,6.1601,6.1601,6.1599,6.1607,6.1592,6.1607,6.1607,6.1607,6.1607,6.1607,6.1607,6.1607,6.1607,6.1607,0.0,0.0,0.0,0.0,0.0,4.8356,4.842,4.9148,4.9815,0.0,0.0,0.0,5.169,5.1864,5.2078,5.2269,5.2269,5.2317,5.2387,5.2622,5.2919,5.3263,5.3603,5.3926,5.4251,5.4356,5.4409,5.4409,5.4409,5.4409,5.4409,5.4409,5.4573,5.4901,5.4901,5.5095,5.5403,5.5403,5.546,5.557,5.5798,5.5986,5.6162,5.6398,5.6536,5.6577,5.6584,5.6606,5.6606,5.6606,5.6606,5.6606,5.6606,5.7153,5.7961,5.8843,5.9726,6.0571,6.1378,0.0,0.0,0.0,0.0,0.0,5.9029,5.7726,5.6498,5.6498,5.6498,5.6498,5.6498,5.6498,5.6491,5.6496,5.6504,5.6503,5.6491,5.6496,5.6507,5.6507,5.6507,5.6507,5.6507,5.6507,5.6492,5.6503,5.6502,5.6501,5.6502,5.6563,5.7367,5.9044,5.9102,5.9941,6.1679,6.1698,6.1698,6.1701,6.169,6.1697,6.1698,6.1635,6.1598,6.16,6.16,6.1599,6.1595,6.1591,6.1607,6.1607,6.1607,6.1607,6.1607,6.1607,6.1607,6.1607,0.0,0.0,0.0,0.0,4.8515,4.8515,4.8627,4.9449,5.0159,0.0,0.0,0.0,5.2011,5.2174,5.2317,5.2498,5.2498,5.2498,5.2498,5.2802,5.3112,5.3387,5.3719,5.4072,5.439,5.4409,5.4409,5.4409,5.4409,5.4409,5.439,5.4455,5.4635,5.4901,5.4975,5.5132,5.5403,5.5403,5.5447,5.5535,5.5835,5.6002,5.611,5.641,5.6545,5.655,5.6582,5.6606,5.6606,5.6606,5.6606,5.6606,5.6606,5.6918,5.7471,5.8316,5.8926,5.9487,6.031,6.0526,6.0512,6.0525,0.0,0.0,5.8451,5.7442,5.6507,5.6507,5.6507,5.6507,5.6507,5.6507,5.6507,5.6507,5.6496,5.6498,5.6498,5.6508,5.6507,5.6507,5.6507,5.6507,5.6507,5.6507,5.6492,5.6503,5.6502,5.6503,5.6533,5.6577,5.7367,5.9044,5.9102,5.9941,6.1679,6.1698,6.1698,6.1698,6.1699,6.1707,6.1708,6.1657,6.1627,6.1609,6.1592,6.1596,6.1604,6.1606,6.1607,6.1592,6.1599,6.1595,6.1592,6.1603,6.1595,6.1607,0.0,0.0,4.8547,4.8547,4.8593,4.8736,4.8877,4.9686,5.0394,0.0,5.1594,5.2246,5.2475,5.2498,5.2498,5.2498,5.2498,5.2498,5.2498,5.2846,5.3154,5.3387,5.3757,5.409,5.439,5.4409,5.4409,5.4409,5.4409,5.4407,5.4424,5.4552,5.4726,5.4931,5.5057,5.5214,5.5403,5.5403,5.5416,5.5472,5.5834,5.597,5.5962,5.641,5.657,5.6511,5.6577,5.6606,5.6606,5.6606,5.6606,5.6606,5.6606,5.6606,5.6768,5.7552,5.7791,5.7988,5.8781,5.9012,5.8994,5.9003,5.8343,0.0,5.7695,5.7072,5.6507,5.6507,5.6507,5.6507,5.6507,5.6507,5.6507,5.6507,5.6507,5.6507,5.6507,5.6507,5.6507,5.6507,5.6507,5.6507,5.6507,5.6507,5.6508,5.6497,5.6501,5.6523,5.6608,5.6606,5.7367,5.9044,5.9102,5.9941,6.1679,6.1698,6.1698,6.1698,6.1698,6.1698,6.1701,6.1691,6.168,6.1616,6.1607,6.1605,6.1603,6.1606,6.1597,6.1597,6.1595,6.1604,6.1597,6.1595,6.16,6.1607,0.0,4.8909,4.8909,4.8909,4.9286,4.9627,4.9674,5.0614,5.1347,5.1406,5.2,5.2452,5.2498,5.2498,5.2498,5.2498,5.2498,5.2498,5.2498,5.3008,5.3365,5.3407,5.3981,5.4339,5.4409,5.4409,5.4409,5.4409,5.4409,5.4474,5.4549,5.4581,5.4769,5.5052,5.508,5.5214,5.5403,5.5403,5.5453,5.5573,5.5826,5.5927,5.602,5.639,5.6545,5.658,5.6604,5.6606,5.6606,5.6606,5.6606,5.6606,5.6606,5.6606,5.6762,5.7551,5.7802,5.7987,5.8847,5.9047,5.9003,5.8994,5.8336,0.0,5.7695,5.7072,5.6507,5.6507,5.6507,5.6507,5.6507,5.6507,5.6507,5.6507,5.6507,5.6507,5.6507,5.6507,5.6507,5.6507,5.6507,5.6507,5.6507,5.6507,5.6492,5.6504,5.6508,5.6523,5.6608,5.6606,5.7367,5.9044,5.9102,5.9941,6.1679,6.1698,6.1698,6.1698,6.1698,6.1698,6.1701,6.1691,6.1693,6.1683,6.1619,6.1632,6.1677,6.1618,6.16,6.1607,6.1606,6.1602,6.1607,6.1606,6.1602,6.1607,4.9001,4.9001,4.9077,4.9394,4.9686,4.9988,5.0265,5.1026,5.1601,5.1601,5.2138,5.2498,5.2498,5.2498,5.2498,5.2498,5.2663,5.2753,5.2753,5.3304,5.3662,5.3662,5.4126,5.4409,5.4409,5.4455,5.4505,5.4505,5.4587,5.4683,5.4742,5.4814,5.4971,5.5198,5.5314,5.5415,5.5495,5.5495,5.5554,5.5629,5.5872,5.6005,5.6136,5.6437,5.6575,5.6606,5.6606,5.6606,5.6606,5.6606,5.6606,5.6606,5.6606,5.6606,5.6684,5.7074,5.7203,5.7295,5.7692,5.7772,5.7758,5.7748,5.7427,0.0,0.0,5.6799,5.6507,5.6507,5.6507,5.6507,5.6507,5.6507,5.6507,5.6507,5.6507,5.6507,5.6507,5.6507,5.6507,5.6507,5.6507,5.6507,5.6507,5.6507,5.65,5.651,5.6507,5.6503,5.655,5.6955,5.7782,5.9063,5.948,6.0339,6.1698,6.1698,6.1698,6.1698,6.1698,6.1698,6.1701,6.1697,6.1704,6.1705,6.166,6.1659,6.1659,6.1603,6.1601,6.1598,6.1591,6.1598,6.1601,6.1601,6.1601,6.1601,4.9001,4.9001,4.9199,4.9803,4.9988,5.0237,5.0778,5.1381,5.1768,5.1768,5.2209,5.2549,5.2645,5.2667,5.2694,5.2765,5.3008,5.3157,5.3133,5.3642,5.3944,5.3907,5.4216,5.4407,5.4441,5.4552,5.4613,5.4645,5.4822,5.4916,5.4946,5.5038,5.5191,5.5368,5.5535,5.564,5.5632,5.5654,5.5665,5.5707,5.5935,5.6103,5.6211,5.6478,5.6577,5.658,5.6604,5.6606,5.6606,5.6606,5.6606,5.6606,5.6606,5.6606,5.6606,5.6606,5.6582,5.6565,5.6511,5.6496,5.6482,5.6473,5.6476,5.6477,0.0,0.0,0.0,5.6507,5.6507,5.6507,5.6507,5.6507,5.6507,5.6507,5.6507,5.6507,5.6507,5.6507,5.6507,5.6507,5.6507,5.6507,5.6507,5.6643,5.6671,5.6516,5.6812,5.6932,5.6769,5.7551,5.8422,5.9302,5.9967,6.0747,6.1643,6.1693,6.1696,6.1671,6.1696,6.1698,6.1698,6.1698,6.1696,6.1694,6.1694,6.1679,6.1619,6.1617,6.1617,6.1618,6.1612,6.1607,6.1605,6.1591,6.1609,6.1605,4.9001,4.9001,4.9199,4.9803,5.0293,5.0822,5.1406,5.2,5.241,5.241,5.2513,5.2729,5.3083,5.3226,5.341,5.3721,5.3777,5.3758,5.3644,5.3962,5.4089,5.3907,5.4216,5.4474,5.4565,5.4597,5.4695,5.4871,5.4886,5.4956,5.508,5.5094,5.5262,5.5566,5.5647,5.572,5.5769,5.5835,5.5898,5.5968,5.6129,5.6142,5.6142,5.6418,5.6508,5.6511,5.6577,5.6606,5.6606,5.6606,5.6606,5.6606,5.6606,5.6606,5.6606,5.6606,5.657,5.6511,5.6494,5.6467,5.6402,5.6411,5.64,5.6403,5.6405,0.0,5.6508,5.65,0.0,5.6507,5.6507,0.0,0.0,5.6507,5.6507,5.6507,5.6507,5.6507,5.6507,5.6507,5.6507,5.6507,5.6507,5.715,5.7274,5.6548,5.7922,5.8476,5.7693,5.8419,5.926,6.014,6.0251,6.0683,6.1509,6.1634,6.1668,6.1602,6.1668,6.1698,6.1698,6.1698,6.1701,6.1705,6.1705,6.1707,6.1694,6.1695,6.1692,6.1678,6.1619,6.1594,6.1593,6.1603,6.1598,6.1596,4.9138,4.9001,4.9303,5.0209,5.0535,5.1034,5.1975,5.234,5.2498,5.2498,5.2526,5.2604,5.2769,5.3008,5.3244,5.3473,5.3851,5.4086,5.4103,5.4416,5.4568,5.4484,5.4619,5.4733,5.4757,5.4863,5.4937,5.5014,5.5118,5.5267,5.5376,5.5376,5.5546,5.5846,5.5907,5.5932,5.5926,5.599,5.6005,5.6009,5.6102,5.6168,5.6236,5.6471,5.657,5.655,5.6582,5.6606,5.6606,5.6606,5.6575,5.6545,5.6582,5.6545,5.6482,5.6539,5.6482,5.6434,5.6434,5.6455,5.6455,5.6408,5.6421,5.6442,5.6404,5.6411,5.6443,5.6488,0.0,0.0,0.0,0.0,0.0,0.0,5.6507,5.6507,5.6507,5.6507,5.6507,5.6507,5.6916,5.7389,5.7894,5.7797,5.7778,5.7948,5.8632,5.8879,5.8512,5.9264,5.9879,6.0297,6.0748,6.117,6.1553,6.164,6.1693,6.1663,6.1693,6.1698,6.1698,6.1698,6.1698,6.1698,6.1698,6.1698,6.1701,6.1696,6.1694,6.1703,6.1668,6.1658,6.166,6.166,6.166,6.166,4.9669,4.9538,4.9855,5.0885,5.1043,5.1396,5.2439,5.2549,5.2526,5.2526,5.2526,5.2604,5.2857,5.3138,5.3428,5.3758,5.426,5.4546,5.4588,5.4814,5.4946,5.4901,5.4901,5.4916,5.4941,5.5038,5.514,5.5181,5.5332,5.5465,5.5596,5.5596,5.5739,5.6001,5.6066,5.6088,5.6085,5.6142,5.6142,5.6121,5.6174,5.6278,5.6363,5.6511,5.6575,5.6577,5.6584,5.6606,5.6606,5.6606,5.6567,5.6508,5.657,5.6482,5.6414,5.6461,5.6422,5.6368,5.6368,5.6401,5.6437,5.6375,5.6407,5.6424,5.6374,5.6386,5.6403,5.6468,5.6465,0.0,0.0,0.0,5.6484,5.6496,0.0,5.6507,5.6507,5.6507,5.6507,5.6507,5.7208,5.804,5.8922,5.8637,5.8571,5.9003,5.9468,5.9628,5.9366,6.0116,6.0583,6.0623,6.1193,6.1514,6.1561,6.1634,6.1668,6.1668,6.1696,6.1698,6.1698,6.1698,6.1698,6.1698,6.1698,6.1698,6.1698,6.1698,6.1698,6.1698,6.1698,6.1698,6.1703,6.1705,6.1705,6.1694,5.0832,5.0832,5.1087,5.1824,5.1964,5.2155,5.2717,5.2676,5.2608,5.2608,5.2608,5.2932,5.3758,5.3976,5.4409,5.526,5.5345,5.5273,5.5094,5.5094,5.5042,5.4901,5.4901,5.4956,5.5094,5.5094,5.52,5.539,5.539,5.5465,5.5596,5.5596,5.5739,5.6001,5.6066,5.6181,5.6289,5.6363,5.6381,5.6386,5.6464,5.6498,5.6498,5.6501,5.6504,5.6508,5.6577,5.6606,5.6606,5.6606,5.6567,5.6501,5.6504,5.6461,5.6409,5.639,5.6354,5.6294,5.6294,5.6294,5.6304,5.6304,5.6294,5.63,5.6297,5.6355,5.6406,5.6395,5.64,5.6403,5.6406,5.6399,5.6417,0.0,5.6503,0.0,0.0,5.6507,5.6507,5.6507,5.7208,5.8046,5.8927,5.9742,5.9905,5.9151,6.0664,6.1229,6.0311,6.1023,6.1466,6.147,6.1484,6.1493,6.149,6.1576,6.1598,6.1598,6.1668,6.1698,6.1698,6.1698,6.1698,6.1698,6.1698,6.1698,6.1698,6.1698,6.1698,6.1698,6.1698,6.1698,6.1698,6.1701,6.1701,6.1695,5.226,5.2284,5.2232,5.2018,5.2012,5.2179,5.2717,5.2761,5.2831,5.3099,5.312,5.333,5.3832,5.4135,5.4458,5.4847,5.5061,5.5227,5.5286,5.53,5.5292,5.5238,5.5238,5.5246,5.5286,5.53,5.5332,5.5403,5.5502,5.5596,5.5739,5.5817,5.5979,5.6199,5.6213,5.6261,5.6294,5.6368,5.6409,5.6409,5.6422,5.643,5.643,5.643,5.643,5.643,5.6464,5.6468,5.6468,5.6468,5.6422,5.6387,5.6418,5.6398,5.6331,5.6329,5.6317,5.6309,5.6309,5.6302,5.6308,5.6304,5.6302,5.6299,5.6305,5.632,5.6348,5.6385,5.6406,5.6399,5.6402,5.6406,5.6403,0.0,0.0,5.6508,0.0,5.6991,5.7563,5.8089,5.8393,5.9109,6.0517,6.045,6.0409,6.0669,6.1274,6.1486,6.1105,6.1354,6.1505,6.1503,6.1539,6.1547,6.149,6.1598,6.1666,6.1666,6.1696,6.1698,6.1698,6.1698,6.1698,6.1698,6.1698,6.1698,6.1698,6.1698,6.1698,6.1698,6.1698,6.1698,6.1698,6.1698,6.1707,6.1696,5.2977,5.2999,5.2872,5.2477,5.2431,5.254,5.289,5.3005,5.3141,5.3408,5.3528,5.3721,5.4115,5.4338,5.4566,5.4861,5.5075,5.5273,5.539,5.5403,5.5403,5.5403,5.5403,5.5409,5.5465,5.5422,5.5422,5.5465,5.5558,5.5665,5.5798,5.5935,5.6102,5.6298,5.6302,5.6303,5.6344,5.6377,5.6426,5.6468,5.6453,5.6449,5.6426,5.6377,5.6363,5.6363,5.6381,5.6409,5.6409,5.6409,5.6354,5.6319,5.6354,5.6322,5.6304,5.6308,5.6309,5.6291,5.6291,5.6303,5.6308,5.6304,5.6309,5.63,5.63,5.6299,5.6305,5.6355,5.6354,5.6364,5.6352,5.6358,5.6376,0.0,0.0,5.6561,0.0,5.7688,5.8526,5.935,5.9456,6.0004,6.1392,6.1061,6.0976,6.1491,6.1573,6.1582,6.1541,6.15,6.1505,6.1524,6.1553,6.158,6.1576,6.1618,6.164,6.1698,6.1698,6.1698,6.1698,6.1698,6.1698,6.1698,6.1698,6.1698,6.1698,6.1698,6.1698,6.1698,6.1698,6.1698,6.1698,6.1698,6.1698,6.1698,5.2999,5.302,5.3042,5.3185,5.3185,5.3185,5.3185,5.3385,5.3529,5.3549,5.3777,5.4115,5.4594,5.464,5.4828,5.5364,5.5403,5.5403,5.5403,5.5403,5.5403,5.5403,5.5416,5.5477,5.5607,5.549,5.549,5.5618,5.5618,5.5686,5.5808,5.5952,5.6109,5.6291,5.6291,5.6345,5.6409,5.6409,5.6475,5.6584,5.6536,5.6501,5.6494,5.6354,5.6294,5.6299,5.6368,5.6401,5.6401,5.6401,5.6349,5.6308,5.6308,5.6308,5.6291,5.6291,5.6291,5.6291,5.6291,5.6291,5.6291,5.6291,5.6291,5.6291,5.6291,5.6291,5.6291,5.6291,5.6291,5.6291,5.6297,5.6309,5.6338,0.0,0.0,5.6712,5.7578,5.846,5.9321,6.0202,6.0348,6.0696,6.1514,6.1598,6.1593,6.1594,6.16,6.1595,6.1595,6.1541,6.1537,6.1595,6.1534,6.1568,6.1696,6.1576,6.158,6.1698,6.1698,6.1698,6.1698,6.1698,6.1698,6.1698,6.1698,6.1698,6.1698,6.1698,6.1698,6.1698,6.1698,6.1698,6.1698,6.1698,6.1698,6.1698,5.3143,5.3164,5.3164,5.3185,5.3185,5.3185,5.3185,5.3444,5.3758,5.4051,5.4376,5.4727,5.5154,5.5195,5.5241,5.539,5.5403,5.5403,5.5403,5.5403,5.5403,5.5403,5.5539,5.5645,5.5668,5.574,5.5798,5.5817,5.5873,5.5917,5.5952,5.6136,5.6246,5.6291,5.6291,5.6345,5.6409,5.6409,5.6475,5.6584,5.6536,5.6501,5.6498,5.6409,5.6372,5.6363,5.6331,5.6327,5.6327,5.6327,5.6315,5.6297,5.6297,5.631,5.6291,5.6291,5.6291,5.6291,5.6291,5.6291,5.6291,5.6291,5.6291,5.6291,5.6291,5.6291,5.6291,5.6291,5.6291,5.6298,5.6297,5.6297,5.631,5.6357,5.6416,5.6755,5.7584,5.8494,5.9395,6.0275,6.0896,6.1357,6.1579,6.1605,6.1601,6.1595,6.1596,6.1595,6.1595,6.1631,6.1631,6.1598,6.1621,6.1644,6.1628,6.1634,6.1666,6.1698,6.1698,6.1698,6.1698,6.1698,6.1698,6.1698,6.1698,6.1698,6.1698,6.1698,6.1698,6.1698,6.1698,6.1698,6.1698,6.1698,6.1698,6.1698,5.3185,5.3185,5.3185,5.3185,5.3316,5.342,5.342,5.3738,5.4105,5.4479,5.4844,5.514,5.5377,5.5403,5.5403,5.5403,5.5403,5.5403,5.5403,5.5403,5.5447,5.5535,5.5645,5.576,5.593,5.5946,5.5962,5.5998,5.6021,5.6033,5.6001,5.6206,5.631,5.6296,5.6304,5.6345,5.6409,5.6426,5.6498,5.6567,5.6545,5.6542,0.0,5.6468,5.6434,5.6426,5.6368,5.6319,5.6296,5.6296,5.6297,5.6291,5.6291,5.6291,5.6291,5.6291,5.6291,5.6291,5.6291,5.6291,5.6291,5.6291,5.6291,5.6291,5.6291,5.6291,5.6291,5.6291,5.6291,5.6291,5.6291,5.6303,5.6288,5.6288,5.6714,5.7303,5.81,5.9029,5.9941,6.082,6.1325,6.161,6.1644,6.1619,6.1601,6.1631,6.1582,6.1584,6.1634,6.164,6.164,6.1637,6.164,6.164,6.1637,6.164,6.1668,6.1698,6.1698,6.1698,6.1698,6.1698,6.1698,6.1698,6.1698,6.1698,6.1698,6.1698,6.1698,6.1698,6.1698,6.1698,6.1698,6.1698,6.1698,6.1698,5.3185,5.3185,5.3206,5.3251,5.3522,5.372,5.3833,5.4139,5.4463,5.4761,5.514,5.5403,5.5403,5.5403,5.5403,5.5403,5.5403,5.5416,5.5441,5.5434,5.5523,5.5711,5.575,5.591,5.6216,5.6123,5.6096,5.6149,5.6142,5.616,5.623,5.6395,5.6547,5.665,5.6658,5.6639,5.6593,5.665,5.6608,5.6511,5.6577,5.6606,5.6584,5.6539,5.6508,5.6504,5.6457,5.6372,5.6299,5.6294,5.6294,5.6304,5.6298,5.6291,5.6291,5.6291,5.6291,5.6291,5.6291,5.6291,5.6291,5.6291,5.6291,5.6291,5.6291,5.6291,5.6291,5.6291,5.6291,5.6291,5.6291,5.6298,5.6304,5.6304,5.7083,5.795,5.8656,5.9654,6.0583,6.134,6.1523,0.0,6.1675,6.1639,6.164,6.1695,6.1576,6.1576,6.1696,6.1637,6.1634,6.1698,6.1637,6.1637,6.1698,6.1637,6.1637,6.1698,6.1698,6.1698,6.1698,6.1698,6.1698,6.1698,6.1698,6.1698,6.1698,6.1698,6.1698,6.1698,6.1698,6.1698,6.1698,6.1698,6.1698,6.1698,5.3185,5.3185,5.3293,5.3545,5.3662,5.3907,5.4506,5.467,5.4731,5.4791,5.514,5.5403,5.5403,5.5403,5.5403,5.5403,5.5403,5.5447,5.5558,5.5621,5.57,5.5872,5.6077,5.622,5.6276,5.6362,5.6426,5.643,5.6377,5.6704,5.7396,5.7449,5.7829,5.8524,5.8535,5.8172,5.7551,5.7565,5.7185,5.658,5.6604,5.6606,5.6604,5.6582,5.658,5.658,5.6575,5.6498,5.6368,5.6324,5.6303,5.6306,5.6291,5.6291,5.6291,5.6291,5.6291,5.6291,5.6291,5.6291,5.6291,5.6291,5.6291,5.6291,5.6291,5.6291,5.6291,5.6291,5.6291,5.6291,5.6291,5.6302,5.6297,5.6297,5.7084,5.7778,5.7966,5.9329,6.036,6.05,6.1169,6.1601,6.161,6.1612,6.1623,6.169,6.1634,6.1625,6.1698,6.1696,6.1696,6.1698,6.1696,6.1696,6.1698,6.1696,6.1696,6.1698,6.1698,6.1698,6.1698,6.1698,6.1698,6.1698,6.1698,6.1698,6.1698,6.1698,6.1698,6.1698,6.1698,6.1698,6.1698,6.1698,6.1698,6.1698,5.3185,5.3336,5.3504,5.3662,5.4033,5.4376,5.4746,5.4976,5.5113,5.5113,5.5273,5.5403,5.5403,5.5403,5.5403,5.5403,5.5453,5.5542,5.5596,5.573,5.5879,5.6054,5.6208,5.6342,5.6455,5.6517,5.6539,5.6501,5.6916,5.7326,5.7715,5.8163,5.8624,5.9054,5.9057,5.8823,5.8414,5.8465,5.7991,5.7211,5.7226,5.6977,5.6606,5.6606,5.6606,5.6606,5.6606,5.655,5.6482,5.6422,5.6354,5.6308,5.6294,5.6303,5.6291,5.6291,5.6291,5.6291,5.6291,5.6291,5.6291,5.6291,5.6291,5.6291,5.6291,5.6291,5.6291,5.6291,5.6291,5.6291,5.6291,5.6303,5.6294,5.6303,5.7069,5.7668,5.7736,5.9225,6.0294,6.0308,6.109,6.1649,6.1646,6.1659,6.1666,6.1701,6.1634,6.1631,6.1698,6.1698,6.1698,6.1698,6.1698,6.1698,6.1698,6.1698,6.1698,6.1698,6.1698,6.1698,6.1698,6.1698,6.1698,6.1698,6.1698,6.1698,6.1698,6.1698,6.1698,6.1698,6.1698,6.1698,6.1698,6.1698,6.1698,6.1698,5.342,5.3661,5.3851,5.3925,5.4409,5.4821,5.4914,5.52,5.5403,5.5403,5.5403,5.5403,5.5403,5.5403,5.5416,5.5434,5.5554,5.5621,5.5698,5.5872,5.6054,5.6244,5.6324,5.6448,5.6604,5.6606,5.6575,5.6514,5.7375,5.7772,5.774,5.8796,5.9416,5.9654,5.9658,5.9528,5.9307,5.9352,5.8877,5.8077,5.8083,5.7582,5.686,5.686,5.6743,5.6606,5.6606,5.6606,5.6582,5.6542,5.6426,5.6324,5.6294,5.6308,5.6291,5.6291,5.6291,5.6291,5.6291,5.6291,5.6291,5.6291,5.6291,5.6291,5.6291,5.6291,5.6291,5.6291,5.6291,5.6291,5.6291,5.6304,5.629,5.6303,5.7039,5.7585,5.7462,5.9089,6.0239,6.0051,6.0993,6.1671,6.1671,6.1696,6.1698,6.1698,6.164,6.1637,6.1698,6.1698,6.1698,6.1698,6.1698,6.1698,6.1698,6.1698,6.1698,6.1698,6.1698,6.1698,6.1698,6.1698,6.1698,6.1698,6.1698,6.1698,6.1698,6.1698,6.1698,6.1698,6.1698,6.1698,6.1698,6.1698,6.1698,6.1698,5.4194,5.421,5.4347,5.4635,5.4761,5.4914,5.5286,5.5377,5.5403,5.5403,5.5403,5.5403,5.5403,5.5403,5.546,5.557,5.5585,5.5739,5.6036,5.6136,5.625,5.6468,5.6542,5.658,5.6606,5.6606,5.6604,5.6582,5.7404,5.7792,5.7829,5.9488,6.07,6.1461,6.1461,6.1013,6.0268,6.0271,5.9783,5.8983,5.8985,5.846,5.7699,5.7699,5.7231,5.6606,5.6606,5.6606,5.6604,5.6582,5.6504,5.6372,5.6329,5.6308,5.6291,5.6291,5.6291,5.6291,5.6291,5.6291,5.6291,5.6291,5.6291,5.6291,5.6291,5.6291,5.6291,5.6291,5.6291,5.6291,5.6291,5.6302,5.6303,5.6308,5.7089,5.7442,5.6705,5.8749,6.0008,5.9212,6.0584,6.1602,6.1602,6.1666,6.1698,6.1698,6.1696,6.1696,6.1698,6.1698,6.1698,6.1698,6.1698,6.1698,6.1698,6.1698,6.1698,6.1698,6.1698,6.1698,6.1698,6.1698,6.1698,6.1698,6.1698,6.1698,6.1698,6.1698,6.1698,6.1698,6.1698,6.1698,6.1698,6.1698,6.1698,6.1698,5.4315,5.4463,5.4639,5.4776,5.499,5.5214,5.5377,5.5403,5.5403,5.5403,5.5403,5.5403,5.5403,5.5465,5.5535,5.5604,5.5749,5.59,5.6021,5.6224,5.6368,5.643,5.6545,5.6606,5.6606,5.7074,5.7328,5.7328,5.8695,5.9358,5.9397,6.0607,6.1369,6.1698,6.1698,6.1503,6.1174,6.1174,6.0686,5.9885,5.9885,5.9358,5.8577,5.8577,5.805,5.7328,5.7328,5.7016,5.6606,5.6606,5.6511,5.6405,5.6368,5.6336,5.6291,5.6291,5.6291,5.6291,5.6291,5.6291,5.6291,5.6291,5.6291,5.6291,5.6291,5.6291,5.6291,5.6291,5.6291,5.6291,5.6291,5.6297,5.6319,5.6349,5.6665,5.6839,5.6584,5.8295,5.9443,5.9106,6.059,6.1663,6.1663,6.1674,6.1698,6.1698,6.1698,6.1698,6.1698,6.1698,6.1698,6.1698,6.1698,6.1698,6.1698,6.1698,6.1698,6.1698,6.1698,6.1698,6.1698,6.1698,6.1698,6.1698,6.1698,6.1698,6.1698,6.1698,6.1698,6.1698,6.1698,6.1698,6.1698,6.1698,6.1698,6.1674,5.461,5.481,5.4976,5.4976,5.52,5.5403,5.5403,5.5434,5.5472,5.5472,5.5483,5.5495,5.5453,5.5581,5.5675,5.5708,5.5891,5.6025,5.6085,5.6289,5.6414,5.6426,5.6542,5.6704,5.6957,5.7504,5.7933,5.8187,5.9671,6.0276,6.0041,6.092,6.1444,6.1698,6.1698,6.1698,6.1698,6.1698,6.1349,6.0783,6.0783,6.0256,5.9475,5.9475,5.8948,5.8148,5.7894,5.7426,5.6918,5.6684,5.6517,5.6426,5.6414,5.6349,5.6297,5.6298,5.6291,5.6291,5.6291,5.6291,5.6291,5.6291,5.6291,5.6291,5.6291,5.6291,5.6291,5.6291,5.6291,5.6291,5.6291,5.6291,5.6309,5.6354,5.6401,5.6434,5.6548,5.8019,5.9075,5.9102,6.062,6.1671,6.1698,6.1698,6.1698,6.1698,6.1698,6.1698,6.1698,6.1698,6.1698,6.1698,6.1698,6.1698,6.1698,6.1698,6.1698,6.1698,6.1698,6.1698,6.1698,6.1698,6.1698,6.1698,6.1698,6.1698,6.1698,6.1698,6.1698,6.1698,6.1698,6.1698,6.1698,6.1698,6.1688,6.1625,5.539,5.539,5.539,5.539,5.539,5.5403,5.5403,5.5507,5.5596,5.5596,5.5708,5.5749,5.5618,5.5708,5.5845,5.5985,5.5993,5.6085,5.6278,5.6359,5.6426,5.6501,5.6553,5.6977,5.7777,5.7797,5.8226,5.9083,5.9963,5.9963,5.9122,6.0002,6.0881,6.1698,6.1698,6.1698,6.1698,6.1698,6.1698,6.1679,6.1679,6.1154,6.0373,6.0373,5.9846,5.8968,5.8109,5.7797,5.766,5.6879,5.6548,5.6498,5.6422,5.6354,5.6297,5.6291,5.6291,5.6291,5.6291,5.6291,5.6291,5.6291,5.6291,5.6291,5.6291,5.6291,5.6291,5.6291,5.6291,5.6291,5.6291,5.6291,5.6297,5.6303,5.6359,5.6422,5.6498,5.7948,5.9033,5.908,6.0584,6.1628,6.1696,6.1698,6.1698,6.1698,6.1698,6.1698,6.1698,6.1698,6.1698,6.1698,6.1698,6.1698,6.1698,6.1698,6.1698,6.1698,6.1698,6.1698,6.1698,6.1698,6.1698,6.1698,6.1698,6.1698,6.1698,6.1698,6.1698,6.1698,6.1698,6.1698,6.1698,6.1698,6.1621,6.149,5.5403,5.5403,5.5403,5.5403,5.5403,5.5403,5.5403,5.5507,5.5596,5.5596,5.5808,5.5917,5.5873,5.5909,5.5952,5.5993,5.6136,5.6226,5.6303,5.6364,5.6414,5.6426,5.7072,5.7543,5.7797,5.8968,5.971,5.9983,6.0861,6.1134,6.0878,6.1154,6.1425,6.1698,6.1698,6.1698,6.1698,6.1698,6.1698,6.1698,6.1698,6.1522,6.1291,6.1291,6.0744,5.9944,5.9671,5.9183,5.8558,5.7699,5.7402,5.7272,5.6654,5.6401,5.6297,5.6291,5.6291,5.6291,5.6291,5.6291,5.6291,5.6291,5.6291,5.6291,5.6291,5.6291,5.6291,5.6291,5.6291,5.6291,5.6291,5.6291,5.6309,5.6354,5.6396,5.6434,5.6548,5.8016,5.9075,5.9102,6.062,6.1671,6.1698,6.1698,6.1698,6.1698,6.1698,6.1698,6.1698,6.1698,6.1698,6.1698,6.1698,6.1698,6.1698,6.1698,6.1698,6.1698,6.1698,6.1698,6.1698,6.1698,6.1698,6.1698,6.1698,6.1698,6.1698,6.1698,6.1698,6.1698,6.1698,6.1698,6.1674,6.1557,6.1476,6.1376,5.6339,5.6339,5.6243,5.5919,5.5842,5.5772,5.5503,5.5585,5.5677,5.5739,5.5962,5.6109,5.6109,5.6109,5.6109,5.6109,5.6232,5.6291,5.6291,5.6333,5.6524,5.6873,5.7463,5.81,5.8753,5.9846,6.0568,6.0881,6.1425,6.1698,6.1698,6.1698,6.1698,6.1698,6.1698,6.1698,6.1698,6.1698,6.1698,6.1698,6.1698,6.1698,6.1698,6.1698,6.1369,6.0842,6.0529,6.0041,5.9456,5.8577,5.8285,5.8143,5.7255,5.6909,5.6757,5.6411,5.6291,5.6291,5.6291,5.6291,5.6291,5.6291,5.6291,5.6291,5.6291,5.6291,5.6291,5.6291,5.6291,5.6291,5.6291,5.6297,5.6325,5.6396,5.6422,5.6471,5.658,5.805,5.9102,5.9102,6.0644,6.1698,6.1698,6.1698,6.1698,6.1698,6.1698,6.1698,6.1698,6.1698,6.1698,6.1698,6.1698,6.1698,6.1698,6.1698,6.1698,6.1698,6.1698,6.1698,6.1698,6.1698,6.1698,6.1698,6.1698,6.1698,6.1698,6.1698,6.1698,6.1698,6.1668,6.1634,6.1568,6.1422,6.1285,6.1128,5.7905,5.7905,5.7638,5.6816,5.6683,5.6493,5.5881,5.5882,5.6019,5.6159,5.634,5.6466,5.6466,5.6466,5.6466,5.6466,5.6369,5.633,5.6388,5.6391,5.6801,5.7745,5.7907,5.8724,6.0351,6.0451,6.0881,6.1698,6.1698,6.1698,6.1698,6.1698,6.1698,6.1698,6.1698,6.1698,6.1698,6.1698,6.1698,6.1698,6.1698,6.1698,6.1698,6.1698,6.1698,6.1581,6.0783,6.049,6.0354,5.9475,5.918,5.9041,5.8178,5.7849,5.7594,5.6582,5.6308,5.6291,5.6291,5.6291,5.6291,5.6291,5.6291,5.6291,5.6291,5.6291,5.6291,5.6291,5.6291,5.6291,5.6291,5.6308,5.6324,5.6381,5.6457,5.653,5.666,5.8089,5.9122,5.918,6.0683,6.1698,6.1698,6.1698,6.1698,6.1698,6.1698,6.1698,6.1698,6.1698,6.1698,6.1698,6.1698,6.1698,6.1698,6.1698,6.1698,6.1698,6.1698,6.1698,6.1698,6.1698,6.1698,6.1698,6.1698,6.1698,6.1698,6.1698,6.1698,6.1693,6.1628,6.1517,6.1381,6.1311,6.1076,6.0775,5.7905,5.7905,5.7829,5.7619,5.7581,5.7564,5.7512,5.7673,5.7825,5.7968,5.8125,5.8214,5.8214,5.8214,5.8214,5.8214,5.7049,5.6583,5.725,5.7286,5.7695,5.8582,5.9315,5.9902,6.0318,6.1024,6.1483,6.1698,6.1698,6.1698,6.1698,6.1698,6.1698,6.1698,6.1698,6.1698,6.1698,6.1698,6.1698,6.1698,6.1698,6.1698,6.1698,6.1698,6.1698,6.1679,6.1464,6.1388,6.1252,6.0393,6.008,5.9944,5.9078,5.8783,5.8433,5.6787,5.6308,5.6291,5.6291,5.6291,5.6291,5.6291,5.6291,5.6291,5.6291,5.6291,5.6291,5.6291,5.6291,5.6291,5.6291,5.6304,5.6314,5.6396,5.6418,5.6682,5.7402,5.8421,5.9358,6.0002,6.1037,6.1698,6.1698,6.1698,6.1698,6.1698,6.1698,6.1698,6.1698,6.1698,6.1698,6.1698,6.1698,6.1698,6.1698,6.1698,6.1698,6.1698,6.1698,6.1698,6.1698,6.1698,6.1698,6.1698,6.1698,6.1698,6.1698,6.1698,6.1668,6.1628,6.1618,6.1495,6.1305,6.1139,6.0925,6.0696,5.9033,5.9033,5.8918,5.8517,5.852,5.8507,5.8272,5.8375,5.8544,5.8676,5.8743,5.8797,5.8797,5.8797,5.881,5.8843,5.8013,5.7682,5.8149,5.8226,5.8637,5.9498,6.0032,6.049,6.0935,6.1437,6.1698,6.1698,6.1698,6.1698,6.1698,6.1698,6.1698,6.1698,6.1698,6.1698,6.1698,6.1698,6.1698,6.1698,6.1698,6.1698,6.1698,6.1698,6.1698,6.1698,6.1698,6.1698,6.162,6.1154,6.0998,6.0842,5.9963,5.9672,5.9388,5.7996,5.7249,5.6821,5.6421,5.6291,5.6291,5.6291,5.6291,5.6291,5.6291,5.6291,5.6291,5.6291,5.6291,5.6291,5.6291,5.6321,5.6363,5.6381,5.6753,5.7216,5.7736,5.889,5.9866,6.0334,6.1174,6.1698,6.1698,6.1698,6.1698,6.1698,6.1698,6.1698,6.1698,6.1698,6.1698,6.1698,6.1698,6.1698,6.1698,6.1698,6.1698,6.1698,6.1698,6.1698,6.1698,6.1698,6.1698,6.1698,6.1698,6.1674,6.1643,6.1643,6.1602,6.1545,6.1543,6.1381,6.1147,6.1002,6.0798,6.0559,6.0403,6.0403,6.016,5.9434,5.9447,5.9377,5.8855,5.8866,5.9016,5.9165,5.9186,5.9186,5.9186,5.9186,5.9232,5.9268,5.9291,5.9243,5.9127,5.9153,5.9587,6.0437,6.0483,6.087,6.1674,6.1698,6.1698,6.1698,6.1698,6.1698,6.1698,6.1698,6.1698,6.1698,6.1698,6.1698,6.1698,6.1698,6.1698,6.1698,6.1698,6.1698,6.1698,6.1698,6.1698,6.1698,6.1698,6.1698,6.1698,6.1698,6.1698,6.1562,6.0822,6.0553,6.0357,5.9515,5.8683,5.7823,5.6931,5.6596,5.6453,5.6324,5.6298,5.6298,5.6304,5.631,5.631,5.631,5.6317,5.6356,5.6473,5.6552,5.6643,5.678,5.7463,5.8048,5.8168,5.9475,6.0451,6.0588,6.1252,6.1698,6.1698,6.1698,6.1698,6.1698,6.1698,6.1698,6.1698,6.1698,6.1698,6.1698,6.1698,6.1698,6.1698,6.1698,6.1698,6.1698,6.1698,6.1698,6.1698,6.1698,6.1698,6.1674,6.1674,6.1657,6.1588,6.1557,6.1528,6.1456,6.1427,6.1221,6.0935,6.0882,6.0652,6.0403,6.0403,6.0403,6.0365,6.0217,6.0207,6.031,6.0473,6.0527,6.0644,6.0963,6.1004,6.1004,6.1004,6.1004,6.0992,6.1006,6.1053,6.0818,6.0137,6.0088,6.0462,6.129,6.1366,6.1462,6.1605,6.1668,6.1698,6.1698,6.1698,6.1698,6.1698,6.1698,6.1698,6.1698,6.1698,6.1698,6.1698,6.1698,6.1698,6.1698,6.1698,6.1698,6.1698,6.1698,6.1698,6.1698,6.1698,6.1698,6.1698,6.1698,6.1698,6.1679,6.1542,6.1481,6.13,6.0376,5.9992,5.9674,5.8743,5.7954,5.7224,5.6481,5.6296,5.631,5.6306,5.6297,5.6297,5.6297,5.6354,5.6592,5.7269,5.7448,5.7734,5.847,5.8769,5.9159,5.9883,6.0237,6.0666,6.1408,6.162,6.1698,6.1698,6.1698,6.1698,6.1698,6.1698,6.1698,6.1698,6.1698,6.1698,6.1698,6.1698,6.1698,6.1698,6.1698,6.1698,6.1698,6.1698,6.1698,6.1698,6.1698,6.1668,6.1625,6.1625,6.1584,6.1519,6.139,6.1318,6.1235,6.1117,6.0905,6.0661,6.0649,6.0527,6.0403,6.0403,6.0403,6.0403,6.0403,6.0553,6.0723,6.088,6.1051,6.1212,6.1378,6.1393,6.1393,6.1393,6.1393,6.1414,6.1454,6.147,6.1344,6.0964,6.1011,6.1228,6.1598,6.1634,6.164,6.164,6.1674,6.1698,6.1698,6.1698,6.1698,6.1698,6.1698,6.1698,6.1698,6.1698,6.1698,6.1698,6.1698,6.1698,6.1698,6.1698,6.1698,6.1698,6.1698,6.1698,6.1698,6.1698,6.1698,6.1698,6.1698,6.1698,6.1698,6.1698,6.1698,6.1618,6.1178,6.035,5.9505,5.9021,5.8606,5.8206,5.7801,5.7692,5.7706,5.7751,5.7741,5.7741,5.7741,5.7779,5.7916,5.83,5.8407,5.8589,5.8995,5.9476,5.9931,6.0334,6.0803,6.1252,6.164,6.1698,6.1698,6.1698,6.1698,6.1698,6.1698,6.1698,6.1698,6.1698,6.1698,6.1698,6.1698,6.1698,6.1698,6.1698,6.1698,6.1698,6.1698,6.1698,6.1698,6.1698,6.1666,6.1631,6.1595,6.1553,6.1534,6.1498,6.1324,6.1213,6.1126,6.1002,6.0809,6.0589,6.0589,6.052,6.0403,6.0403,6.0403,6.0403,6.0403,6.061,6.0814,6.0901,6.1125,6.1314,6.1386,6.1393,6.1393,6.1393,6.1393,6.1421,6.1473,6.1491,6.1501,6.151,6.1607,6.1663,6.1671,6.1696,6.1698,6.1698,6.1698,6.1698,6.1698,6.1698,6.1698,6.1698,6.1698,6.1698,6.1698,6.1698,6.1698,6.1698,6.1698,6.1698,6.1698,6.1698,6.1698,6.1698,6.1698,6.1698,6.1698,6.1698,6.1698,6.1698,6.1698,6.1698,6.1698,6.1698,6.1698,6.1698,6.1698,6.0714,5.9572,5.9318,5.9226,5.9155,5.8976,5.8902,5.8896,5.8954,5.8996,5.9005,5.9005,5.8994,5.9053,5.9245,5.9323,5.945,5.9634,6.0252,6.0705,6.0705,6.1271,6.1698,6.1698,6.1698,6.1698,6.1698,6.1698,6.1698,6.1698,6.1698,6.1698,6.1698,6.1698,6.1698,6.1698,6.1698,6.1698,6.1698,6.1698,6.1698,6.1698,6.1698,6.1696,6.1691,6.1628,6.1588,6.1564,6.1529,6.1498,6.1467,6.1237,6.1092,6.1031,6.085,6.07,6.0546,6.0546,6.0481,6.0403,6.0403,6.0403,6.0403,6.0403,6.0431,6.054,6.0858,6.0932,6.1051,6.1371,6.1393,6.1393,6.1393,6.1393,6.14,6.14,6.1467,6.1503,6.1509,6.151,6.1541,6.1598,6.1666,6.1698,6.1698,6.1698,6.1698,6.1698,6.1698,6.1698,6.1698,6.1698,6.1698,6.1698,6.1698,6.1698,6.1698,6.1698,6.1698,6.1698,6.1698,6.1698,6.1698,6.1698,6.1698,6.1698,6.1698,6.1698,6.1698,6.1698,6.1698,6.1698,6.1698,6.1698,6.1698,6.1698,6.1618,6.1322,6.0503,6.0196,5.9925,5.9177,5.8896,5.8823,5.8885,5.8963,5.9001,5.9001,5.8991,5.9229,5.998,6.0174,6.0449,6.1192,6.1485,6.1601,6.1601,6.1659,6.1698,6.1698,6.1698,6.1698,6.1698,6.1698,6.1698,6.1698,6.1698,6.1698,6.1698,6.1698,6.1698,6.1698,6.1698,6.1698,6.1698,6.1698,6.1698,6.1698,6.1698,6.1666,6.1598,6.1598,6.1571,6.1515,6.149,6.1453,6.1386,6.106,6.0913,6.0871,6.0565,6.0431,6.0398,6.0398,6.0417,6.0403,6.0403,6.0403,6.0403,6.0403,6.0474,6.0615,6.085,6.0973,6.1104,6.1378,6.1393,6.1393,6.1393,6.1393,6.1393,6.1393,6.1421,6.1441,6.1441,6.1484,6.1505,6.1537,6.1595,6.1625,6.158,6.1663,6.1671,6.1634,6.1671,6.1698,6.1698,6.1698,6.1698,6.1698,6.1698,6.1698,6.1698,6.1663,6.1634,6.1631,6.1591,6.1595,6.1631,6.1591,6.1595,6.1634,6.1634,6.1634,6.1634,6.1634,6.1666,6.1696,6.164,6.1666,6.1698,6.1698,6.1698,6.162,6.131,6.1116,6.0921,6.0628,6.0519,6.0474,6.0511,6.0521,6.0555,6.0555,6.0549,6.0659,6.1006,6.1089,6.1228,6.1566,6.1666,6.1698,6.1698,6.1698,6.1698,6.1698,6.1698,6.1698,6.1698,6.1698,6.1698,6.1698,6.1698,6.1698,6.1698,6.1698,6.1698,6.1698,6.1698,6.1698,6.1698,6.1698,6.1698,6.1698,6.1663,6.1628,6.1595,6.1558,6.1528,6.1497,6.146,6.1347,6.12,6.1002,6.0828,6.0692,6.0474,6.0403,6.0403,6.0403,6.0403,6.0403,6.0403,6.0403,6.0403,6.0403,6.0487,6.0603,6.0784,6.0934,6.1104,6.1287,6.1352,6.1393,6.1393,6.1393,6.1393,6.1393,6.1393,6.1393,6.1393,6.1441,6.149,6.1505,6.1541,6.1545,6.149,6.1588,6.1758,6.1986,6.2012,6.2197,6.2451,6.2451,6.2314,6.2041,6.2041,6.1885,6.1631,6.1588,6.1576,6.1557,6.1524,6.1532,6.1553,6.1524,6.1532,6.1576,6.1576,6.1576,6.1576,6.1576,6.1595,6.1628,6.1584,6.1602,6.1668,6.1696,6.1693,6.1668,6.1696,6.1595,6.149,6.149,6.1509,6.149,6.1473,6.147,6.1505,6.1505,6.1505,6.1515,6.1552,6.1576,6.1584,6.163,6.1654,6.1668,6.1668,6.1693,6.1698,6.1698,6.1698,6.1698,6.1698,6.1698,6.1698,6.1698,6.1698,6.1698,6.1698,6.1698,6.1698,6.1698,6.1698,6.1698,6.1698,6.1698,6.1696,6.1668,6.1628,6.1584,6.1576,6.1523,6.1491,6.1467,6.1347,6.1236,6.1085,6.0883,6.0708,6.0596,6.0447,6.0403,6.0403,6.0403,6.0403,6.0403,6.0403,6.0403,6.0403,6.0403,6.0403,6.0453,6.0584,6.0773,6.0943,6.1085,6.1287,6.1393,6.1393,6.1393,6.1393,6.1393,6.1393,6.1393,6.1412,6.1412,6.1441,6.1525,6.151,6.151,6.151,6.1529,6.1938,6.2815,6.2815,6.3239,6.4091,6.4091,6.3648,6.2815,6.2815,6.2328,6.1529,6.1529,6.1529,6.151,6.151,6.151,6.151,6.151,6.151,6.151,6.151,6.151,6.151,6.151,6.151,6.149,6.149,6.1545,6.1602,6.1671,6.164,6.1602,6.1671,6.1595,6.149,6.149,6.1509,6.1485,6.1414,6.1454,6.1503,6.1503,6.1503,6.1503,6.1503,6.1503,6.1503,6.1503,6.1558,6.1595,6.1595,6.1663,6.1698,6.1698,6.1698,6.1698,6.1698,6.1698,6.1698,6.1698,6.1698,6.1698,6.1698,6.1698,6.1698,6.1698,6.1698,6.1698,6.1698,6.1698,6.1666,6.1595,6.1595,6.1552,6.1503,6.1503,6.1467,6.1386,6.1192,6.1103,6.1076,6.0734,6.0589,6.0596,6.0447,6.0403,6.0403,6.0403,6.0403,6.0403,6.0403,6.0403,6.0403,6.0403,6.0403,6.0453,6.0584,6.0773,6.0943,6.1085,6.1287,6.1393,6.1393,6.1393,6.1393,6.1393,6.1393,6.1665,6.2274,6.2313,6.2587,6.323,6.2677,6.2346,6.2335,6.2983,6.3433,6.3634,6.3686,6.3843,6.4091,6.4091,6.3955,6.3707,6.3707,6.357,6.3312,6.3281,6.2894,6.2344,6.2335,6.1997,6.1487,6.144,6.1452,6.1493,6.1493,6.1493,6.1493,6.1493,6.15,6.149,6.149,6.15,6.1532,6.1545,6.1541,6.1537,6.1549,6.1532,6.149,6.149,6.1509,6.1485,6.1414,6.1414,6.1428,6.1428,6.1428,6.1447,6.1491,6.1503,6.1495,6.15,6.156,6.1595,6.1595,6.1663,6.1698,6.1698,6.1698,6.1698,6.1698,6.1698,6.1698,6.1698,6.1698,6.1698,6.1698,6.1698,6.1698,6.1698,6.1698,6.1671,6.1631,6.1631,6.1625,6.1595,6.1553,6.1518,6.1497,6.1454,6.1414,6.1386,6.1192,6.104,6.0943,6.0696,6.0533,6.0447,6.0417,6.0403,6.0403,6.0403,6.0403,6.0403,6.0403,6.0403,6.0403,6.0403,6.0403,6.0453,6.0584,6.0773,6.0943,6.1085,6.1287,6.1393,6.1393,6.1393,6.1529,6.1886,6.2235,6.2643,6.3187,6.3206,6.3439,6.3983,6.3793,6.354,6.3226,6.3774,6.4202,6.4474,6.4513,6.4706,6.5057,6.5057,6.4862,6.4531,6.4531,6.4356,6.4064,6.4027,6.3703,6.321,6.3208,6.2924,6.2491,6.2444,6.2457,6.2491,6.2491,6.2491,6.2491,6.2491,6.2269,6.1915,6.1606,6.15,6.15,6.1505,6.1495,6.1505,6.1505,6.1495,6.15,6.15,6.1493,6.1485,6.1414,6.1393,6.1393,6.1393,6.1393,6.1407,6.1454,6.146,6.1453,6.1456,6.151,6.1563,6.1563,6.1615,6.1663,6.1663,6.1674,6.1698,6.1698,6.1698,6.1698,6.1698,6.1698,6.1698,6.1698,6.1698,6.1698,6.1698,6.1698,6.1668,6.1598,6.1561,6.1564,6.1563,6.1518,6.1485,6.146,6.1332,6.1268,6.126,6.1012,6.0862,6.0773,6.0603,6.0474,6.0403,6.0403,6.0403,6.0403,6.0403,6.0403,6.0403,6.0403,6.0403,6.0403,6.0403,6.046,6.0554,6.0674,6.0923,6.1155,6.129,6.1485,6.1619,6.1626,6.1626,6.1944,6.276,6.3537,6.4022,6.41,6.41,6.4139,6.4216,6.4935,6.4974,6.4236,6.4216,6.4586,6.5316,6.5316,6.5732,6.6508,6.6508,6.6081,6.5316,6.5316,6.4916,6.4216,6.4216,6.4178,6.41,6.41,6.4061,6.4003,6.4003,6.4003,6.4003,6.4003,6.4003,6.4003,6.4003,6.3478,6.2696,6.194,6.1725,6.1717,6.1714,6.1712,6.1717,6.1714,6.1712,6.1725,6.1725,6.1666,6.1576,6.1433,6.1393,6.1393,6.1393,6.1393,6.1393,6.1393,6.1393,6.1393,6.1393,6.146,6.1503,6.1503,6.1563,6.1595,6.1595,6.1663,6.1698,6.1698,6.1698,6.1698,6.1698,6.1698,6.1698,6.1698,6.1698,6.1698,6.1698,6.1696,6.1663,6.1591,6.1528,6.15,6.1503,6.1497,6.146,6.1393,6.12,6.1103,6.1085,6.0754,6.0589,6.0596,6.0466,6.0403,6.0403,6.0403,6.0403,6.0403,6.0403,6.0403,6.0403,6.0403,6.0403,6.0403,6.0403,6.0924,6.1339,6.1376,6.2125,6.2748,6.2881,6.3071,6.3264,6.3413,6.3439,6.3517,6.3692,6.3886,6.4275,6.4896,6.4935,6.5246,6.5926,6.6139,6.6139,6.5965,6.5965,6.6042,6.6217,6.6217,6.6314,6.6508,6.6508,6.6392,6.6217,6.6217,6.612,6.5965,6.5965,6.5557,6.4935,6.4935,6.4566,6.4003,6.4003,6.4003,6.4003,6.4003,6.4003,6.4003,6.4003,6.3867,6.3699,6.3519,6.3468,6.3468,6.3462,6.3455,6.3468,6.3462,6.3455,6.3468,6.3468,6.2936,6.2256,6.1555,6.1393,6.1393,6.1393,6.1393,6.1393,6.1393,6.1393,6.1393,6.1393,6.146,6.1503,6.1503,6.1563,6.1595,6.1595,6.1663,6.1698,6.1698,6.1698,6.1698,6.1698,6.1698,6.1698,6.1698,6.1698,6.1698,6.1698,6.166,6.1588,6.1528,6.1514,6.1495,6.1503,6.1447,6.1414,6.1393,6.12,6.1103,6.1085,6.0754,6.0589,6.0596,6.0466,6.0403,6.0403,6.0403,6.0403,6.0403,6.0403,6.0403,6.0403,6.0886,6.0962,6.1096,6.1516,6.1936,6.2252,6.2344,6.2835,6.3281,6.3513,6.3632,6.3772,6.3969,6.4003,6.4139,6.4547,6.4955,6.5362,6.579,6.5829,6.6023,6.6489,6.6508,6.6508,6.6508,6.6508,6.6508,6.6508,6.6508,6.6508,6.6508,6.6508,6.6508,6.6508,6.6508,6.6508,6.6508,6.6508,6.6237,6.5829,6.5829,6.5576,6.5188,6.5188,6.5188,6.5188,6.5188,6.5188,6.5129,6.4702,6.4566,6.4508,6.4119,6.4003,6.4003,6.4003,6.4003,6.4003,6.4003,6.4003,6.4003,6.4003,6.3653,6.309,6.2216,6.1704,6.1393,6.1393,6.1393,6.1393,6.1393,6.1393,6.1393,6.1393,6.1428,6.1454,6.1454,6.1518,6.1543,6.1545,6.1602,6.1666,6.1698,6.1668,6.1666,6.1698,6.1668,6.164,6.164,6.164,6.1634,6.1618,6.1576,6.1543,6.1489,6.1395,6.1336,6.1301,6.1275,6.122,6.1161,6.0954,6.0864,6.0843,6.0608,6.0507,6.0494,6.0425,6.0403,6.0403,6.0403,6.0403,6.0403,6.0403,6.0403,6.0403,6.1669,6.1822,6.2051,6.2777,6.3025,6.3179,6.3359,6.3501,6.3699,6.4038,6.4087,6.4172,6.4396,6.443,6.4702,6.5355,6.6081,6.6508,6.6508,6.6508,6.6508,6.6508,6.6508,6.6508,6.6508,6.6508,6.6508,6.6508,6.6508,6.6508,6.6508,6.6508,6.6508,6.6508,6.6508,6.6508,6.6508,6.6508,6.6508,6.6508,6.6508,6.6508,6.6508,6.6508,6.6508,6.6508,6.6508,6.6508,6.6392,6.5673,6.5413,6.5304,6.4644,6.443,6.443,6.443,6.443,6.443,6.443,6.443,6.443,6.443,6.4314,6.4022,6.3284,6.2468,6.184,6.184,6.184,6.1801,6.1645,6.1626,6.1568,6.1412,6.1393,6.1393,6.1393,6.146,6.1501,6.149,6.1541,6.1598,6.1663,6.1621,6.1618,6.1663,6.1602,6.1588,6.1588,6.1588,6.1549,6.149,6.15,6.1489,6.146,6.1281,6.1126,6.1002,6.1002,6.0974,6.0882,6.0685,6.0589,6.0589,6.046,6.0403,6.0403,6.0403,6.0403,6.0403,6.0403,6.0403,6.0403,6.0403,6.0403,6.0403,6.2548,6.272,6.2758,6.2892,6.3522,6.4034,6.4063,6.4656,6.5249,6.5635,6.5691,6.5808,6.6136,6.6159,6.6217,6.6314,6.6431,6.6508,6.6508,6.6508,6.6508,6.6508,6.6508,6.6508,6.6508,6.6508,6.6508,6.6508,6.6508,6.6508,6.6508,6.6508,6.6508,6.6508,6.6508,6.6508,6.6508,6.6508,6.6508,6.6508,6.6508,6.6508,6.6508,6.6508,6.6508,6.6508,6.6508,6.6508,6.6489,6.6353,6.6314,6.6314,6.6198,6.6159,6.6159,6.6159,6.6159,6.6159,6.6159,6.6159,6.6159,6.6159,6.5596,6.5005,6.4889,6.4236,6.3653,6.3653,6.3653,6.342,6.2663,6.2527,6.2274,6.1509,6.1393,6.1393,6.1393,6.146,6.1503,6.1495,6.151,6.1524,6.1528,6.1524,6.1524,6.1528,6.1524,6.15,6.15,6.15,6.1519,6.149,6.1504,6.1415,6.1247,6.1162,6.0964,6.0673,6.0673,6.0742,6.0882,6.0685,6.0589,6.0589,6.046,6.0403,6.0403,6.0403,6.0403,6.0403,6.0403,6.0403,6.0403,6.0403,6.0403,6.0403,6.3446,6.3618,6.377,6.4229,6.4611,6.4859,6.4859,6.5165,6.5494,6.5801,6.5936,6.6074,6.6299,6.6431,6.6508,6.6508,6.6508,6.6508,6.6508,6.6508,6.6508,6.6508,6.6508,6.6508,6.6508,6.6508,6.6508,6.6508,6.6508,6.6508,6.6508,6.6508,6.6508,6.6508,6.6508,6.6508,6.6508,6.6508,6.6508,6.6508,6.6508,6.6508,6.6508,6.6508,6.6508,6.6508,6.6508,6.6508,6.6508,6.6508,6.6508,6.6508,6.6508,6.6508,6.6474,6.6362,6.6414,6.6474,6.6362,6.6325,6.6325,6.6325,6.5991,6.5674,6.5737,6.5483,6.5004,6.4163,6.4003,6.3886,6.3498,6.3032,6.2565,6.2196,6.1723,6.1393,6.1393,6.1421,6.146,6.1497,6.1495,6.149,6.149,6.15,6.1495,6.151,6.1398,6.1324,6.1324,6.1324,6.1285,6.1174,6.1244,6.1197,6.102,6.0884,6.0745,6.0589,6.0514,6.0533,6.0622,6.052,6.0481,6.0481,6.0425,6.0403,6.0403,6.0403,6.0403,6.0403,6.0403,6.0403,6.0403,6.0403,6.0403,6.0403]}]]